[[{"header":{"parameterUnit":"m.s-1","parameterCategory":1,"la1":30.6,"la2":29.2853,"lo1":-89.7004,"lo2":-87.6739,"dx":0.0162,"dy":0.0183,"nx":112,"ny":82,"refTime":"2023-02-02T18:00:00:Z","depth":0,"parameterNumber":2,"parameterNumberName":"U-component_of_WINDS"},"data":[0.0,0.0,0.0,0.0,0.0,0.0,0.0,0.0,0.0,0.0,0.0,0.0,0.0,0.0,0.0,0.0,0.0,0.0,0.0,0.0,0.0,0.0,0.0,0.0,0.0,0.0,0.0,0.0,0.0,0.0,0.0,0.0,0.0,0.0,0.0,0.0,0.0,0.0,0.0,0.0,0.0,0.0,0.0,0.0,0.0,0.0,0.0,0.0,0.0,0.0,0.0,0.0,0.0,0.0,0.0,0.0,0.0,0.0,0.0,0.0,0.0,0.0,0.0,0.0,0.0,0.0,0.0,0.0,0.0,0.0,0.0,0.0,0.0,0.0,0.0,0.0,0.0,0.0,0.0,0.0,0.0,0.0,0.0,0.0,0.0,0.0,0.0,0.0,0.0,0.0,-3.0975,-3.0975,-3.1021,-3.112,-3.1252,-3.131,-3.1387,-3.1468,0.0,0.0,0.0,0.0,0.0,0.0,0.0,0.0,0.0,0.0,0.0,0.0,0.0,0.0,0.0,0.0,0.0,0.0,0.0,0.0,0.0,0.0,0.0,0.0,0.0,0.0,0.0,0.0,0.0,0.0,0.0,0.0,0.0,0.0,0.0,0.0,0.0,0.0,0.0,0.0,0.0,0.0,0.0,0.0,0.0,0.0,0.0,0.0,0.0,0.0,0.0,0.0,0.0,0.0,0.0,0.0,0.0,0.0,0.0,0.0,0.0,0.0,0.0,0.0,0.0,0.0,0.0,0.0,0.0,0.0,0.0,0.0,0.0,0.0,0.0,0.0,0.0,0.0,0.0,0.0,0.0,0.0,0.0,0.0,0.0,0.0,0.0,0.0,0.0,0.0,0.0,0.0,0.0,0.0,0.0,0.0,0.0,0.0,0.0,0.0,0.0,0.0,0.0,0.0,-3.0011,-3.0011,-3.0032,-3.0059,-3.0133,-3.0506,-3.0804,-3.0925,0.0,0.0,0.0,0.0,0.0,0.0,0.0,0.0,0.0,0.0,0.0,0.0,0.0,0.0,0.0,0.0,0.0,0.0,0.0,0.0,0.0,0.0,0.0,0.0,0.0,0.0,0.0,0.0,0.0,0.0,0.0,0.0,0.0,0.0,0.0,0.0,0.0,0.0,0.0,0.0,0.0,0.0,0.0,0.0,0.0,0.0,0.0,0.0,0.0,0.0,0.0,0.0,0.0,0.0,0.0,0.0,0.0,0.0,0.0,0.0,0.0,0.0,0.0,0.0,0.0,0.0,0.0,0.0,0.0,0.0,0.0,0.0,0.0,0.0,0.0,0.0,0.0,0.0,0.0,0.0,0.0,0.0,0.0,0.0,0.0,0.0,0.0,0.0,0.0,0.0,0.0,0.0,0.0,0.0,0.0,0.0,0.0,0.0,0.0,0.0,0.0,0.0,0.0,-2.9711,-2.9793,-2.9793,-2.9793,-2.9815,-2.9827,-3.0038,-3.0208,-3.0318,-3.0481,0.0,0.0,0.0,0.0,0.0,0.0,0.0,0.0,0.0,0.0,0.0,0.0,0.0,0.0,0.0,0.0,0.0,0.0,0.0,0.0,0.0,0.0,0.0,0.0,0.0,0.0,0.0,0.0,0.0,0.0,0.0,0.0,0.0,0.0,0.0,0.0,0.0,0.0,0.0,0.0,0.0,0.0,0.0,0.0,0.0,0.0,0.0,0.0,0.0,0.0,0.0,0.0,0.0,0.0,0.0,0.0,0.0,0.0,0.0,0.0,0.0,0.0,0.0,0.0,0.0,0.0,0.0,0.0,0.0,0.0,0.0,0.0,0.0,0.0,0.0,0.0,0.0,0.0,0.0,0.0,0.0,0.0,0.0,0.0,0.0,0.0,0.0,0.0,0.0,0.0,0.0,0.0,0.0,0.0,0.0,0.0,0.0,0.0,0.0,0.0,0.0,0.0,-2.9542,-2.961,-2.9671,-2.9528,-2.9454,-2.9477,-2.9572,-2.9645,-2.9701,-2.9777,0.0,0.0,0.0,0.0,0.0,0.0,0.0,0.0,0.0,0.0,0.0,0.0,0.0,0.0,0.0,0.0,0.0,0.0,0.0,0.0,0.0,0.0,0.0,0.0,0.0,0.0,0.0,0.0,0.0,0.0,0.0,0.0,0.0,0.0,0.0,0.0,0.0,0.0,0.0,0.0,0.0,0.0,0.0,0.0,0.0,0.0,0.0,0.0,0.0,0.0,0.0,0.0,0.0,0.0,0.0,0.0,0.0,0.0,0.0,0.0,0.0,0.0,0.0,0.0,0.0,0.0,0.0,0.0,0.0,0.0,0.0,0.0,0.0,0.0,0.0,0.0,0.0,0.0,0.0,0.0,0.0,0.0,0.0,0.0,0.0,0.0,0.0,0.0,0.0,0.0,0.0,0.0,0.0,0.0,0.0,0.0,0.0,0.0,0.0,0.0,0.0,0.0,-2.9058,-2.9093,-2.9229,-2.8676,-2.8356,-2.8493,-2.8897,-2.9143,-2.9166,-2.955,0.0,0.0,0.0,0.0,0.0,0.0,0.0,0.0,0.0,0.0,0.0,0.0,0.0,0.0,0.0,0.0,0.0,0.0,0.0,0.0,0.0,0.0,0.0,0.0,0.0,0.0,0.0,0.0,0.0,0.0,0.0,0.0,0.0,0.0,0.0,0.0,0.0,0.0,0.0,0.0,0.0,0.0,0.0,0.0,0.0,0.0,0.0,0.0,0.0,0.0,0.0,0.0,0.0,0.0,0.0,0.0,0.0,0.0,0.0,0.0,0.0,0.0,0.0,0.0,0.0,0.0,0.0,0.0,0.0,0.0,0.0,0.0,0.0,0.0,0.0,0.0,0.0,0.0,0.0,0.0,0.0,0.0,0.0,0.0,0.0,0.0,0.0,0.0,0.0,0.0,0.0,0.0,0.0,0.0,0.0,0.0,0.0,0.0,0.0,0.0,0.0,0.0,-2.955,-2.9655,0.0,-2.9479,-2.9352,-2.9378,-2.9567,-2.9703,-2.9788,0.0,0.0,0.0,0.0,0.0,0.0,0.0,0.0,0.0,0.0,0.0,0.0,0.0,0.0,0.0,0.0,0.0,0.0,0.0,0.0,0.0,0.0,0.0,0.0,0.0,0.0,0.0,0.0,0.0,0.0,0.0,0.0,0.0,0.0,0.0,0.0,0.0,0.0,0.0,0.0,0.0,0.0,0.0,0.0,0.0,0.0,0.0,0.0,0.0,0.0,0.0,0.0,0.0,0.0,0.0,0.0,0.0,0.0,0.0,0.0,0.0,0.0,0.0,0.0,0.0,0.0,0.0,0.0,0.0,0.0,0.0,0.0,0.0,0.0,0.0,0.0,0.0,0.0,0.0,0.0,0.0,0.0,0.0,0.0,0.0,0.0,0.0,0.0,0.0,0.0,0.0,0.0,0.0,0.0,0.0,0.0,0.0,0.0,0.0,0.0,0.0,0.0,-2.9988,-3.0096,-3.0177,0.0,-3.005,-2.9955,-3.0008,-3.0008,-3.0046,-3.0136,0.0,0.0,0.0,0.0,0.0,0.0,0.0,0.0,0.0,0.0,0.0,0.0,0.0,0.0,0.0,0.0,0.0,0.0,0.0,0.0,0.0,0.0,0.0,0.0,0.0,0.0,0.0,0.0,0.0,0.0,0.0,0.0,0.0,0.0,0.0,0.0,0.0,0.0,0.0,0.0,0.0,0.0,0.0,0.0,0.0,0.0,0.0,0.0,0.0,0.0,0.0,0.0,0.0,0.0,0.0,0.0,0.0,0.0,0.0,0.0,0.0,0.0,0.0,0.0,0.0,0.0,0.0,0.0,0.0,0.0,0.0,0.0,0.0,0.0,0.0,0.0,0.0,0.0,0.0,0.0,0.0,0.0,0.0,0.0,0.0,0.0,0.0,0.0,0.0,0.0,0.0,0.0,0.0,0.0,0.0,0.0,0.0,0.0,0.0,0.0,0.0,0.0,-3.0395,-3.0479,-3.055,-3.0676,-3.0147,-2.9852,-2.9997,-2.9997,-2.9997,0.0,0.0,0.0,0.0,0.0,0.0,0.0,0.0,0.0,0.0,0.0,0.0,0.0,0.0,0.0,0.0,0.0,0.0,0.0,0.0,0.0,0.0,0.0,0.0,0.0,0.0,0.0,0.0,0.0,0.0,0.0,0.0,0.0,0.0,0.0,0.0,0.0,0.0,0.0,0.0,0.0,0.0,0.0,0.0,0.0,0.0,0.0,0.0,0.0,0.0,0.0,0.0,0.0,0.0,0.0,0.0,0.0,0.0,0.0,0.0,0.0,0.0,0.0,0.0,0.0,0.0,0.0,0.0,0.0,0.0,0.0,0.0,0.0,0.0,0.0,0.0,0.0,0.0,0.0,0.0,0.0,0.0,0.0,0.0,0.0,0.0,0.0,0.0,0.0,0.0,0.0,0.0,0.0,0.0,0.0,0.0,0.0,0.0,0.0,0.0,0.0,0.0,0.0,-2.9756,-2.9709,-2.9724,-2.9846,-3.0133,-3.0294,-3.0352,-3.0352,-3.0598,-3.1225,0.0,0.0,0.0,0.0,0.0,0.0,0.0,0.0,0.0,0.0,0.0,0.0,0.0,0.0,0.0,0.0,0.0,0.0,0.0,0.0,0.0,0.0,0.0,0.0,0.0,0.0,0.0,0.0,0.0,0.0,0.0,0.0,0.0,0.0,0.0,0.0,0.0,0.0,0.0,0.0,0.0,0.0,0.0,0.0,0.0,0.0,0.0,0.0,0.0,0.0,0.0,0.0,0.0,0.0,0.0,0.0,0.0,0.0,0.0,0.0,0.0,0.0,0.0,0.0,0.0,0.0,0.0,0.0,0.0,0.0,0.0,0.0,0.0,0.0,0.0,0.0,0.0,0.0,0.0,0.0,0.0,0.0,0.0,0.0,0.0,0.0,0.0,0.0,0.0,0.0,0.0,0.0,0.0,0.0,0.0,0.0,0.0,0.0,0.0,0.0,0.0,0.0,-2.9254,-2.9237,-2.9251,-2.9393,-2.978,-3.004,-3.004,-3.0056,-3.0299,-3.0762,0.0,0.0,0.0,0.0,0.0,0.0,0.0,0.0,0.0,0.0,0.0,0.0,0.0,0.0,0.0,0.0,0.0,0.0,0.0,0.0,0.0,0.0,0.0,0.0,0.0,0.0,0.0,0.0,0.0,0.0,0.0,0.0,0.0,0.0,0.0,0.0,0.0,0.0,0.0,0.0,0.0,0.0,0.0,0.0,0.0,0.0,0.0,0.0,0.0,0.0,0.0,0.0,0.0,0.0,0.0,0.0,0.0,0.0,0.0,0.0,0.0,0.0,0.0,0.0,0.0,0.0,0.0,0.0,0.0,0.0,0.0,0.0,0.0,0.0,0.0,0.0,0.0,0.0,0.0,0.0,0.0,0.0,0.0,0.0,0.0,0.0,0.0,0.0,0.0,0.0,0.0,0.0,0.0,0.0,0.0,0.0,0.0,0.0,0.0,0.0,0.0,0.0,-2.8716,-2.8812,-2.8857,-2.9075,-2.9139,-2.917,-2.917,-2.93,-2.9331,-2.9265,0.0,0.0,0.0,0.0,0.0,0.0,0.0,0.0,0.0,0.0,0.0,0.0,0.0,0.0,0.0,0.0,0.0,0.0,0.0,0.0,0.0,0.0,0.0,0.0,0.0,0.0,0.0,0.0,0.0,0.0,0.0,0.0,0.0,0.0,0.0,0.0,0.0,0.0,0.0,0.0,0.0,0.0,0.0,0.0,0.0,0.0,0.0,0.0,0.0,0.0,0.0,0.0,0.0,0.0,0.0,0.0,0.0,0.0,0.0,0.0,-2.1921,0.0,0.0,0.0,0.0,0.0,0.0,0.0,0.0,0.0,0.0,0.0,0.0,0.0,0.0,0.0,0.0,0.0,0.0,0.0,0.0,0.0,0.0,0.0,0.0,0.0,0.0,0.0,0.0,0.0,0.0,0.0,0.0,0.0,0.0,0.0,0.0,0.0,0.0,0.0,0.0,0.0,-2.739,-2.731,-2.7276,-2.7456,-2.7947,-2.8279,-2.8279,-2.8298,-2.8524,-2.9048,-2.8588,0.0,0.0,0.0,0.0,0.0,0.0,0.0,0.0,0.0,0.0,0.0,0.0,0.0,0.0,0.0,0.0,0.0,0.0,0.0,0.0,0.0,0.0,0.0,0.0,0.0,0.0,0.0,0.0,0.0,0.0,0.0,0.0,0.0,0.0,0.0,0.0,0.0,0.0,0.0,0.0,0.0,0.0,0.0,0.0,0.0,0.0,0.0,0.0,0.0,0.0,0.0,0.0,0.0,0.0,0.0,0.0,0.0,0.0,0.0,0.0,-2.1502,0.0,0.0,0.0,0.0,0.0,0.0,0.0,0.0,0.0,0.0,0.0,0.0,0.0,0.0,0.0,0.0,0.0,0.0,0.0,0.0,0.0,0.0,0.0,0.0,0.0,0.0,0.0,0.0,0.0,0.0,0.0,0.0,0.0,0.0,0.0,0.0,0.0,0.0,0.0,0.0,-2.6739,-2.6658,-2.6658,-2.6841,-2.7175,-2.7384,-2.7384,-2.7464,-2.763,-2.7887,-2.765,0.0,0.0,0.0,0.0,0.0,0.0,0.0,0.0,0.0,0.0,0.0,0.0,0.0,0.0,0.0,0.0,0.0,0.0,0.0,0.0,0.0,0.0,0.0,0.0,0.0,0.0,0.0,0.0,0.0,0.0,0.0,0.0,0.0,0.0,0.0,0.0,0.0,0.0,0.0,0.0,0.0,0.0,0.0,0.0,0.0,0.0,0.0,0.0,0.0,0.0,0.0,0.0,0.0,-2.1004,-2.0966,-2.0966,-2.0879,-2.0791,-2.0752,-2.0879,-2.1043,-2.1205,-2.1397,0.0,0.0,0.0,0.0,0.0,0.0,0.0,0.0,0.0,0.0,0.0,0.0,0.0,0.0,0.0,0.0,0.0,0.0,0.0,0.0,0.0,0.0,0.0,0.0,-2.2366,-2.2,-2.2824,0.0,0.0,0.0,0.0,0.0,0.0,0.0,0.0,0.0,0.0,0.0,-2.6499,-2.6499,-2.6521,-2.6658,-2.6692,-2.6692,-2.6692,-2.6807,-2.6841,-2.6692,-2.6807,-2.6909,0.0,0.0,0.0,0.0,0.0,0.0,0.0,0.0,0.0,0.0,0.0,0.0,0.0,0.0,0.0,0.0,0.0,0.0,0.0,0.0,0.0,0.0,0.0,0.0,0.0,0.0,0.0,0.0,0.0,0.0,0.0,0.0,-1.896,-1.896,0.0,0.0,0.0,0.0,0.0,0.0,0.0,0.0,0.0,0.0,0.0,0.0,0.0,-2.0469,-2.1205,-2.1022,-2.0945,-2.0916,-2.0311,-1.9987,-1.9964,-1.9507,-1.9138,-1.8906,-1.9661,0.0,-2.1205,-2.1244,0.0,0.0,0.0,0.0,0.0,0.0,0.0,0.0,0.0,0.0,0.0,0.0,0.0,0.0,0.0,0.0,0.0,0.0,0.0,0.0,0.0,0.0,-2.0683,-2.0944,-2.0895,-2.0818,0.0,-2.2301,-2.3551,-2.3672,-2.3708,0.0,0.0,0.0,0.0,0.0,0.0,0.0,-2.6499,-2.6499,-2.6499,-2.6521,-2.6521,-2.6521,-2.6521,-2.6568,-2.6555,-2.6521,-2.6568,-2.6636,-2.6726,-2.676,0.0,0.0,0.0,0.0,0.0,0.0,0.0,0.0,0.0,0.0,0.0,0.0,0.0,0.0,0.0,0.0,0.0,0.0,0.0,0.0,0.0,0.0,0.0,0.0,0.0,0.0,0.0,0.0,0.0,-1.8523,-1.8563,-1.8443,-1.889,-1.9167,0.0,0.0,0.0,0.0,0.0,0.0,0.0,0.0,0.0,-1.9273,-1.9273,-1.9512,-1.9962,-1.9889,-1.9848,-1.9848,-1.9481,-1.936,-1.9318,-1.9101,-1.8914,-1.8803,-1.9183,-1.9597,-2.0016,-2.0732,-2.1022,-2.1051,0.0,0.0,0.0,0.0,-2.1022,-2.1022,-2.0886,-2.0848,-2.0848,-2.0848,0.0,0.0,0.0,0.0,0.0,0.0,0.0,0.0,0.0,0.0,-2.0605,-2.0605,-2.0605,-2.0605,-2.0605,-2.127,-2.2048,0.0,-2.2664,-2.311,-2.4445,0.0,0.0,0.0,0.0,-2.5664,-2.6107,-2.6141,-2.6141,-2.6141,-2.6258,-2.6339,-2.6339,-2.643,-2.6465,-2.6339,-2.6339,-2.6292,-2.6245,-2.6245,-2.6245,0.0,0.0,0.0,0.0,0.0,0.0,0.0,0.0,0.0,0.0,0.0,0.0,0.0,0.0,0.0,0.0,0.0,0.0,0.0,0.0,0.0,0.0,0.0,0.0,0.0,0.0,0.0,0.0,-1.7811,-1.773,-1.7585,-1.7891,-1.8123,0.0,0.0,0.0,0.0,0.0,0.0,-1.8149,-1.8153,-1.8259,-1.8389,-1.8398,-1.8583,-1.9007,-1.9058,-1.9057,-1.9014,-1.8946,-1.8905,-1.8817,-1.8685,-1.854,-1.8361,-1.8581,-1.8613,-1.8571,-1.9892,-2.0542,-2.075,-2.0661,-2.0938,-2.1302,-2.0545,-2.0428,-2.0615,-2.0371,-2.0284,-2.0284,-2.0527,-2.0566,-2.0527,-2.0566,0.0,0.0,0.0,0.0,-2.0557,-2.0703,-2.0732,-2.0722,-2.0879,-2.0938,-2.0938,-2.0938,-2.0938,-2.1056,0.0,-2.1631,-2.2151,-2.3672,0.0,0.0,0.0,0.0,-2.46,-2.5194,-2.5276,-2.5276,-2.5276,-2.5606,-2.584,-2.584,-2.6141,-2.6292,-2.6131,-2.6131,-2.5945,-2.5606,-2.5793,-2.5793,-2.5606,0.0,0.0,0.0,0.0,0.0,0.0,0.0,0.0,0.0,0.0,0.0,0.0,0.0,0.0,0.0,0.0,0.0,0.0,0.0,0.0,0.0,0.0,0.0,0.0,0.0,0.0,0.0,0.0,0.0,-1.5548,-1.6304,0.0,0.0,0.0,0.0,-1.8037,-1.8109,-1.7762,-1.6954,-1.6949,-1.709,-1.7383,-1.7383,-1.7913,-1.9007,-1.9269,-1.9253,-1.9015,-1.8822,-1.8578,-1.8341,-1.7799,-1.7231,-1.6659,-1.7485,-1.7538,-1.7121,-1.8528,-1.9629,-2.0355,-1.9459,-2.0229,-2.1603,-1.9422,-1.9197,-1.9887,-1.951,-1.9381,-1.9499,-2.0323,-2.0459,-2.0342,-2.0527,-2.0459,0.0,0.0,-2.045,-2.0439,-2.1014,-2.1031,-2.1047,-2.1678,-2.1816,-2.1816,-2.1816,-2.1816,-2.1613,0.0,-2.0673,-2.0944,-2.1794,0.0,-2.2366,-2.322,-2.3478,-2.3551,-2.3635,-2.3635,-2.3635,-2.3635,-2.4301,-2.4791,-2.4791,-2.5488,-2.5945,-2.591,-2.591,-2.5571,-2.4791,-2.5488,-2.5535,-2.4791,-2.55,0.0,0.0,0.0,0.0,0.0,0.0,0.0,0.0,0.0,0.0,0.0,0.0,0.0,0.0,0.0,0.0,0.0,0.0,0.0,0.0,0.0,0.0,0.0,0.0,0.0,0.0,0.0,0.0,-1.495,-1.5416,0.0,-1.5744,-1.6184,-1.6475,-1.6475,-1.6494,-1.6344,-1.6053,-1.6269,-1.6536,-1.6784,-1.6993,-1.7431,-1.8015,-1.8135,-1.814,-1.8044,-1.795,-1.7871,-1.7773,-1.7598,-1.7386,-1.7169,-1.7455,-1.7471,-1.7311,-1.7826,-1.8504,-1.9238,-1.9042,-1.9435,-2.0021,-1.9793,-1.9865,-2.0107,-2.0548,-2.0633,-2.0561,-2.0888,-2.0929,-2.0888,-2.0969,-2.0929,-2.0888,-2.0969,-2.0929,-2.0926,-2.1119,-2.1158,-2.1145,-2.139,-2.1428,-2.1428,-2.1428,-2.1428,-2.1374,-2.1068,-2.1213,-2.1689,-2.2508,-2.2269,-2.2368,-2.3643,-2.3498,-2.342,-2.3875,-2.3952,-2.3952,-2.3952,-2.4314,-2.4457,-2.4216,-2.4576,-2.4611,-2.4204,-2.4156,-2.4228,-2.4301,-2.4131,-2.412,-2.4301,-2.4131,-2.4276,0.0,0.0,0.0,0.0,0.0,0.0,0.0,0.0,0.0,0.0,0.0,0.0,0.0,0.0,0.0,0.0,0.0,0.0,0.0,0.0,0.0,0.0,0.0,0.0,0.0,0.0,-1.4888,-1.4888,-1.5124,-1.535,-1.535,-1.5494,-1.5655,-1.576,-1.5774,-1.5839,-1.5936,-1.6187,-1.6442,-1.669,-1.6898,-1.7197,-1.7505,-1.761,-1.7609,-1.7516,-1.762,-1.7618,-1.7509,-1.7509,-1.7505,-1.7408,-1.7408,-1.7346,-1.7256,-1.7306,-1.7628,-1.8121,-1.8401,-1.8897,-1.9463,-1.9329,-1.9299,-1.9426,-1.9812,-2.003,-2.0174,-2.0174,-2.0385,-2.0614,-2.0647,-2.0866,-2.1085,-2.1178,-2.1127,-2.1113,-2.1348,-2.1344,-2.1372,-2.1556,-2.1584,-2.1584,-2.1584,-2.1584,-2.1584,-2.1584,-2.1704,-2.1916,-2.2472,-2.2195,-2.2246,-2.3264,-2.2991,-2.2879,-2.3344,-2.3414,-2.3414,-2.3414,-2.3793,-2.3932,-2.3669,-2.3985,-2.3996,-2.3552,-2.3425,-2.3411,-2.3523,-2.3183,-2.3095,-2.3305,-2.3095,-2.3243,-2.372,0.0,0.0,0.0,0.0,0.0,0.0,0.0,0.0,0.0,0.0,0.0,0.0,0.0,0.0,0.0,0.0,0.0,0.0,0.0,0.0,0.0,0.0,0.0,-1.4664,-1.4971,-1.5159,-1.5166,-1.5446,-1.5589,-1.5589,-1.561,-1.5795,-1.6095,-1.6168,-1.6327,-1.6565,-1.6666,-1.6827,-1.7084,-1.7091,-1.7248,-1.7484,-1.7834,-1.7828,-1.7527,-1.7828,-1.7859,-1.7582,-1.7582,-1.7481,-1.7213,-1.7213,-1.7052,-1.6734,-1.6991,-1.7098,-1.7148,-1.7413,-1.8656,-2.0055,-1.787,-1.7461,-1.7972,-1.7234,-1.7533,-1.823,-1.823,-1.8757,-1.9462,-1.9658,-2.0219,-2.0838,-2.1076,-2.0974,-2.0973,-2.1607,-2.1658,-2.1708,-2.2296,-2.2435,-2.2435,-2.2435,-2.2435,-2.2435,-2.2435,-2.1964,-2.1527,-2.154,-2.1758,-2.1924,-2.1924,-2.1924,0.0,-2.1924,-2.1924,-2.1924,-2.1924,-2.2645,-2.3073,-2.3103,-2.3756,-2.4133,-2.4122,-2.3779,-2.3221,-2.2451,-2.275,-2.2558,-2.1766,-2.2547,-2.2957,-2.292,0.0,0.0,0.0,0.0,0.0,0.0,0.0,0.0,0.0,0.0,0.0,0.0,0.0,0.0,0.0,0.0,0.0,0.0,0.0,0.0,0.0,0.0,-1.479,-1.484,-1.4772,-1.4771,-1.5038,-1.546,-1.5771,-1.5771,-1.6157,-1.6447,-1.6528,-1.6567,-1.6599,-1.6679,-1.6918,-1.7079,-1.718,-1.7338,-1.7497,-1.7549,-1.7682,-1.7671,-1.7573,-1.7654,-1.7687,-1.7582,-1.7582,-1.7542,-1.7514,-1.7514,-1.7415,-1.7341,-1.7445,-1.7445,-1.7457,-1.7479,-1.7839,-1.8311,-1.8356,-1.8842,-1.9399,-1.9028,-1.9115,-1.9304,-1.9304,-1.9445,-1.9633,-1.9672,-1.986,-2.0,-2.0102,-2.0623,-2.1206,-2.1412,-2.1967,-2.2566,-2.2723,-2.276,-2.276,-2.276,-2.276,-2.276,-2.276,-2.2805,-2.265,-2.2248,-2.2231,-2.2318,-2.2544,-2.2544,0.0,-2.275,-2.275,-2.275,-2.275,-2.2955,-2.2998,-2.269,-2.286,-2.2845,-2.2533,-2.2443,-2.2534,-2.2886,-2.2137,-2.1468,-2.0944,-2.1718,-2.1766,0.0,0.0,0.0,0.0,0.0,0.0,0.0,0.0,0.0,0.0,0.0,0.0,0.0,0.0,0.0,0.0,0.0,0.0,0.0,0.0,0.0,0.0,-1.4842,-1.5018,-1.5269,-1.5161,-1.513,-1.5304,-1.5845,-1.6199,-1.6199,-1.6506,-1.676,-1.6881,-1.6894,-1.6947,-1.7068,-1.7361,-1.7528,-1.7528,-1.7809,-1.7963,-1.7963,-1.7963,-1.7963,-1.7963,-1.7963,-1.7963,-1.7963,-1.7963,-1.7963,-1.7963,-1.7963,-1.7963,-1.7956,-1.7829,-1.7776,0.0,0.0,0.0,0.0,0.0,-1.8467,-1.8786,-1.8511,-1.8466,-1.8466,-1.8466,-1.8712,-1.9056,-1.9056,-1.9349,-1.978,-2.0216,-2.0804,-2.1388,-2.1835,-2.2413,-2.2904,-2.2904,-2.2904,-2.2904,-2.2904,-2.2904,-2.2904,-2.2904,-2.3054,0.0,-2.2693,-2.2791,-2.2981,-2.3162,-2.3162,-2.3207,-2.3332,-2.3332,-2.3332,-2.3332,-2.3159,-2.2948,-2.2707,-2.2534,0.0,0.0,0.0,-2.1977,-2.2277,-2.159,0.0,0.0,0.0,-2.1017,-2.0445,-2.1119,0.0,0.0,-2.2813,-2.3331,0.0,0.0,0.0,0.0,0.0,0.0,0.0,0.0,0.0,0.0,0.0,0.0,0.0,0.0,0.0,0.0,-1.5018,-1.5172,-1.575,-1.5863,-1.587,-1.5884,-1.642,-1.676,-1.676,-1.6787,-1.6927,-1.728,-1.73,-1.7427,-1.7669,0.0,0.0,0.0,0.0,-1.849,-1.849,-1.849,-1.849,-1.849,-1.849,-1.849,-1.849,-1.849,-1.849,-1.849,-1.849,-1.849,-1.847,-1.8203,-1.8042,-1.8009,-1.7716,-1.7582,-1.7549,-1.7347,-1.7253,-1.7213,-1.6894,0.0,0.0,-1.6807,-1.7403,-1.8145,-1.8294,-1.8931,-1.985,-2.0928,-2.1323,-2.1669,-2.2604,-2.2946,-2.3041,-2.3041,-2.3041,-2.3041,-2.3041,-2.3041,-2.3041,-2.3041,-2.3041,-2.3041,-2.3041,-2.3345,-2.3626,-2.3673,-2.3673,-2.3673,-2.372,-2.372,-2.372,-2.372,0.0,0.0,-2.3078,-2.2747,-2.2511,-2.2463,-2.2076,-2.1669,-2.1263,-2.1286,-2.1267,-2.1178,-2.0841,-2.0642,-2.0602,-2.0184,-2.0004,-1.9995,-2.1482,-2.2178,0.0,0.0,0.0,0.0,0.0,0.0,0.0,0.0,0.0,0.0,0.0,0.0,0.0,0.0,0.0,-1.4969,-1.5006,-1.5204,-1.5817,-1.6086,-1.6296,-1.651,-1.6847,-1.7112,-1.7112,-1.7326,-1.7542,-1.7796,-1.7876,-1.8003,-1.8297,-1.8377,-1.8404,-1.8404,-1.8464,-1.849,-1.849,-1.849,-1.849,-1.849,0.0,0.0,-1.849,-1.849,-1.849,-1.849,-1.849,-1.849,-1.8484,-1.843,-1.8404,-1.835,-1.7796,-1.7582,-1.7575,-1.7522,-1.7502,-1.7488,-1.7435,-1.7415,-1.7415,-1.7415,-1.7565,-1.7877,-1.8736,-1.9148,0.0,-2.0678,-2.1595,-2.2304,-2.2512,-2.3265,-2.3972,-2.3972,-2.3972,-2.3972,-2.3972,-2.3972,-2.3972,-2.3972,-2.3972,-2.3972,-2.3972,-2.343,-2.3148,-2.3336,-2.3383,-2.3477,-2.3673,-2.372,-2.372,-2.372,-2.3644,-2.3541,-2.3541,-2.3474,-2.3267,-2.2907,-2.2501,-2.2095,-2.1688,-2.1669,-2.1518,-2.1229,-2.1144,-2.0995,-2.0768,-2.0684,-2.0523,-2.0389,-2.1046,-2.1326,0.0,0.0,0.0,0.0,0.0,0.0,0.0,0.0,0.0,0.0,0.0,-1.4556,0.0,0.0,-1.4884,-1.5216,-1.5352,-1.5587,-1.6056,-1.6234,-1.6369,-1.6483,-1.6769,-1.7003,-1.716,-1.7243,-1.7451,-1.7744,-1.7763,-1.7828,-1.7978,-1.8177,-1.8255,-1.8255,-1.8392,-1.8464,-1.8464,-1.8464,-1.8521,-1.8691,-1.8691,-1.8691,-1.8691,-1.8691,-1.8634,-1.8464,-1.8464,-1.8577,-1.8678,-1.8708,-1.8617,-1.8464,-1.8156,-1.8036,-1.8036,-1.8036,-1.8036,-1.8036,-1.8036,-1.8036,-1.8036,-1.8036,-1.8036,-1.8144,-1.8669,-1.8831,-1.9092,-2.0189,-2.0868,-2.1558,-2.2773,-2.3313,-2.3741,-2.4363,-2.4358,-2.4202,-2.4202,-2.4202,-2.4202,-2.4202,-2.4202,-2.4202,-2.4202,-2.3822,-2.3604,-2.3749,-2.3749,-2.3797,-2.3942,-2.3942,-2.3942,-2.3942,-2.3755,-2.3587,-2.3587,-2.3401,-2.3196,-2.2973,-2.2573,-2.2257,-2.2052,-2.1857,-2.1652,-2.1448,-2.1234,-2.1079,-2.0933,-2.073,-2.0596,-2.0503,-2.0696,-2.082,0.0,0.0,0.0,0.0,0.0,0.0,0.0,0.0,-1.4908,-1.4682,-1.4631,-1.4662,-1.4678,-1.4902,-1.5179,-1.5462,-1.5695,-1.5935,-1.6154,-1.6294,-1.6325,-1.6325,-1.6573,-1.688,-1.7171,-1.7197,-1.7311,-1.759,-1.7609,-1.7634,-1.7691,-1.7907,-1.8084,-1.8084,-1.83,-1.8421,-1.8421,-1.8421,-1.8538,-1.8823,-1.8823,-1.8823,-1.8823,-1.8823,-1.8648,-1.8421,-1.8421,-1.8532,-1.8803,-1.8869,-1.8751,-1.8601,-1.8657,-1.8664,-1.8651,-1.8537,-1.849,-1.849,-1.849,-1.849,-1.849,-1.849,-1.849,-1.8546,-1.876,-1.8809,-1.9078,-2.0411,-2.0784,-2.1264,-2.3428,-2.3687,-2.3729,-2.469,-2.4689,-2.444,-2.444,-2.444,-2.444,-2.444,-2.444,-2.444,-2.444,-2.444,-2.4385,-2.4229,-2.4202,-2.4202,-2.4202,-2.4202,-2.4202,-2.4202,-2.3859,-2.3657,-2.3657,-2.3251,-2.3023,-2.3023,-2.2629,-2.24,-2.24,-2.2099,-2.1888,-2.1806,-2.152,-2.131,-2.1227,-2.0915,-2.0717,-2.0717,-2.0717,-2.0625,-1.5784,-1.5784,-1.5784,-1.5784,-1.5758,-1.5617,0.0,0.0,-1.4923,-1.4659,-1.481,-1.4968,-1.5052,-1.527,-1.5443,-1.5469,-1.5536,-1.5652,-1.5913,-1.6156,-1.6302,-1.6302,-1.6773,-1.7178,-1.7456,-1.7488,-1.7602,-1.7938,-1.7963,-1.8065,-1.8313,-1.8358,-1.8377,-1.8377,-1.8402,-1.8421,-1.8421,-1.8421,-1.8421,-1.848,-1.848,-1.848,-1.848,-1.848,-1.8421,-1.8421,-1.8421,-1.8421,-1.8473,-1.879,-1.8867,-1.8899,-1.9201,-1.933,-1.9205,-1.8684,-1.849,-1.849,-1.849,-1.849,-1.849,-1.849,-1.849,-1.8705,-1.9654,-1.9921,-2.0404,-2.2568,-2.3216,-2.3534,-2.4832,-2.5179,-2.5194,-2.5307,-2.5323,-2.5286,-2.5286,-2.5286,-2.5286,-2.5286,-2.5286,-2.5286,-2.5286,-2.5286,-2.5038,-2.4312,-2.4202,-2.4202,-2.4202,-2.4202,-2.4202,-2.4202,-2.4165,-2.4137,-2.4137,-2.3712,-2.3425,-2.3425,-2.3059,-2.284,-2.284,-2.2794,-2.2602,-2.2217,-2.2172,-2.197,-2.1623,-2.1577,-2.1559,-2.1559,-2.1559,-2.1165,-1.5784,-1.573,-1.5635,0.0,-1.5499,-1.533,-1.5119,-1.5168,-1.5188,-1.4948,-1.5113,-1.5245,-1.5114,-1.5302,-1.5521,0.0,-1.5765,-1.6006,-1.6103,-1.635,-1.6579,-1.6736,-1.6985,-1.7141,-1.7252,-1.7264,-1.7375,-1.7704,-1.7722,-1.7772,-1.7889,-1.7889,-1.7889,-1.7889,-1.7889,-1.7889,-1.7889,-1.7889,-1.7954,-1.82,-1.82,-1.82,-1.82,-1.82,-1.8077,-1.7895,-1.8077,-1.82,-1.82,-1.848,-1.859,-1.8648,-1.9004,-1.912,-1.9094,-1.9028,-1.9005,-1.9005,-1.9005,-1.9005,-1.9005,-1.9005,-1.9503,-1.9998,-1.9772,-2.021,-2.0925,-2.1928,-2.2206,-2.2648,-2.4579,-2.4907,-2.489,-2.5596,-2.5046,-2.4561,-2.5258,-2.4832,-2.4561,-2.5258,-2.5424,-2.5424,-2.5424,-2.5424,-2.5304,-2.4964,-2.4909,-2.4909,-2.4909,-2.4707,-2.4477,-2.4229,-2.4202,-2.4202,-2.4202,-2.3996,-2.3895,-2.3895,-2.3471,-2.3251,-2.3251,-2.3032,-2.2821,-2.2648,-2.2648,-2.2565,-2.24,-2.24,-2.24,-2.2391,-2.2153,-2.1851,-1.5594,0.0,0.0,-1.5501,-1.5335,-1.5216,-1.519,-1.5366,-1.5406,-1.5159,-1.5325,-1.5356,-1.4846,-1.4954,-1.513,-1.513,-1.551,-1.5967,-1.6284,-1.6585,-1.6881,-1.7068,-1.7159,-1.7201,-1.7201,-1.7201,-1.728,-1.7473,-1.7485,-1.7485,-1.7485,-1.7485,-1.7485,-1.7485,-1.7485,-1.7485,-1.7485,-1.7485,-1.7608,-1.7849,-1.7849,-1.7849,-1.7849,-1.7849,-1.7726,-1.7485,-1.7784,-1.7849,-1.7908,-1.8194,-1.8311,-1.8305,-1.8648,-1.8765,-1.8823,-1.9127,-1.9307,-1.9424,-1.9424,-1.9424,-1.9424,-1.9424,-1.9989,-2.0551,-1.9649,-1.9989,-2.078,-2.1117,-2.1174,-2.1737,-2.4158,-2.4573,-2.4685,-2.5855,-2.5255,-2.4668,-2.5543,-2.5049,-2.4668,-2.5543,-2.5702,-2.5702,-2.5702,-2.5702,-2.5702,-2.5702,-2.5702,-2.5628,-2.5451,-2.5176,-2.4831,-2.4569,-2.4542,-2.4496,-2.4385,-2.4376,-2.433,-2.4211,-2.3877,-2.3712,-2.3712,-2.3389,-2.3187,-2.3068,-2.3068,-2.3014,-2.2904,-2.2904,-2.2904,-2.2904,-2.2593,-2.2455,0.0,0.0,-1.5147,-1.5462,-1.5484,-1.5498,-1.5513,-1.5475,-1.5437,-1.5145,-1.5306,-1.5169,-1.4049,-1.404,-1.4266,-1.4266,-1.4473,-1.5065,-1.6114,-1.6742,-1.708,-1.7092,-1.7316,-1.7473,0.0,-1.7473,-1.7473,-1.7485,-1.7485,-1.7485,-1.7485,-1.7485,-1.7485,-1.7485,-1.7485,-1.7485,-1.7485,-1.7485,-1.7485,-1.7543,-1.7543,-1.7543,-1.7543,-1.7543,-1.7485,-1.7485,-1.7485,-1.7543,-1.7543,-1.7849,-1.8025,-1.8025,-1.8311,-1.8421,-1.848,-1.8765,-1.912,-1.9424,-1.9424,-1.9424,-1.9424,-1.9424,-1.9424,-1.9424,-1.9424,-1.9424,-1.9707,-2.0895,-2.1174,-2.1737,-2.4158,-2.477,-2.5101,-2.6282,-2.6554,-2.65,-2.6554,-2.6545,-2.65,-2.6554,-2.6554,-2.6554,-2.6554,-2.6554,-2.6554,-2.6554,-2.6554,-2.6261,-2.5525,-2.5414,-2.5405,-2.5387,-2.5387,-2.5231,-2.4794,-2.4757,-2.4643,-2.4229,-2.4192,-2.4183,-2.4183,-2.4174,-2.3932,-2.348,-2.348,-2.3288,-2.2904,-2.2904,-2.2904,-2.2904,-2.2895,-2.2885,0.0,0.0,-1.5169,-1.5445,-1.5369,-1.5244,-1.5234,-1.5393,-1.5251,-1.4412,-1.5042,-1.5164,-1.3227,-1.3616,-1.4223,-1.4223,-1.4548,-1.5255,-1.6388,-1.702,-1.7352,-1.7352,-1.743,0.0,0.0,0.0,0.0,-1.7485,-1.7485,-1.7485,-1.7485,-1.7485,-1.7485,-1.7485,-1.7485,-1.7485,-1.7485,-1.7485,-1.7485,-1.7485,-1.7485,-1.7485,-1.7485,-1.7485,-1.7485,-1.7485,-1.7485,-1.7485,-1.7485,-1.7608,-1.7667,-1.7726,-1.8018,-1.8142,-1.82,-1.848,-1.8655,-1.8777,-1.9249,-1.9424,-1.9424,-1.9424,-1.9931,-2.0443,-1.9649,-1.9931,-2.0666,-2.106,-2.1794,-2.2749,-2.439,-2.5404,-2.6081,-2.6473,-2.5962,-2.5624,-2.6418,-2.5962,-2.5633,-2.6418,-2.6591,-2.6591,-2.6591,-2.6591,-2.6591,-2.6591,-2.6591,-2.6389,-2.5892,-2.5819,-2.5718,-2.5451,-2.5424,-2.5368,-2.524,-2.5221,-2.5056,-2.4643,-2.4624,-2.4496,-2.4211,-2.4202,-2.4137,-2.395,-2.395,-2.3886,-2.3749,-2.3749,-2.3749,-2.3749,-2.3425,-2.3297,0.0,-1.4868,-1.4539,-1.4849,-1.4453,-1.4018,-1.4101,-1.4245,-1.4192,-1.3439,-1.404,-1.404,-1.2141,-1.2417,-1.2965,-1.2965,-1.3714,-1.4745,-1.5952,-1.6916,-1.7485,-1.7485,-1.7485,-1.7485,0.0,0.0,0.0,-1.7485,-1.7485,-1.7485,-1.7485,-1.7485,-1.7485,-1.7485,-1.7485,-1.7485,-1.7485,-1.7485,-1.7485,-1.7485,-1.7485,-1.7485,-1.7485,-1.7485,-1.7485,-1.7485,-1.7485,-1.7485,-1.7485,-1.7485,-1.7485,-1.7543,-1.7726,-1.7849,-1.7843,-1.8135,-1.8252,-1.8311,-1.8836,-1.901,-1.9068,-1.9185,-1.9635,-2.0148,-1.9931,-2.0436,-2.111,-2.1452,-2.2127,-2.3087,-2.4326,-2.5119,-2.5798,-2.63,-2.5743,-2.534,-2.6136,-2.5679,-2.5348,-2.6136,-2.63,-2.63,-2.63,-2.6364,-2.6418,-2.6418,-2.6527,-2.649,-2.6278,-2.6188,-2.614,-2.5883,-2.5803,-2.5748,-2.5644,-2.5635,-2.546,-2.5014,-2.4986,-2.4918,-2.4652,-2.4505,-2.4431,-2.4431,-2.4284,-2.4202,-2.4202,-2.4202,-2.4202,-2.4192,-2.3877,-2.3758,-1.4751,-1.4066,-1.3467,-1.375,-1.2918,-1.207,-1.2316,-1.2417,-1.2358,-1.2309,-1.2363,-1.2037,0.0,0.0,-1.0726,-1.0726,-1.2087,-1.3601,-1.4807,-1.6385,-1.7426,0.0,0.0,0.0,0.0,0.0,0.0,-1.7485,0.0,-1.7485,-1.7485,-1.7485,-1.7485,-1.7485,-1.7485,-1.7485,-1.7485,-1.7485,-1.7485,-1.7485,-1.7485,-1.7485,-1.7485,-1.7485,-1.7485,-1.7485,-1.7485,-1.7485,-1.7485,-1.7485,-1.7485,-1.7485,-1.7485,-1.7485,-1.7543,-1.7849,-1.7972,-1.8025,-1.8246,-1.8421,-1.8538,-1.8765,-1.8706,-1.8765,-2.0256,-2.0644,-2.0802,-2.1786,-2.224,-2.2685,-2.3871,-2.3983,-2.4158,-2.556,-2.5679,-2.5514,-2.5514,-2.5514,-2.5514,-2.5578,-2.5624,-2.5624,-2.5679,-2.5852,-2.6017,-2.6072,-2.6354,-2.6591,-2.6591,-2.6591,-2.6591,-2.6591,-2.6591,-2.6426,-2.6076,-2.6039,-2.5874,-2.5479,-2.5451,-2.5442,-2.5424,-2.5014,-2.4812,-2.4812,-2.4468,-2.4257,-2.4238,-2.4238,-2.422,-2.4202,-2.4202,-2.4202,-1.5191,-1.4504,-1.3766,-1.4013,-1.3204,-1.2297,-1.2403,-1.2417,-1.2146,-1.1328,-1.1814,-1.1764,0.0,0.0,0.0,-1.0726,-1.2087,0.0,-1.4807,-1.5621,0.0,-1.6107,0.0,-1.6107,-1.6107,-1.6944,0.0,0.0,-1.7485,-1.7485,-1.7485,-1.7485,-1.7485,-1.7485,-1.7485,-1.7485,-1.7485,-1.7485,-1.7485,-1.7485,-1.7485,-1.7485,-1.7485,-1.7485,-1.7485,-1.7485,-1.7485,-1.7485,-1.7485,-1.7485,-1.7485,-1.7485,-1.7485,-1.7485,-1.7485,-1.7602,-1.7602,-1.7661,-1.7719,-1.8648,-1.9693,-1.8823,-1.9113,-1.9866,-2.027,-1.9744,-1.9441,-2.1502,-2.1494,-2.1088,-2.2346,-2.2564,-2.2605,-2.2934,-2.2991,-2.2934,-2.2934,-2.2934,-2.3223,-2.415,-2.439,-2.4667,-2.5569,-2.5,-2.4778,-2.5679,-2.5852,-2.6081,-2.6537,-2.6591,-2.6591,-2.6591,-2.6591,-2.6545,-2.6435,-2.6426,-2.6306,-2.5892,-2.5865,-2.5727,-2.5433,-2.5271,-2.5277,-2.5277,-2.5166,-2.4964,-2.467,-2.467,-2.4514,-2.4202,-2.4003,-2.3904,-1.539,-1.4353,-1.3235,-1.3367,-1.215,-1.084,-1.084,-1.084,-1.068,-1.0025,-1.0406,0.0,-0.9158,0.0,0.0,0.0,0.0,0.0,-1.3378,-1.4686,-1.5391,0.0,-1.5273,0.0,-1.5575,-1.6767,-1.7485,0.0,-1.7485,-1.7485,-1.7485,-1.7485,-1.7485,-1.7485,-1.7485,-1.7485,-1.7485,-1.7485,-1.7485,-1.7485,-1.7485,-1.7485,-1.7485,-1.7485,-1.7485,-1.7485,0.0,-1.7485,-1.7485,-1.7485,-1.7485,-1.7485,-1.7485,-1.7485,-1.7485,-1.7485,-1.7485,-1.7485,-1.7485,-1.8525,-1.9686,-1.8596,-1.8596,-1.9223,-1.9853,-1.9564,-1.9383,-2.1152,-2.1658,-2.1771,-2.2467,-2.2966,-2.3239,-2.3399,-2.3295,-2.3247,-2.3247,-2.3247,-2.3416,-2.4175,-2.4287,-2.4342,-2.4501,-2.4047,-2.3704,-2.3863,-2.403,-2.4189,-2.4531,-2.5505,-2.6199,-2.6199,-2.6199,-2.6026,-2.5624,-2.6072,-2.6145,-2.5522,-2.5955,-2.6133,-2.5913,-2.5782,-2.5681,-2.5681,-2.5506,-2.5313,-2.5041,-2.493,-2.4751,-2.4523,-2.4038,-2.3856,-1.5469,-1.3997,-1.2417,-1.2417,-1.0625,-0.8885,-0.8885,-0.8885,-0.8878,-0.8858,0.0,-0.8875,-0.8858,-0.8868,-0.8885,-0.8885,0.0,-1.257,-1.1434,-1.3454,-1.4679,-1.3545,-1.456,-1.5337,-1.5337,-1.6644,-1.7485,-1.7485,-1.7485,-1.7485,-1.7485,-1.7485,-1.7485,-1.7485,-1.7485,-1.7485,-1.7485,-1.7485,-1.7485,-1.7485,-1.7485,-1.7485,-1.7485,-1.7485,-1.7485,-1.7485,-1.7485,-1.7485,-1.7485,-1.7485,-1.7485,-1.7485,-1.7485,-1.7485,-1.7485,-1.7485,-1.7485,-1.7485,-1.7485,-1.8286,-1.9152,-1.8252,-1.7843,-1.8,-1.955,-1.9839,-2.0005,-2.1252,-2.233,-2.3135,-2.3303,-2.3832,-2.4351,-2.4603,-2.4509,-2.4303,-2.4303,-2.4415,-2.4535,-2.4535,-2.4415,-2.4016,-2.3151,-2.291,-2.2564,-2.1643,-2.1749,-2.1854,-2.1854,-2.3975,-2.5459,-2.5459,-2.5459,-2.5119,-2.4326,-2.5055,-2.5221,-2.4492,-2.5569,-2.6245,-2.63,-2.6072,-2.5987,-2.5987,-2.5649,-2.5395,-2.534,-2.507,-2.4877,-2.4814,-2.4223,-2.3909,-1.5692,-1.4175,-1.2417,-1.2417,-1.0625,-0.8885,-0.8885,-0.8885,0.0,0.0,-0.8797,-0.8844,-0.8774,-0.8797,-0.8885,-0.8885,0.0,0.0,0.0,0.0,-1.229,0.0,0.0,0.0,0.0,0.0,0.0,0.0,-1.7485,-1.7485,-1.7485,-1.7485,-1.7485,-1.7485,-1.7485,-1.7485,-1.7485,-1.7485,-1.7485,-1.7485,-1.7485,-1.7485,-1.7485,-1.7485,-1.7485,-1.7485,-1.7485,0.0,-1.7485,-1.7485,-1.7485,-1.7485,-1.7485,-1.7485,-1.7485,-1.7485,-1.7485,-1.7485,-1.7485,-1.8286,-1.9094,-1.7948,-1.8233,-1.9203,-2.0508,-2.0171,-2.0069,-2.3271,-2.2854,-2.1756,-2.2805,-2.2394,-2.1756,-2.1805,-2.1756,-2.1764,-2.1764,-2.2572,-2.332,-2.332,-2.2451,-2.1991,-2.2862,-2.1323,-2.0286,-2.1073,-2.1244,-2.1237,-2.1237,-2.3015,-2.4214,-2.4214,-2.4214,-2.4158,-2.3991,-2.3175,-2.2653,-2.2484,-2.3695,-2.4492,-2.4689,-2.5371,-2.5855,-2.6082,-2.5792,-2.5487,-2.5174,-2.5067,-2.489,-2.4561,-2.4228,-2.4088,-1.5058,-1.3722,-1.225,-1.1651,-1.019,-0.8885,-0.8885,0.0,0.0,0.0,-0.8706,-0.8703,-0.871,0.0,0.0,0.0,0.0,0.0,0.0,0.0,0.0,0.0,0.0,0.0,0.0,0.0,-1.7067,-1.7256,-1.725,-1.7309,-1.7479,-1.7485,-1.7485,-1.7485,-1.7485,-1.7485,-1.7485,-1.7485,-1.7485,-1.7485,-1.7485,-1.7485,-1.7485,-1.7485,-1.7485,-1.7485,-1.7485,-1.7485,-1.7485,-1.7485,-1.7485,-1.7485,-1.7485,-1.7485,-1.7485,-1.7485,-1.7485,-1.7602,-1.8233,-1.8402,-1.846,-1.9138,-1.9768,-2.0336,-2.0902,-2.0673,-2.063,-2.2402,-2.2515,-2.2225,-2.2862,-2.303,-2.303,-2.303,-2.303,-2.303,-2.303,-2.3488,-2.396,-2.396,-2.3432,-2.2797,-2.2112,-2.1023,-1.9998,-1.9305,-1.9254,-1.9254,-1.9254,-2.0573,-2.1771,-2.2387,-2.2443,-2.2274,-2.1771,-2.1756,-2.1578,-2.1066,-2.2209,-2.2942,-2.3095,-2.4197,-2.4834,-2.4944,-2.4834,-2.4693,-2.4466,-2.4293,-2.4137,-2.395,-2.4096,-2.417,-1.397,-1.2925,-1.1819,-1.0945,-0.9805,-0.8875,-0.8841,-0.8798,0.0,0.0,-0.8547,-0.852,-0.8638,0.0,-0.876,0.0,-0.9998,0.0,0.0,0.0,0.0,0.0,0.0,0.0,0.0,0.0,0.0,-1.6844,-1.6961,-1.7138,-1.7485,-1.7485,-1.7485,-1.7485,-1.7485,-1.7485,-1.7485,-1.7485,-1.7485,-1.7485,-1.7485,-1.7485,-1.7485,-1.7485,-1.7485,-1.7485,-1.7485,-1.7485,-1.7485,-1.7485,-1.7485,-1.7485,-1.7485,-1.7485,-1.7485,-1.7485,-1.7485,-1.7655,-1.8577,-1.8629,-1.8564,-2.0501,-2.0902,-2.0787,-2.1358,-2.1529,-2.1586,-2.182,-2.2628,-2.3384,-2.3384,-2.4072,-2.4821,-2.4821,-2.4821,-2.4821,-2.4821,-2.4821,-2.4821,-2.4821,-2.459,-2.372,-2.1472,-2.0902,-1.9991,-1.7824,-1.7485,-1.7485,-1.7485,-1.835,-1.9261,-2.0221,-2.0558,-2.0451,-1.9723,-2.0343,-2.0393,-1.9659,-2.073,-2.1465,-2.1521,-2.2669,-2.3303,-2.3416,-2.3359,-2.3303,-2.3303,-2.3023,-2.2902,-2.2894,-2.3353,-2.3568,-1.2595,-1.1626,-1.0836,-1.0726,-0.9805,-0.8848,-0.8764,0.0,0.0,-0.8367,-0.8404,-0.8486,-0.8499,-0.8618,0.0,0.0,0.0,-0.9393,0.0,0.0,0.0,0.0,0.0,0.0,0.0,-1.5035,-1.6537,-1.6537,-1.6838,-1.7138,-1.7485,-1.7485,-1.7485,-1.7485,-1.7485,-1.7485,-1.7485,-1.7485,-1.7485,-1.7485,-1.7485,-1.7485,-1.7485,-1.7485,-1.7485,-1.7485,-1.7485,-1.7485,0.0,-1.7485,-1.7485,-1.7485,-1.7485,-1.7485,-1.7485,-1.7485,-1.7485,-1.7537,-1.7655,-1.9022,-2.0787,-2.1016,-2.0336,-1.9897,-2.2119,-2.2805,-2.3038,-2.4128,-2.4535,-2.4646,-2.4646,-2.471,-2.4821,-2.4821,-2.4821,-2.4821,-2.4821,-2.4821,-2.4821,-2.4821,-2.3896,-2.2749,-2.1358,-2.0164,-1.9036,-1.7713,-1.7485,-1.7485,-1.7485,-1.7596,-1.7713,-1.7824,-1.8803,-1.9435,-1.9325,-1.846,-1.7824,-1.7772,-1.8861,-1.9666,-2.0005,-2.0852,-2.1529,-2.1813,-2.1529,-2.1358,-2.1358,-2.1358,-2.1301,-2.1294,-2.1378,-2.1363,-1.1392,-1.0716,-1.0245,-0.956,-0.9033,-0.8648,-0.8587,0.0,-0.8414,-0.8347,-0.8241,-0.8245,-0.8336,-0.8476,-0.8621,0.0,0.0,0.0,0.0,0.0,0.0,0.0,0.0,0.0,0.0,0.0,-1.5224,-1.6194,-1.6726,-1.7085,-1.7197,-1.7367,-1.7485,-1.7485,-1.7485,-1.7485,-1.7485,-1.7485,-1.7485,-1.7485,-1.7485,-1.7485,-1.7485,-1.7485,-1.7485,-1.7485,-1.7485,-1.7485,0.0,-1.7485,-1.7485,-1.7485,-1.7485,-1.7485,-1.7485,-1.7485,-1.7485,-1.7713,-1.9138,-1.9825,-2.04,-2.2628,-2.2515,-2.1836,-2.356,-2.4072,-2.4184,-2.4646,-2.4821,-2.4821,-2.4821,-2.4821,-2.4821,-2.4821,-2.4821,-2.4821,-2.4821,-2.4821,-2.4821,-2.4821,-2.4415,-2.3664,-2.2459,-2.1194,-1.9998,-1.8745,-1.7941,-1.7485,-1.7485,-1.7485,-1.7485,-1.7485,-1.7941,-1.8233,-1.8233,-1.7772,-1.7485,-1.7485,-1.7941,-1.8292,-1.8402,-1.9435,-2.0056,-2.0228,-2.0056,-1.9998,-1.9998,-1.9998,-1.9998,-2.0056,-2.0787,-2.1123,-1.0082,-0.9692,-0.9518,-0.8689,-0.8482,-0.8472,0.0,0.0,-0.8258,-0.8211,-0.8116,-0.8039,-0.8241,-0.8387,-0.8533,0.0,0.0,-0.9041,-0.9238,0.0,0.0,0.0,0.0,-1.0846,0.0,-1.2822,-1.4391,-1.5968,-1.6495,-1.679,-1.6961,-1.7197,-1.7426,-1.7485,-1.7485,-1.7485,-1.7485,-1.7485,-1.7485,-1.7485,-1.7485,-1.7485,-1.7485,-1.7485,-1.7485,-1.7485,-1.7485,-1.7485,0.0,-1.7485,-1.7485,-1.7485,-1.7485,-1.7485,-1.7485,-1.7485,-1.7713,-1.8286,-1.9991,-2.0515,-2.0809,-2.344,-2.3664,-2.3151,-2.4016,-2.4535,-2.4821,-2.4821,-2.4821,-2.4821,-2.4821,-2.4821,-2.4821,-2.4821,-2.4821,-2.4821,-2.4821,-2.4821,-2.4821,-2.4821,-2.4821,-2.4415,-2.3207,-2.1934,-2.0673,-1.9492,-1.8292,-1.7485,-1.7485,-1.7485,-1.7485,-1.7485,-1.7485,-1.7485,-1.7485,-1.7485,-1.7485,-1.7485,-1.7485,-1.7485,-1.7485,-1.8344,-1.8752,-1.8752,-1.8752,-1.8752,-1.8752,-1.8752,-1.8752,-1.881,-1.9652,-2.0049,-0.8575,-0.8426,-0.8535,-0.8482,-0.8482,-0.8445,0.0,0.0,-0.8228,-0.8022,-0.7992,-0.8039,-0.8241,-0.8387,-0.8533,0.0,0.0,0.0,-0.8878,0.0,0.0,0.0,0.0,-1.0179,-0.9866,-1.2157,-1.4391,-1.5968,-1.6087,0.0,-1.6967,-1.7026,-1.7138,-1.7479,-1.7485,-1.7485,-1.7485,-1.7485,-1.7485,-1.7485,-1.7485,-1.7485,-1.7485,-1.7485,-1.7485,-1.7485,-1.7485,-1.7485,0.0,-1.7485,-1.7485,-1.7485,-1.7485,-1.7485,-1.7485,-1.7485,-1.8233,-1.9267,-1.9325,-2.0923,-2.2974,-2.3038,-2.3038,-2.2974,-2.303,-2.384,-2.4821,-2.4821,-2.4821,-2.4821,-2.4821,-2.4821,-2.4821,-2.4821,-2.4821,-2.4821,-2.4821,-2.4821,-2.4821,-2.4821,-2.4821,-2.4415,-2.3207,-2.1934,-2.0673,-1.9492,-1.8292,-1.7485,-1.7485,-1.7485,-1.7485,-1.7485,-1.7485,-1.7485,-1.7485,-1.7485,-1.7485,-1.7485,-1.7485,-1.7485,-1.7485,-1.7485,-1.7537,-1.7537,-1.7537,-1.7537,-1.7537,-1.7537,-1.7537,-1.7537,-1.7543,-1.7537,-0.836,-0.8147,-0.818,-0.818,-0.818,-0.8167,-0.8123,0.0,-0.8099,-0.8002,-0.7988,-0.8005,-0.8102,-0.811,-0.8184,0.0,0.0,0.0,0.0,0.0,0.0,-0.8398,-0.9332,-1.0229,0.0,0.0,-1.4267,-1.5661,-1.5963,-1.62,-1.6377,-1.679,-1.7138,-1.7479,-1.7485,-1.7485,-1.7485,-1.7485,-1.7485,-1.7485,-1.7485,-1.7485,-1.7485,-1.7485,-1.7485,-1.7485,-1.7485,-1.7485,-1.7485,-1.7485,-1.7485,-1.7485,-1.7485,-1.7485,-1.7485,-1.7485,-1.7713,-1.8175,-1.9036,-2.0343,-2.1707,-2.1707,-2.2281,-2.2862,-2.1991,-2.1991,-2.2451,-2.332,-2.2918,-2.2685,-2.4359,-2.4192,-2.3784,-2.459,-2.4821,-2.4821,-2.4821,-2.4821,-2.4821,-2.4821,-2.4821,-2.471,-2.4303,-2.3207,-2.1998,-2.0737,-1.9486,-1.8402,-1.7596,-1.7485,-1.7485,-1.7485,-1.7485,-1.7485,-1.7485,-1.7485,-1.7485,-1.7485,-1.7316,-1.7213,-1.7213,-1.7044,-1.6948,-1.6948,-1.7123,-1.7213,-1.7213,-1.7394,-1.7485,-1.7485,-1.7485,-1.7485,0.0,-0.7944,-0.7988,-0.7988,-0.7988,0.0,0.0,0.0,-0.7988,-0.7988,-0.7988,-0.7988,-0.7988,-0.7975,-0.8013,-0.8013,0.0,0.0,0.0,0.0,0.0,-0.8213,0.0,0.0,0.0,-1.2457,-1.3665,-1.5477,-1.5779,-1.5963,-1.6087,-1.6549,-1.6956,-1.7309,-1.7426,-1.7485,-1.7485,-1.7485,-1.7485,-1.7485,-1.7485,-1.7485,-1.7485,-1.7485,-1.7485,-1.7485,-1.7485,-1.7485,0.0,-1.7485,-1.7485,-1.7485,-1.7485,-1.7485,-1.7485,-1.7485,-1.7772,-1.8286,-1.9036,-2.0113,-2.1123,-2.1123,-2.1309,-2.1373,-2.0106,-2.0386,-2.1244,-2.2055,-2.1699,-2.1472,-2.303,-2.2862,-2.2572,-2.384,-2.372,-2.3552,-2.4016,-2.372,-2.3552,-2.4016,-2.4128,-2.4248,-2.471,-2.3784,-2.2572,-2.1301,-2.0056,-1.8861,-1.7655,-1.7485,-1.7485,-1.7485,-1.7485,-1.7485,-1.7485,-1.7394,-1.7292,-1.7195,-1.7032,-1.6948,-1.6948,-1.6791,-1.67,-1.67,-1.6857,-1.6948,-1.6948,-1.7111,-1.7189,-1.7189,-1.7292,-1.728,0.0,0.0,0.0,0.0,0.0,0.0,0.0,0.0,0.0,-0.7988,-0.7988,-0.7992,-0.8005,-0.7981,-0.7963,-0.7973,0.0,0.0,0.0,-0.7708,0.0,0.0,-0.7872,0.0,-1.143,-1.1671,-1.2757,-1.5418,-1.5601,-1.572,-1.6028,-1.6307,-1.6602,-1.6961,-1.7309,-1.7485,-1.7485,-1.7485,-1.7485,-1.7485,-1.7485,-1.7485,-1.7485,-1.7485,-1.7485,0.0,-1.7485,-1.7485,-1.7485,-1.7485,-1.7485,-1.7485,-1.7485,-1.7485,-1.7485,-1.7485,-1.8227,-1.9152,-1.9152,-1.994,-2.0959,-2.0959,-2.0171,-1.8978,-1.783,-1.908,-2.0845,-2.0959,-2.0902,-2.0902,-2.1073,-2.1016,-2.1301,-2.2572,-2.1934,-2.1415,-2.2628,-2.1934,-2.1472,-2.2628,-2.2862,-2.3263,-2.447,-2.3672,-2.2515,-2.1415,-2.0113,-1.8926,-1.7772,-1.7537,-1.7485,-1.7485,-1.7485,-1.7473,-1.7455,-1.7231,-1.699,-1.6742,-1.6688,-1.667,-1.667,-1.6652,-1.664,-1.664,-1.6664,-1.6682,-1.67,-1.67,-1.67,-1.6706,-1.6954,-1.693,0.0,0.0,0.0,0.0,0.0,0.0,0.0,0.0,0.0,0.0,0.0,-0.8025,-0.8194,-0.7953,-0.7734,-0.7829,0.0,0.0,-0.7599,0.0,0.0,-0.7864,-0.7872,-0.89,-1.143,-1.1671,-1.2757,-1.5418,-1.5601,-1.5655,-1.572,-1.6022,-1.6312,-1.6602,-1.6961,-1.725,-1.7485,-1.7485,-1.7485,-1.7485,-1.7485,-1.7485,-1.7485,-1.7485,-1.7485,-1.7485,-1.7485,-1.7485,-1.7485,-1.7485,-1.7485,-1.7485,-1.7485,-1.7485,-1.7485,-1.7485,-1.7655,-1.7948,-1.7948,-1.8687,-1.9717,-1.9717,-1.8919,-1.7889,-1.7602,-1.7883,-1.8571,-1.9486,-1.9087,-1.8797,-2.0616,-2.0393,-2.0056,-2.1252,-2.1301,-2.1187,-2.1472,-2.1301,-2.1187,-2.1472,-2.1536,-2.1934,-2.3207,-2.2394,-2.1764,-2.2459,-2.0694,-1.921,-1.8919,-1.8058,-1.7485,-1.7485,-1.7485,-1.74,-1.7201,-1.7129,-1.7062,-1.7002,-1.661,-1.638,-1.638,-1.6187,-1.6079,-1.6079,-1.6278,-1.6483,-1.67,-1.67,-1.67,-1.67,-1.6761,-1.6761,0.0,0.0,0.0,0.0,0.0,0.0,0.0,0.0,0.0,0.0,0.0,0.0,-0.8082,-0.7816,0.0,0.0,-0.7405,0.0,0.0,0.0,-0.7872,-0.7872,-0.7872,-0.89,0.0,-1.1671,-1.2757,-1.5418,-1.5601,-1.5601,-1.5601,-1.5903,-1.62,-1.6478,-1.6838,-1.7138,-1.7485,-1.7485,-1.7485,-1.7485,-1.7485,-1.7485,-1.7485,-1.7485,-1.7485,-1.7485,-1.7485,-1.7485,-1.7485,-1.7485,-1.7485,-1.7485,-1.7485,-1.7485,-1.7485,-1.7485,-1.7485,-1.7485,-1.7485,-1.7941,-1.846,-1.846,-1.8058,-1.7503,-1.7624,-1.766,-1.7813,-1.8323,-1.8093,-1.795,-1.9272,-1.9266,-1.914,-2.0354,-2.0237,-1.9949,-2.0524,-2.0237,-2.0008,-2.0524,-2.0529,-2.0837,-2.2119,-2.1641,-2.113,-2.1259,-2.0178,-1.9094,-1.8577,-1.7883,-1.7485,-1.7485,-1.7485,-1.7424,-1.7286,-1.7159,-1.6984,-1.6736,-1.6441,-1.6223,-1.6103,-1.5964,-1.5891,-1.5891,-1.603,-1.6175,-1.6326,-1.6326,-1.6326,-1.6332,-1.6453,-1.6447,0.0,0.0,0.0,0.0,0.0,0.0,0.0,0.0,0.0,0.0,0.0,0.0,0.0,-0.7636,0.0,0.0,0.0,0.0,-0.7513,-0.7733,-0.7872,-0.7872,-0.7872,0.0,-1.143,-1.1671,-1.2757,-1.5418,-1.5601,-1.5601,-1.5601,-1.5844,-1.614,-1.6419,-1.6726,-1.7079,-1.7426,-1.7485,-1.7485,-1.7485,-1.7485,-1.7485,-1.7485,-1.7485,-1.7485,-1.7485,-1.7485,0.0,-1.7485,-1.7485,-1.7485,-1.7485,-1.7485,-1.7485,-1.7485,-1.7485,-1.7485,-1.7485,-1.7485,-1.7485,-1.7491,-1.7527,-1.7539,-1.7593,-1.7859,-1.7937,-1.7889,-1.7666,-1.7768,-1.7937,-1.7937,-1.8118,-1.8533,-1.9594,-1.9065,-1.8594,-1.9594,-1.9004,-1.8588,-1.9655,-1.964,-1.9886,-2.1062,-2.0908,-2.0406,-1.9734,-1.9294,-1.8745,-1.7883,-1.7596,-1.7485,-1.7485,-1.7485,-1.7485,-1.7485,-1.728,-1.6936,-1.6435,-1.6368,-1.6229,-1.5964,-1.591,-1.5891,-1.5891,-1.5891,-1.5891,-1.5891,-1.5891,-1.5891,-1.5897,-1.6115,-1.6103,-0.7125,-0.7305,0.0,0.0,0.0,0.0,0.0,0.0,0.0,0.0,0.0,0.0,0.0,-0.7514,-0.7482,0.0,0.0,-0.751,0.0,0.0,-0.7872,-0.7872,0.0,-0.89,-1.143,-1.1671,-1.2757,-1.5418,-1.5601,-1.5601,-1.5601,-1.5661,-1.5839,-1.614,-1.6425,-1.672,-1.7079,-1.7367,-1.7485,-1.7485,-1.7485,-1.7485,-1.7485,-1.7485,-1.7485,-1.7485,0.0,-1.7485,-1.7485,-1.7485,-1.7485,-1.7485,-1.7485,-1.7485,-1.7485,-1.7485,-1.7485,-1.7485,-1.7485,-1.7485,-1.7521,-1.7738,-1.7817,-1.7865,-1.8143,-1.8227,-1.8221,-1.8179,-1.8197,-1.8227,-1.8227,-1.8263,-1.8355,-1.8533,-1.841,-1.8355,-1.8527,-1.841,-1.8355,-1.8527,-1.8557,-1.8886,-2.0127,-1.923,-1.9042,-2.0861,-1.9252,-1.8058,-1.8919,-1.8117,-1.7485,-1.7485,-1.7485,-1.7485,-1.7485,-1.7449,-1.7292,-1.699,-1.6761,-1.6519,-1.6254,-1.6018,-1.5891,-1.5891,-1.5891,-1.5891,-1.5891,-1.5891,-1.5891,-1.5891,-1.5934,-1.5928,-0.7095,-0.7312,-0.7529,0.0,0.0,0.0,0.0,0.0,0.0,0.0,0.0,0.0,0.0,0.0,-0.7422,-0.7449,0.0,-0.7562,-0.7684,-0.7799,-0.7872,0.0,0.0,-0.89,-1.143,-1.1671,-1.2757,-1.5418,-1.5601,-1.5601,-1.5601,-1.5601,-1.572,-1.6087,-1.62,-1.649,-1.7026,-1.7138,-1.7309,-1.7485,-1.7485,-1.7485,-1.7485,-1.7485,-1.7485,-1.7485,0.0,-1.7485,-1.7485,-1.7485,-1.7485,-1.7485,-1.7485,-1.7485,-1.7485,-1.7485,-1.7485,-1.7485,-1.7485,-1.7485,-1.7527,-1.7787,-1.7871,-1.795,-1.8378,-1.8505,-1.8535,-1.8674,-1.8613,-1.8505,-1.8505,-1.8607,-1.8716,-1.8716,-1.8716,-1.8716,-1.8716,-1.8716,-1.8716,-1.8716,-1.8601,-1.8685,-1.9224,-1.8637,-1.8519,-1.9586,-1.8709,-1.8154,-1.8687,-1.8138,-1.7696,-1.7696,-1.7569,-1.7485,-1.7485,-1.7485,-1.737,-1.7111,-1.6845,-1.6585,-1.632,-1.6175,-1.6036,-1.5891,-1.5891,-1.5891,-1.5891,-1.5891,-1.5891,-1.5891,-1.5891,-1.5891,-0.7095,-0.7339,-0.7553,0.0,0.0,-0.7703,-0.7621,0.0,0.0,0.0,0.0,0.0,0.0,-0.7263,0.0,-0.7339,-0.7456,-0.757,-0.772,-0.7815,-0.7872,-0.7872,-0.7872,-0.89,-1.143,-1.1671,-1.2757,-1.5418,-1.5601,-1.5601,-1.5601,-1.5601,-1.572,-1.5963,-1.6087,-1.6377,-1.6903,-1.6961,-1.7197,-1.7485,-1.7485,-1.7485,-1.7485,-1.7485,-1.7485,-1.7485,-1.7485,-1.7485,-1.7485,-1.7485,-1.7485,-1.7485,-1.7485,-1.7485,-1.7485,-1.7485,-1.7485,-1.7485,-1.7485,-1.7521,-1.7618,-1.7883,-1.8016,-1.8155,-1.8632,-1.8776,-1.8819,-1.9018,-1.8933,-1.8776,-1.8776,-1.8927,-1.9078,-1.9078,-1.9078,-1.9078,-1.9078,-1.9078,-1.9078,-1.9078,-1.8915,-1.8776,-1.8776,-1.8559,-1.8384,-1.8384,-1.833,-1.8294,-1.8294,-1.8106,-1.7968,-1.7968,-1.7793,-1.7672,-1.7672,-1.7612,-1.7491,-1.7286,-1.6972,-1.67,-1.6501,-1.6416,-1.6284,-1.6085,-1.6079,-1.6048,-1.5982,-1.5982,-1.5946,-1.5891,-1.5891,-1.5891,-0.7095,-0.7261,-0.7421,-0.7563,0.0,0.0,-0.7593,-0.7391,0.0,0.0,0.0,0.0,0.0,-0.7119,-0.7278,-0.7464,-0.7513,-0.76,-0.7828,0.0,-0.7872,-0.7872,-0.7872,-0.89,-1.143,-1.1671,-1.2757,-1.5418,-1.5601,-1.5601,-1.5601,-1.5601,-1.5601,-1.5661,-1.5963,-1.6253,-1.6537,-1.6844,-1.7197,-1.7485,-1.7485,-1.7485,-1.7485,-1.7485,-1.7485,-1.7485,-1.7485,-1.7485,-1.7485,-1.7485,-1.7485,-1.7485,-1.7485,-1.7485,-1.7485,-1.7485,-1.7485,-1.7485,-1.7485,-1.7642,-1.7895,-1.8173,-1.8426,-1.868,-1.8963,-1.9048,-1.9054,-1.9066,-1.906,-1.9048,-1.9048,-1.906,-1.9078,-1.9078,-1.9078,-1.9078,-1.9078,-1.9078,-1.9078,-1.9078,-1.906,-1.9048,-1.9048,-1.8831,-1.8656,-1.8656,-1.845,-1.8294,-1.8294,-1.8275,-1.8263,-1.8263,-1.8245,-1.8233,-1.8233,-1.7998,-1.7835,-1.7817,-1.734,-1.7056,-1.7038,-1.6803,-1.6664,-1.664,-1.664,-1.6513,-1.6254,-1.6254,-1.6127,-1.5891,-1.5891,-1.5891,-0.7095,-0.7183,-0.7286,-0.7342,0.0,0.0,0.0,0.0,0.0,0.0,0.0,0.0,0.0,0.0,-0.7323,-0.7491,-0.7581,-0.7687,-0.7847,-0.7872,-0.7872,-0.7872,-0.7872,-0.89,-1.143,-1.1671,-1.2757,-1.5418,-1.5601,-1.5601,-1.5601,-1.5601,-1.5601,-1.5601,-1.572,-1.5957,-1.6259,-1.6543,-1.6838,-1.7197,-1.7426,-1.7485,-1.7485,-1.7485,-1.7485,-1.7485,-1.7485,-1.7485,-1.7485,-1.7485,-1.7485,-1.7485,-1.7485,-1.7485,-1.7485,-1.7485,-1.7485,-1.7485,-1.7485,-1.7654,-1.7919,-1.8203,-1.8469,-1.8734,-1.9,-1.9078,-1.9078,-1.9078,-1.9078,-1.9078,-1.9078,-1.9078,-1.9078,-1.9078,-1.9078,-1.9078,-1.9078,-1.9078,-1.9078,-1.9078,-1.9078,-1.9078,-1.9078,-1.8994,-1.8927,-1.8927,-1.8843,-1.8776,-1.8776,-1.8638,-1.8535,-1.8535,-1.839,-1.8294,-1.8294,-1.8197,-1.8137,-1.8137,-1.763,-1.7261,-1.7098,-1.6996,-1.6869,-1.6706,-1.67,-1.6652,-1.6543,-1.6543,-1.6489,-1.6392,-1.6392,-1.6392,-0.701,-0.7041,-0.7073,0.0,0.0,0.0,0.0,0.0,0.0,0.0,0.0,0.0,0.0,0.0,0.0,0.0,-0.7622,-0.7741,-0.7856,-0.7872,-0.7872,-0.7872,-0.7872,-0.89,-1.143,-1.1671,-1.2757,-1.5418,-1.5601,-1.5601,-1.5601,-1.5601,-1.5601,-1.5601,-1.5601,-1.5779,-1.6087,-1.6253,-1.6608,-1.7026,-1.7256,-1.7426,-1.7485,-1.7485,-1.7485,-1.7485,-1.7485,-1.7485,-1.7485,-1.7485,-1.7485,-1.7485,-1.7485,-1.7485,-1.7485,-1.7485,-1.7485,-1.7485,-1.7485,-1.7714,-1.804,-1.8233,-1.8529,-1.8843,-1.9018,-1.9078,-1.9078,-1.9078,-1.9078,-1.9078,-1.9078,-1.9078,-1.9078,-1.9078,-1.9078,-1.9078,-1.9078,-1.9078,-1.9078,-1.9078,-1.9078,-1.9078,-1.9078,-1.9078,-1.9078,-1.9078,-1.9078,-1.9078,-1.9078,-1.8921,-1.8807,-1.8807,-1.865,-1.8541,-1.8541,-1.8463,-1.842,-1.842,-1.7986,-1.7618,-1.7346,-1.7255,-1.7129,-1.6954,-1.6948,-1.6905,-1.6827,-1.6827,-1.6785,-1.67,-1.67,-1.67,-0.6795,-0.6819,0.0,0.0,0.0,0.0,0.0,0.0,0.0,0.0,0.0,-0.721,-0.721,0.0,0.0,-0.75,-0.7622,-0.7741,-0.7856,-0.7872,-0.7872,-0.7872,-0.7872,-0.89,-1.143,-1.1671,-1.2757,-1.5418,-1.5601,-1.5601,-1.5601,-1.5601,-1.5601,-1.5601,-1.5601,-1.5779,-1.6087,-1.6087,-1.6377,-1.6961,-1.7026,-1.7197,-1.7485,-1.7485,-1.7485,-1.7485,-1.7485,-1.7485,-1.7485,-1.7485,-1.7485,-1.7485,-1.7485,-1.7485,-1.7485,-1.7485,-1.7485,-1.7485,-1.7485,-1.7841,-1.8294,-1.8294,-1.865,-1.9078,-1.9078,-1.9078,-1.9078,-1.9078,-1.9078,-1.9078,-1.9078,-1.9078,-1.9078,-1.9078,-1.9078,-1.9078,-1.9078,-1.9078,-1.9078,-1.9078,-1.9078,-1.9078,-1.9078,-1.9078,-1.9078,-1.9078,-1.9078,-1.9078,-1.9078,-1.9078,-1.9078,-1.9078,-1.9078,-1.9078,-1.9078,-1.8837,-1.8686,-1.8686,-1.8444,-1.8173,-1.7883,-1.7624,-1.7485,-1.7485,-1.7485,-1.7358,-1.7092,-1.7092,-1.696,-1.6706,-1.6706,-1.6706,-0.6795,0.0,0.0,-0.6505,0.0,0.0,0.0,0.0,0.0,0.0,0.0,-0.721,-0.721,0.0,0.0,-0.7513,-0.769,-0.7834,-0.7867,-0.7872,-0.7872,-0.7872,-0.7872,-0.89,-1.143,-1.1671,-1.2757,-1.5418,-1.5601,-1.5601,-1.5601,-1.5601,-1.5601,-1.5601,-1.5601,-1.5661,-1.572,-1.5963,-1.6205,-1.6377,-1.679,-1.7197,-1.7485,-1.7485,-1.7485,-1.7485,-1.7485,-1.7485,-1.7485,-1.7485,-1.7485,-1.7485,-1.7485,-1.7485,-1.7485,-1.7485,-1.7485,-1.7485,-1.7485,-1.7841,-1.8294,-1.8294,-1.865,-1.9078,-1.9078,-1.9078,-1.9078,-1.9078,-1.9078,-1.9078,-1.9078,-1.9078,-1.9078,-1.9078,-1.9078,-1.9078,-1.9078,-1.9078,-1.9078,-1.9078,-1.9078,-1.9078,-1.9078,-1.9078,-1.9078,-1.9078,-1.9078,-1.9078,-1.9078,-1.9078,-1.9078,-1.9078,-1.9078,-1.9078,-1.9078,-1.9006,-1.8957,-1.8957,-1.8716,-1.836,-1.7895,-1.7799,-1.7672,-1.7485,-1.7485,-1.7443,-1.7364,-1.7364,-1.7328,-1.7249,-1.7249,-1.7249,-0.6526,0.0,0.0,-0.6269,-0.6357,-0.643,-0.6654,0.0,0.0,0.0,0.0,-0.721,-0.721,-0.7353,0.0,-0.7519,-0.7717,-0.7872,-0.7872,-0.7872,-0.7872,-0.7872,-0.7872,-0.89,-1.143,-1.1671,-1.2757,-1.5418,-1.5601,-1.5601,-1.5601,-1.5601,-1.5601,-1.5601,-1.5601,-1.5601,-1.5601,-1.5779,-1.5963,-1.6087,-1.6608,-1.6956,-1.7315,-1.7426,-1.7485,-1.7485,-1.7485,-1.7485,-1.7485,-1.7485,-1.7485,-1.7485,-1.7485,-1.7485,-1.7485,-1.7485,-1.7485,-1.7485,-1.7485,-1.7841,-1.8294,-1.8294,-1.865,-1.9078,-1.9078,-1.9078,-1.9078,-1.9078,-1.9078,-1.9078,-1.9078,-1.9078,-1.9078,-1.9078,-1.9078,-1.9078,-1.9078,-1.9078,-1.9078,-1.9078,-1.9078,-1.9078,-1.9078,-1.9078,-1.9078,-1.9078,-1.9078,-1.9078,-1.9078,-1.9078,-1.9078,-1.9078,-1.9078,-1.9078,-1.9078,-1.9078,-1.9078,-1.9078,-1.8927,-1.8644,-1.8215,-1.7986,-1.7799,-1.7642,-1.7533,-1.7485,-1.7485,-1.7485,-1.7485,-1.7485,-1.7485,-1.7485,-0.6171,0.0,0.0,-0.6086,-0.6271,0.0,-0.6749,-0.6896,-0.7018,-0.7185,0.0,-0.721,-0.721,-0.7345,-0.7505,-0.7516,-0.7706,-0.7858,-0.7869,-0.7872,-0.7872,-0.7872,-0.7991,-0.9019,-1.143,-1.1792,-1.2937,-1.5418,-1.5601,-1.5601,-1.5601,-1.5601,-1.5601,-1.5601,-1.5601,-1.5601,-1.5601,-1.5601,-1.572,-1.6087,-1.6366,-1.6661,-1.6961,-1.7309,-1.7485,-1.7485,-1.7485,-1.7485,-1.7485,-1.7485,-1.7485,-1.7485,-1.7485,-1.7485,-1.7485,-1.7485,-1.7485,-1.7485,-1.7485,-1.7841,-1.8294,-1.8294,-1.865,-1.9078,-1.9078,-1.9078,-1.9078,-1.9078,-1.9078,-1.9078,-1.9078,-1.9078,-1.9078,-1.9078,-1.9078,-1.9078,-1.9078,-1.9078,-1.9078,-1.9078,-1.9078,-1.9078,-1.9078,-1.9078,-1.9078,-1.9078,-1.9078,-1.9078,-1.9078,-1.9078,-1.9078,-1.9078,-1.9078,-1.9078,-1.9078,-1.9078,-1.9078,-1.9078,-1.9078,-1.8969,-1.8728,-1.8221,-1.7925,-1.7871,-1.7642,-1.7503,-1.7485,-1.7485,-1.7485,-1.7485,-1.7485,-1.7485,0.0,-0.6084,0.0,0.0,-0.6333,-0.6619,-0.6768,-0.6896,-0.7018,-0.7185,-0.721,-0.721,-0.721,-0.7277,-0.735,-0.7502,-0.7644,-0.7769,-0.7858,-0.7872,-0.7872,-0.7872,-0.8778,-0.9983,-1.1551,-1.2637,-1.3904,-1.5477,-1.5601,-1.5601,-1.5601,-1.5601,-1.5601,-1.5601,-1.5601,-1.5601,-1.5601,-1.5601,-1.5661,-1.572,-1.6248,-1.6537,-1.6655,-1.725,-1.7485,-1.7485,-1.7485,-1.7485,-1.7485,-1.7485,-1.7485,-1.7485,-1.7485,-1.7485,-1.7485,-1.7485,-1.7485,-1.7485,-1.7485,-1.7841,-1.8294,-1.8294,-1.865,-1.9078,-1.9078,-1.9078,-1.9078,-1.9078,-1.9078,-1.9078,-1.9078,-1.9078,-1.9078,-1.9078,-1.9078,-1.9078,-1.9078,-1.9078,-1.9078,-1.9078,-1.9078,-1.9078,-1.9078,-1.9078,-1.9078,-1.9078,-1.9078,-1.9078,-1.9078,-1.9078,-1.9078,-1.9078,-1.9078,-1.9078,-1.9078,-1.9078,-1.9078,-1.9078,-1.9078,-1.9048,-1.8994,-1.868,-1.8306,-1.7883,-1.7817,-1.769,-1.7485,-1.7485,-1.7485,-1.7485,-1.7485,-1.7485,0.0,0.0,0.0,-0.6225,0.0,0.0,-0.6774,-0.6896,-0.7018,-0.7185,-0.721,-0.721,-0.721,-0.7252,-0.7298,-0.7421,-0.7584,-0.7722,-0.7782,-0.7837,-0.7872,-0.7872,-0.8477,-0.9623,-1.1491,-1.2333,-1.3545,-1.5477,-1.5601,-1.5601,-1.5601,-1.5601,-1.5601,-1.5601,-1.5601,-1.5601,-1.5601,-1.5601,-1.5601,-1.5601,-1.6183,-1.6655,-1.7009,-1.7367,-1.7485,-1.7485,-1.7485,-1.7485,-1.7485,-1.7485,-1.7485,-1.7485,-1.7485,-1.7485,-1.7485,-1.7485,-1.7485,-1.7485,-1.7485,-1.7841,-1.8294,-1.8294,-1.865,-1.9078,-1.9078,-1.9078,-1.9078,-1.9078,-1.9078,-1.9078,-1.9078,-1.9078,-1.9078,-1.9078,-1.9078,-1.9078,-1.9078,-1.9078,-1.9078,-1.9078,-1.9078,-1.9078,-1.9078,-1.9078,-1.9078,-1.9078,-1.9078,-1.9078,-1.9078,-1.9078,-1.9078,-1.9078,-1.9078,-1.9078,-1.9078,-1.9078,-1.9078,-1.9078,-1.9078,-1.9078,-1.9078,-1.8945,-1.868,-1.8269,-1.8004,-1.7805,-1.7666,-1.7545,-1.7485,-1.7485,-1.7485,-1.7485,0.0,0.0,-0.6138,-0.6352,-0.6499,0.0,-0.6744,-0.6866,-0.6986,-0.7155,-0.7196,-0.721,-0.721,-0.7236,-0.7309,-0.7277,-0.7505,-0.7655,-0.7695,-0.7782,-0.7847,-0.7869,-0.8294,-0.9383,-1.1491,-1.2093,-1.3241,-1.5418,-1.5601,-1.5601,-1.5601,-1.5601,-1.5601,-1.5601,-1.5601,-1.5601,-1.5601,-1.5601,-1.5601,-1.5601,-1.6183,-1.6832,-1.7426,-1.7485,-1.7485,-1.7485,-1.7485,-1.7485,-1.7485,-1.7485,-1.7485,-1.7485,-1.7485,-1.7485,-1.7485,-1.7485,-1.7485,-1.7485,-1.7485,-1.7841,-1.8294,-1.8294,-1.865,-1.9078,-1.9078,-1.9078,-1.9078,-1.9078,-1.9078,-1.9078,-1.9078,-1.9078,-1.9078,-1.9078,-1.9078,-1.9078,-1.9078,-1.9078,-1.9078,-1.9078,-1.9078,-1.9078,-1.9078,-1.9078,-1.9078,-1.9078,-1.9078,-1.9078,-1.9078,-1.9078,-1.9078,-1.9078,-1.9078,-1.9078,-1.9078,-1.9078,-1.9078,-1.9078,-1.9078,-1.9078,-1.9078,-1.9078,-1.8976,-1.8758,-1.8263,-1.7968,-1.7871,-1.7654,-1.7527,-1.7485,-1.7485,-1.7485,0.0,0.0,-0.6119,0.0,-0.6377,-0.6441,0.0,0.0,-0.6861,0.0,-0.7141,-0.721,-0.721,-0.7224,-0.7214,-0.7317,-0.7306,-0.7459,-0.7671,-0.7714,-0.7761,-0.7858,-0.9866,-1.131,-1.1671,-1.3725,-1.5235,-1.5601,-1.5601,-1.5601,-1.5601,-1.5601,-1.5601,-1.5601,-1.5601,-1.5601,-1.5601,-1.5601,-1.5601,-1.5601,-1.6183,-1.672,-1.7079,-1.7367,-1.7485,-1.7485,-1.7485,-1.7485,-1.7485,-1.7485,-1.7485,-1.7485,-1.7485,-1.7485,-1.7485,-1.7485,-1.7485,-1.7485,-1.7485,-1.7841,-1.8294,-1.8294,-1.865,-1.9078,-1.9078,-1.9078,-1.9078,-1.9078,-1.9078,-1.9078,-1.9078,-1.9078,-1.9078,-1.9078,-1.9078,-1.9078,-1.9078,-1.9078,-1.9078,-1.9078,-1.9078,-1.9078,-1.9078,-1.9078,-1.9078,-1.9078,-1.9078,-1.9078,-1.9078,-1.9078,-1.9078,-1.9078,-1.9078,-1.9078,-1.9078,-1.9078,-1.9078,-1.9078,-1.9078,-1.9078,-1.9078,-1.9078,-1.906,-1.9024,-1.8728,-1.8342,-1.7871,-1.7835,-1.7702,-1.7485,-1.7485,-1.7485,-0.5899,-0.5904,-0.6029,0.0,-0.6306,-0.6391,-0.6578,0.0,-0.6755,-0.6945,-0.7024,-0.7136,-0.7199,-0.721,-0.7229,-0.7225,-0.729,-0.7317,-0.7483,-0.7614,-0.7957,-0.8786,-0.9935,-1.1189,-1.2697,-1.3844,-1.4813,-1.5537,-1.5601,-1.5601,-1.5601,-1.5601,-1.5601,-1.5601,-1.5601,-1.5601,-1.5601,-1.5601,-1.5774,-1.6129,-1.636,-1.6779,-1.7315,-1.7426,-1.7485,-1.7485,-1.7485,-1.7485,-1.7485,-1.7485,-1.7485,-1.7485,-1.7485,-1.7485,-1.7485,-1.7485,-1.7485,-1.7485,-1.7485,-1.7841,-1.8294,-1.8294,-1.865,-1.9078,-1.9078,-1.9078,-1.9078,-1.9078,-1.9078,-1.9078,-1.9078,-1.9078,-1.9078,-1.9078,-1.9078,-1.9078,-1.9078,-1.9078,-1.9078,-1.9078,-1.9078,-1.9078,-1.9078,-1.9078,-1.9078,-1.9078,-1.9078,-1.9078,-1.9078,-1.9078,-1.9078,-1.9078,-1.9078,-1.9078,-1.9078,-1.9078,-1.9078,-1.9078,-1.9078,-1.9078,-1.9078,-1.9078,-1.9078,-1.9078,-1.8819,-1.8565,-1.833,-1.8022,-1.7817,-1.7696,-1.7551,-1.7485,0.0,0.0,-0.5947,-0.613,-0.627,-0.6314,0.0,0.0,-0.6619,0.0,-0.681,-0.6864,-0.7031,-0.7133,-0.721,-0.721,-0.723,-0.7301,-0.7274,-0.7494,-0.8101,-0.9466,-0.9982,-1.1143,-1.3476,-1.3968,-1.457,-1.5542,-1.5601,-1.5601,-1.5601,-1.5601,-1.5601,-1.5601,-1.5601,-1.5601,-1.5601,-1.5661,-1.5957,-1.6425,-1.6543,-1.6897,-1.7367,-1.7485,-1.7485,-1.7485,-1.7485,-1.7485,-1.7485,-1.7485,-1.7485,-1.7485,-1.7485,-1.7485,-1.7485,-1.7485,-1.7485,-1.7485,-1.7485,-1.7841,-1.8294,-1.8294,-1.865,-1.9078,-1.9078,-1.9078,-1.9078,-1.9078,-1.9078,-1.9078,-1.9078,-1.9078,-1.9078,-1.9078,-1.9078,-1.9078,-1.9078,-1.9078,-1.9078,-1.9078,-1.9078,-1.9078,-1.9078,-1.9078,-1.9078,-1.9078,-1.9078,-1.9078,-1.9078,-1.9078,-1.9078,-1.9078,-1.9078,-1.9048,-1.8982,-1.8976,-1.8945,-1.8879,-1.8879,-1.8879,-1.8879,-1.8939,-1.8976,-1.8976,-1.8849,-1.8752,-1.8686,-1.8275,-1.801,-1.7871,-1.7672,-1.7545,0.0,-0.582,0.0,-0.5918,0.0,0.0,0.0,0.0,-0.6521,-0.628,-0.6364,-0.647,-0.6586,-0.6968,-0.721,-0.721,-0.7215,-0.7203,-0.7317,-0.729,-0.7899,-0.9442,-1.0713,-1.2077,-1.3586,-1.4813,-1.5542,-1.5601,-1.5601,-1.5601,-1.5601,-1.5601,-1.5601,-1.5601,-1.5601,-1.5601,-1.5601,-1.5903,-1.6087,-1.6146,-1.6672,-1.6961,-1.7026,-1.7367,-1.7485,-1.7485,-1.7485,-1.7485,-1.7485,-1.7485,-1.7485,-1.7485,-1.7485,-1.7485,-1.7485,-1.7485,-1.7485,-1.7485,-1.7485,-1.7841,-1.8294,-1.8294,-1.865,-1.9078,-1.9078,-1.9078,-1.9078,-1.9078,-1.9078,-1.9078,-1.9078,-1.9078,-1.9078,-1.9078,-1.9078,-1.9078,-1.9078,-1.9078,-1.9078,-1.9078,-1.9078,-1.9078,-1.9078,-1.9078,-1.9078,-1.9078,-1.9078,-1.9078,-1.9078,-1.9078,-1.9078,-1.9078,-1.9078,-1.8976,-1.8728,-1.8704,-1.8601,-1.8348,-1.833,-1.833,-1.833,-1.8571,-1.8704,-1.8704,-1.8933,-1.8933,-1.8686,-1.8656,-1.8378,-1.7871,-1.7859,-1.772,0.0,0.0,0.0,-0.5885,-0.6029,-0.617,-0.6298,-0.6244,-0.6225,-0.6197,-0.6086,-0.6113,-0.6508,-0.6741,-0.69,-0.7143,-0.721,-0.7446,-0.8214,-0.8408,-0.9234,-1.1404,-1.2267,-1.3206,-1.4534,-1.5209,-1.5601,-1.5601,-1.5601,-1.5601,-1.5601,-1.5601,-1.5601,-1.5601,-1.5601,-1.5601,-1.5601,-1.5903,-1.62,-1.6366,-1.6785,-1.7138,-1.7309,-1.7426,-1.7485,-1.7485,-1.7485,-1.7485,-1.7485,-1.7485,-1.7485,-1.7485,-1.7485,-1.7485,-1.7485,-1.7485,-1.7485,-1.7485,-1.7485,-1.7841,-1.8294,-1.8294,-1.865,-1.9078,-1.9078,-1.9078,-1.9078,-1.9078,-1.9078,-1.9078,-1.9078,-1.9078,-1.9078,-1.9078,-1.9078,-1.9078,-1.9078,-1.9078,-1.9078,-1.9078,-1.9078,-1.9078,-1.9078,-1.9078,-1.9078,-1.9078,-1.9078,-1.9078,-1.9078,-1.9078,-1.9078,-1.9078,-1.8927,-1.8782,-1.8692,-1.8529,-1.8396,-1.83,-1.8294,-1.8294,-1.8294,-1.8384,-1.8432,-1.8432,-1.8692,-1.8861,-1.8933,-1.8764,-1.8583,-1.8384,-1.8034,-1.7823,0.0,0.0,0.0,0.0,0.0,-0.6056,-0.6179,-0.6151,-0.6119,-0.6131,-0.6001,-0.6004,-0.6399,-0.6485,-0.6601,-0.7122,-0.754,-0.8039,-0.8813,-0.9332,-1.042,-1.2567,-1.2984,-1.3678,-1.5061,-1.5333,-1.5515,-1.5591,-1.5601,-1.5601,-1.5601,-1.5601,-1.5601,-1.5601,-1.5601,-1.5661,-1.5779,-1.6081,-1.6371,-1.6661,-1.702,-1.7256,-1.7485,-1.7485,-1.7485,-1.7485,-1.7485,-1.7485,-1.7485,-1.7485,-1.7485,-1.7485,-1.7485,-1.7485,-1.7485,-1.7485,-1.7485,-1.7485,-1.7485,-1.7841,-1.8294,-1.8294,-1.865,-1.9078,-1.9078,-1.9078,-1.9078,-1.9078,-1.9078,-1.9078,-1.9078,-1.9078,-1.9078,-1.9078,-1.9078,-1.9078,-1.9078,-1.9078,-1.9078,-1.9078,-1.9078,-1.9078,-1.9078,-1.9078,-1.9078,-1.9078,-1.9078,-1.9078,-1.9078,-1.9,-1.8945,-1.8945,-1.871,-1.8517,-1.842,-1.8251,-1.8118,-1.8028,-1.8022,-1.8022,-1.8022,-1.8106,-1.8155,-1.8155,-1.842,-1.8638,-1.8813,-1.8813,-1.877,-1.8674,-1.8312,-1.8046,0.0,0.0,0.0,0.0,0.0,0.0,-0.6053,0.0,-0.6252,-0.6016,-0.5989,-0.6027,-0.6192,-0.6213,-0.6425,-0.7086,-0.814,-0.8916,-0.892,-1.0017,-1.1287,-1.2655,-1.285,-1.3473,-1.5019,-1.5188,-1.529,-1.558,-1.5601,-1.5601,-1.5601,-1.5601,-1.5601,-1.5601,-1.5601,-1.5779,-1.6087,-1.6371,-1.6661,-1.7026,-1.7367,-1.7485,-1.7485,-1.7485,-1.7485,-1.7485,-1.7485,-1.7485,-1.7485,-1.7485,-1.7485,-1.7485,-1.7485,-1.7485,-1.7485,-1.7485,-1.7485,-1.7485,-1.7485,-1.7841,-1.8294,-1.8294,-1.865,-1.9078,-1.9078,-1.9078,-1.9078,-1.9078,-1.9078,-1.9078,-1.9078,-1.9078,-1.9078,-1.9078,-1.9078,-1.9078,-1.9078,-1.9078,-1.9078,-1.9078,-1.9078,-1.9078,-1.9078,-1.9078,-1.9078,-1.9078,-1.9078,-1.9072,-1.9066,-1.8849,-1.8692,-1.8686,-1.8456,-1.8191,-1.7919,-1.7889,-1.7781,-1.7521,-1.7503,-1.7503,-1.7497,-1.7738,-1.7871,-1.7865,-1.8137,-1.8281,-1.8281,-1.8807,-1.8933,-1.8686,-1.8686,-1.8396,-0.6216,0.0,0.0,0.0,0.0,0.0,0.0,0.0,-0.5981,-0.5961,-0.5832,-0.5823,-0.6141,-0.6213,-0.6375,-0.6816,-0.7936,-0.9117,-1.0053,-1.1214,-1.2391,-1.3674,-1.3933,-1.4258,-1.4899,-1.5086,-1.529,0.0,-1.5601,-1.5601,-1.5601,-1.5601,-1.5601,-1.5601,-1.5839,-1.6022,-1.6087,-1.6613,-1.6903,-1.7026,-1.7367,-1.7485,-1.7485,-1.7485,-1.7485,-1.7485,-1.7485,-1.7485,-1.7485,-1.7485,-1.7485,-1.7485,-1.7485,-1.7485,-1.7485,-1.7485,-1.7485,-1.7485,-1.7485,-1.7841,-1.8294,-1.8294,-1.865,-1.9078,-1.9078,-1.9078,-1.9078,-1.9078,-1.9078,-1.9078,-1.9078,-1.9078,-1.9078,-1.9078,-1.9078,-1.9078,-1.9078,-1.9078,-1.9078,-1.9078,-1.9078,-1.9078,-1.9078,-1.9078,-1.9078,-1.9078,-1.9078,-1.9006,-1.8819,-1.8897,-1.8897,-1.8704,-1.8619,-1.8547,-1.8469,-1.8287,-1.8149,-1.807,-1.807,-1.798,-1.7774,-1.7835,-1.7787,-1.7593,-1.7853,-1.7992,-1.7992,-1.8529,-1.8758,-1.8686,-1.8686,-1.8505,0.0,0.0,0.0,0.0,0.0,0.0,-0.5893,-0.5919,-0.595,-0.605,-0.5974,-0.5956,-0.622,-0.6647,-0.704,-0.7327,-0.8762,-1.0059,-1.0575,-1.2095,-1.3413,-1.4137,-1.4309,-1.4487,-1.4713,-1.4955,-1.5198,-1.5435,-1.5542,-1.5601,-1.5601,-1.5601,-1.5661,-1.5779,-1.6022,-1.6205,-1.6495,-1.6849,-1.7079,-1.7197,-1.7426,-1.7485,-1.7485,-1.7485,-1.7485,-1.7485,-1.7485,-1.7485,-1.7485,-1.7485,-1.7485,-1.7485,-1.7485,-1.7485,-1.7485,-1.7485,-1.7485,-1.7485,-1.7485,-1.7841,-1.8294,-1.8294,-1.865,-1.9078,-1.9078,-1.9078,-1.9078,-1.9078,-1.9078,-1.9078,-1.9078,-1.9078,-1.9078,-1.9078,-1.9078,-1.9078,-1.9078,-1.9078,-1.9078,-1.9078,-1.9078,-1.9078,-1.9078,-1.9078,-1.9078,-1.9078,-1.9078,-1.9018,-1.8867,-1.8885,-1.8855,-1.8704,-1.8589,-1.8523,-1.8523,-1.8384,-1.8294,-1.8294,-1.8294,-1.8221,-1.8052,-1.8046,-1.7919,-1.7654,-1.7793,-1.7871,-1.7871,-1.8312,-1.8523,-1.8523,-1.8523,-1.8378,0.0,0.0,0.0,0.0,0.0,0.0,-0.5951,-0.5939,-0.6013,-0.6232,-0.6298,-0.6298,-0.6399,-0.727,-0.8015,-0.8153,-1.0062,-1.1332,-1.0775,-1.271,-1.4164,-1.4191,-1.4196,-1.4283,-1.4459,-1.4724,-1.4961,-1.5172,-1.5467,-1.5661,-1.5661,-1.5655,-1.5839,-1.614,-1.62,-1.6436,-1.6961,-1.7026,-1.7197,-1.7485,-1.7485,-1.7485,-1.7485,-1.7485,-1.7485,-1.7485,-1.7485,-1.7485,-1.7485,-1.7485,-1.7485,-1.7485,-1.7485,-1.7485,-1.7485,-1.7485,-1.7485,-1.7485,-1.7485,-1.7841,-1.8294,-1.8294,-1.865,-1.9078,-1.9078,-1.9078,-1.9078,-1.9078,-1.9078,-1.9078,-1.9078,-1.9078,-1.9078,-1.9078,-1.9078,-1.9078,-1.9078,-1.9078,-1.9078,-1.9078,-1.9078,-1.9078,-1.9078,-1.9078,-1.9078,-1.9078,-1.9078,-1.9066,-1.9036,-1.8855,-1.8716,-1.8686,-1.8505,-1.8384,-1.8384,-1.8384,-1.8384,-1.8384,-1.8384,-1.8366,-1.8342,-1.8336,-1.8209,-1.7925,-1.7889,-1.7871,-1.7871,-1.8125,-1.8263,-1.8294,-1.8294,-1.8161,0.0,0.0,0.0,0.0,0.0,0.0,-0.6112,-0.6156,-0.6199,-0.6013,-0.613,-0.6325,-0.6298,-0.726,-0.8031,-0.8012,-0.9979,-1.1587,-1.1737,-1.3007,-1.3965,-1.4169,-1.4196,-1.4283,-1.4459,-1.4579,-1.4727,-1.5161,-1.5708,-1.6022,-1.6022,-1.6188,-1.636,-1.6425,-1.6667,-1.6908,-1.7026,-1.725,-1.7426,-1.7485,-1.7485,-1.7485,-1.7485,-1.7485,-1.7485,-1.7485,-1.7485,-1.7485,-1.7485,-1.7485,-1.7485,-1.7485,-1.7485,-1.7485,-1.7485,-1.7485,-1.7485,-1.7485,-1.7485,-1.7841,-1.8294,-1.8294,-1.865,-1.9078,-1.9078,-1.9078,-1.9078,-1.9078,-1.9078,-1.9078,-1.9078,-1.9078,-1.9078,-1.9078,-1.9078,-1.9078,-1.9078,-1.9078,-1.9078,-1.9078,-1.9078,-1.9078,-1.9078,-1.9078,-1.9078,-1.9078,-1.9078,-1.9,-1.8788,-1.8897,-1.8921,-1.871,-1.8831,-1.8921,-1.8921,-1.8921,-1.8921,-1.8921,-1.8921,-1.8831,-1.8613,-1.8607,-1.8481,-1.8215,-1.7992,-1.7871,-1.7871,-1.7925,-1.807,-1.8294,-1.8294,-1.8263,0.0,0.0,0.0,-0.6656,0.0,0.0,0.0,-0.6308,-0.6331,-0.6256,-0.6743,-0.7209,-0.7398,-0.8732,-0.9831,-0.9972,-1.1412,-1.2602,-1.2945,-1.3461,-1.3868,-1.3992,-1.4121,-1.4288,-1.4505,-1.4686,-1.502,-1.5613,-1.6054,-1.6312,-1.6312,-1.6425,-1.6596,-1.672,-1.6903,-1.7079,-1.7256,-1.7426,-1.7485,-1.7485,-1.7485,-1.7485,-1.7485,-1.7485,-1.7485,-1.7485,-1.7485,-1.7485,-1.7485,-1.7485,-1.7485,-1.7485,-1.7485,-1.7485,-1.7485,-1.7485,-1.7485,-1.7503,-1.763,-1.795,-1.8318,-1.8444,-1.8758,-1.9078,-1.9078,-1.9078,-1.9078,-1.9078,-1.9078,-1.9078,-1.9078,-1.9078,-1.9078,-1.9078,-1.9078,-1.9078,-1.9078,-1.9078,-1.9114,-1.9247,-1.9459,-1.9481,-1.916,-1.9078,-1.9078,-1.9078,-1.9078,-1.9024,-1.8897,-1.8994,-1.9024,-1.8891,-1.9,-1.9078,-1.9078,-1.9078,-1.9078,-1.9078,-1.9078,-1.9018,-1.8885,-1.8879,-1.8758,-1.8493,-1.8221,-1.8082,-1.8082,-1.7943,-1.7877,-1.7889,-1.7889,-1.7889,0.0,0.0,0.0,0.0,0.0,-0.6792,0.0,0.0,0.0,-0.684,-0.7608,-0.8398,0.0,0.0,0.0,-1.1907,0.0,0.0,0.0,-1.379,0.0,-1.3914,-1.42,-1.4455,-1.4659,-1.4942,-1.5333,-1.6,-1.632,-1.6545,-1.6596,-1.6655,-1.6838,-1.7079,-1.7079,-1.7256,-1.7485,-1.7485,-1.7485,-1.7485,-1.7485,-1.7485,-1.7485,-1.7485,-1.7485,-1.7485,-1.7485,-1.7485,-1.7485,-1.7485,-1.7485,-1.7485,-1.7485,-1.7485,-1.7485,-1.7485,-1.7485,-1.7521,-1.7781,-1.8058,-1.8336,-1.8601,-1.8861,-1.9078,-1.9078,-1.9078,-1.9078,-1.9078,-1.9078,-1.9078,-1.9078,-1.9078,-1.9078,-1.9078,-1.9078,-1.9078,-1.9078,-1.9114,-1.9281,-1.9553,-1.9834,-1.9927,-1.933,-1.9294,-1.9358,-1.9229,-1.9229,-1.9211,-1.9157,-1.9151,-1.9132,-1.9084,-1.9078,-1.9078,-1.9078,-1.9078,-1.9078,-1.9078,-1.9078,-1.9078,-1.9078,-1.9078,-1.8976,-1.8764,-1.8505,-1.8366,-1.8366,-1.8088,-1.7817,-1.7557,-1.7503,-1.7485,0.0,0.0,0.0,0.0,-0.7051,0.0,0.0,0.0,-0.7921,-0.7724,0.0,0.0,0.0,0.0,0.0,0.0,0.0,0.0,-1.3212,-1.3573,-1.4061,-1.4456,-1.4728,-1.4934,-1.4928,-1.5209,-1.5471,-1.5801,-1.6287,-1.671,-1.695,-1.7191,-1.7426,-1.7426,-1.7426,-1.7485,-1.7485,-1.7485,-1.7485,-1.7485,-1.7485,-1.7485,-1.7485,-1.7485,-1.7485,-1.7485,-1.7485,-1.7485,-1.7485,-1.7485,-1.7485,-1.7485,-1.7485,-1.7485,-1.7485,-1.7485,-1.7485,-1.7521,-1.7781,-1.8058,-1.8336,-1.8601,-1.8861,-1.9078,-1.9078,-1.9078,-1.9078,-1.9078,-1.9078,-1.9078,-1.9078,-1.9078,-1.9078,-1.9078,-1.9078,-1.9078,-1.9078,-1.9259,-1.9559,-1.9909,-2.0185,-2.0219,-1.9863,-2.0056,-2.0116,-1.9863,-1.9796,-1.9706,-1.9518,-1.9422,-1.9332,-1.9102,-1.9078,-1.9078,-1.9078,-1.9078,-1.9078,-1.9078,-1.9078,-1.9078,-1.9078,-1.9078,-1.906,-1.9036,-1.877,-1.8638,-1.8638,-1.8378,-1.81,-1.7823,-1.7587,-1.7485,0.0,0.0,0.0,0.0,0.0,0.0,-0.8767,0.0,-0.9327,0.0,0.0,0.0,0.0,0.0,0.0,0.0,-1.3598,0.0,0.0,0.0,-1.4398,-1.4402,0.0,0.0,-1.525,-1.5645,-1.6013,-1.6278,-1.6651,-1.7028,-1.7297,-1.7426,-1.7485,-1.7485,-1.7485,-1.7485,-1.7485,-1.7485,-1.7485,-1.7485,-1.7485,-1.7485,-1.7485,-1.7485,-1.7485,-1.7485,-1.7485,-1.7485,-1.7485,-1.7485,-1.7485,-1.7485,-1.7485,-1.7485,-1.7485,-1.7485,-1.7581,-1.775,-1.8022,-1.8294,-1.8565,-1.8825,-1.8982,-1.9078,-1.9078,-1.9078,-1.9078,-1.9078,-1.9078,-1.9078,-1.9078,-1.9078,-1.9078,-1.9078,-1.9078,-1.9078,-1.9078,-1.9283,-1.9644,-2.0131,-2.0651,-2.0963,-2.099,-2.0686,-2.0408,-2.0547,-2.0347,-2.011,-1.9822,-1.9785,-1.9622,-1.9166,-1.9078,-1.9078,-1.9078,-1.9078,-1.9078,-1.9078,-1.9078,-1.9078,-1.9078,-1.9078,-1.9078,-1.9078,-1.8969,-1.8915,-1.8909,-1.865,-1.8463,-1.8336,-1.7907,-1.7708,-0.949,0.0,0.0,0.0,0.0,0.0,0.0,0.0,0.0,0.0,0.0,0.0,0.0,0.0,0.0,0.0,0.0,-1.4268,0.0,-1.4431,0.0,0.0,0.0,0.0,0.0,-1.5959,-1.6284,-1.6567,-1.6833,-1.7098,-1.7364,-1.7443,-1.7485,-1.7485,-1.7485,-1.7485,-1.7485,-1.7485,-1.7485,-1.7485,-1.7485,-1.7485,-1.7485,-1.7485,-1.7485,-1.7485,-1.7485,-1.7485,-1.7485,-1.7485,-1.7713,-1.7941,-1.7655,-1.7713,-1.7941,-1.7596,-1.7885,-1.8388,-1.8313,-1.8511,-1.8825,-1.9012,-1.9078,-1.9078,-1.9078,-1.9078,-1.9078,-1.9078,-1.9078,-1.9078,-1.9078,-1.9078,-1.9078,-1.9078,-1.92,-1.9288,-1.9356,-1.9646,-2.0053,-2.0664,-2.1276,-2.1735,-2.2072,-2.1429,-2.0967,-2.1168,-2.0967,-2.0634,-2.0273,-2.0223,-1.9962,-1.9301,-1.9264,-1.92,-1.9142,-1.9078,-1.9078,-1.9078,-1.9078,-1.9078,-1.9078,-1.9078,-1.9078,-1.9078,-1.9078,-1.9078,-1.9078,-1.8885,-1.8794,-1.8776,-1.8239,-1.795,0.0,0.0,0.0,-1.0742,0.0,0.0,0.0,0.0,-1.2056,0.0,0.0,0.0,0.0,0.0,0.0,0.0,0.0,0.0,0.0,0.0,0.0,0.0,0.0,0.0,0.0,-1.5897,-1.6012,-1.6272,-1.6555,-1.6827,-1.7092,-1.7346,-1.7485,-1.7485,-1.7485,-1.7485,-1.7485,-1.7485,-1.7485,-1.7485,-1.7485,-1.7485,-1.7485,-1.7485,-1.7485,-1.7485,-1.7485,-1.7485,-1.7485,-1.7485,-1.8175,-1.9152,-1.7941,-1.8227,-1.9094,-1.7941,-1.8404,-1.9503,-1.8618,-1.8632,-1.9066,-1.9072,-1.9078,-1.9078,-1.9078,-1.9078,-1.9078,-1.9078,-1.9078,-1.9078,-1.9078,-1.9078,-1.9078,-1.9078,-1.9328,-1.9646,-1.9912,-2.0448,-2.1063,-2.1748,-2.2102,-2.2366,-2.2791,-2.2503,-2.2147,-2.1803,-2.1741,-2.1543,-2.0924,-2.0848,-2.0573,-1.9697,-1.9577,-1.945,-1.9142,-1.9078,-1.9078,-1.9078,-1.9078,-1.9078,-1.9078,-1.9078,-1.9078,-1.9078,-1.9078,-1.9078,-1.9078,-1.9066,-1.906,-1.9048,-1.8523,-1.8137,0.0,0.0,-1.1433,-1.2755,0.0,0.0,0.0,0.0,0.0,0.0,0.0,0.0,0.0,0.0,0.0,0.0,0.0,0.0,0.0,0.0,0.0,0.0,0.0,0.0,0.0,0.0,-1.6,-1.626,-1.6543,-1.6815,-1.708,-1.734,-1.7485,-1.7485,-1.7485,-1.7485,-1.7485,-1.7485,-1.7485,-1.7485,-1.7485,-1.7485,-1.7485,-1.7485,-1.7485,-1.7485,-1.7485,-1.7485,-1.7543,-1.8344,-1.8919,-1.9267,-1.8861,-1.9555,-2.0485,-1.8504,-1.8208,-1.8935,-1.9822,-1.9676,-1.9386,-2.1139,-2.0576,-1.945,-2.1202,-2.1139,-2.0386,-2.0386,-2.0386,-2.0202,-1.9328,-1.9078,-1.9078,-1.9078,-1.9392,-1.9652,-1.9918,-2.046,-2.1082,-2.1761,-2.2115,-2.2448,-2.2859,-2.2791,-2.2654,-2.2523,-2.231,-2.1968,-2.1587,-2.1381,-2.0918,-1.9946,-1.9683,-1.945,-1.9142,-1.9078,-1.9078,-1.9078,-1.9078,-1.9078,-1.9078,-1.9078,-1.9078,-1.9078,-1.9078,-1.9078,-1.9078,-1.9078,-1.9078,-1.9072,-1.8891,-1.8571,-1.3188,-1.3024,0.0,-1.4103,-1.3827,0.0,-1.4276,0.0,-1.4425,0.0,0.0,0.0,0.0,0.0,0.0,0.0,0.0,0.0,0.0,-1.4939,0.0,0.0,0.0,0.0,0.0,-1.5734,-1.5958,-1.6127,-1.6398,-1.667,-1.6936,-1.7201,-1.7382,-1.7479,-1.7485,-1.7485,-1.7485,-1.7485,-1.7485,-1.7485,-1.7485,-1.7485,-1.7485,-1.7485,-1.7485,-1.7485,-1.7485,-1.7485,-1.7596,-1.8803,-1.955,-1.9883,-1.9492,-2.0482,-2.1927,-1.9516,-1.9124,-2.0073,-2.1347,-2.1265,-2.0829,-2.2514,-2.195,-2.0823,-2.2577,-2.2514,-2.172,-2.133,-2.1156,-2.0766,-1.945,-1.9078,-1.9054,-1.8957,-1.9462,-1.9994,-2.0269,-2.0942,-2.1631,-2.212,-2.2391,-2.2585,-2.2859,-2.2928,-2.2928,-2.2928,-2.2654,-2.2411,-2.2122,-2.1839,-2.1286,-2.0278,-1.9938,-1.9584,-1.9142,-1.9078,-1.9078,-1.9078,-1.9078,-1.9078,-1.9078,-1.9078,-1.9169,-1.9362,-1.9175,-1.9169,-1.9362,-1.9169,-1.9078,-1.9078,-1.9078,-1.8794]},{"header":{"parameterUnit":"m.s-1","parameterCategory":1,"la1":30.6,"la2":29.2853,"lo1":-89.7004,"lo2":-87.6739,"dx":0.0162,"dy":0.0183,"nx":112,"ny":82,"refTime":"2023-02-02T18:00:00:Z","depth":0,"parameterNumber":3,"parameterNumberName":"V-component_of_WINDS"},"data":[0.0,0.0,0.0,0.0,0.0,0.0,0.0,0.0,0.0,0.0,0.0,0.0,0.0,0.0,0.0,0.0,0.0,0.0,0.0,0.0,0.0,0.0,0.0,0.0,0.0,0.0,0.0,0.0,0.0,0.0,0.0,0.0,0.0,0.0,0.0,0.0,0.0,0.0,0.0,0.0,0.0,0.0,0.0,0.0,0.0,0.0,0.0,0.0,0.0,0.0,0.0,0.0,0.0,0.0,0.0,0.0,0.0,0.0,0.0,0.0,0.0,0.0,0.0,0.0,0.0,0.0,0.0,0.0,0.0,0.0,0.0,0.0,0.0,0.0,0.0,0.0,0.0,0.0,0.0,0.0,0.0,0.0,0.0,0.0,0.0,0.0,0.0,0.0,0.0,0.0,1.8337,1.8337,1.8182,1.8012,1.7862,1.7759,1.7623,1.7398,0.0,0.0,0.0,0.0,0.0,0.0,0.0,0.0,0.0,0.0,0.0,0.0,0.0,0.0,0.0,0.0,0.0,0.0,0.0,0.0,0.0,0.0,0.0,0.0,0.0,0.0,0.0,0.0,0.0,0.0,0.0,0.0,0.0,0.0,0.0,0.0,0.0,0.0,0.0,0.0,0.0,0.0,0.0,0.0,0.0,0.0,0.0,0.0,0.0,0.0,0.0,0.0,0.0,0.0,0.0,0.0,0.0,0.0,0.0,0.0,0.0,0.0,0.0,0.0,0.0,0.0,0.0,0.0,0.0,0.0,0.0,0.0,0.0,0.0,0.0,0.0,0.0,0.0,0.0,0.0,0.0,0.0,0.0,0.0,0.0,0.0,0.0,0.0,0.0,0.0,0.0,0.0,0.0,0.0,0.0,0.0,0.0,0.0,0.0,0.0,0.0,0.0,0.0,0.0,1.977,1.977,1.9737,1.9661,1.9475,1.8924,1.8509,1.8307,0.0,0.0,0.0,0.0,0.0,0.0,0.0,0.0,0.0,0.0,0.0,0.0,0.0,0.0,0.0,0.0,0.0,0.0,0.0,0.0,0.0,0.0,0.0,0.0,0.0,0.0,0.0,0.0,0.0,0.0,0.0,0.0,0.0,0.0,0.0,0.0,0.0,0.0,0.0,0.0,0.0,0.0,0.0,0.0,0.0,0.0,0.0,0.0,0.0,0.0,0.0,0.0,0.0,0.0,0.0,0.0,0.0,0.0,0.0,0.0,0.0,0.0,0.0,0.0,0.0,0.0,0.0,0.0,0.0,0.0,0.0,0.0,0.0,0.0,0.0,0.0,0.0,0.0,0.0,0.0,0.0,0.0,0.0,0.0,0.0,0.0,0.0,0.0,0.0,0.0,0.0,0.0,0.0,0.0,0.0,0.0,0.0,0.0,0.0,0.0,0.0,0.0,0.0,2.0182,2.0096,2.0096,2.0096,2.0063,1.9977,1.9694,1.9431,1.9222,1.9,0.0,0.0,0.0,0.0,0.0,0.0,0.0,0.0,0.0,0.0,0.0,0.0,0.0,0.0,0.0,0.0,0.0,0.0,0.0,0.0,0.0,0.0,0.0,0.0,0.0,0.0,0.0,0.0,0.0,0.0,0.0,0.0,0.0,0.0,0.0,0.0,0.0,0.0,0.0,0.0,0.0,0.0,0.0,0.0,0.0,0.0,0.0,0.0,0.0,0.0,0.0,0.0,0.0,0.0,0.0,0.0,0.0,0.0,0.0,0.0,0.0,0.0,0.0,0.0,0.0,0.0,0.0,0.0,0.0,0.0,0.0,0.0,0.0,0.0,0.0,0.0,0.0,0.0,0.0,0.0,0.0,0.0,0.0,0.0,0.0,0.0,0.0,0.0,0.0,0.0,0.0,0.0,0.0,0.0,0.0,0.0,0.0,0.0,0.0,0.0,0.0,0.0,2.0975,2.0878,2.0824,2.0723,2.0624,2.0592,2.042,2.0279,2.0128,2.0085,0.0,0.0,0.0,0.0,0.0,0.0,0.0,0.0,0.0,0.0,0.0,0.0,0.0,0.0,0.0,0.0,0.0,0.0,0.0,0.0,0.0,0.0,0.0,0.0,0.0,0.0,0.0,0.0,0.0,0.0,0.0,0.0,0.0,0.0,0.0,0.0,0.0,0.0,0.0,0.0,0.0,0.0,0.0,0.0,0.0,0.0,0.0,0.0,0.0,0.0,0.0,0.0,0.0,0.0,0.0,0.0,0.0,0.0,0.0,0.0,0.0,0.0,0.0,0.0,0.0,0.0,0.0,0.0,0.0,0.0,0.0,0.0,0.0,0.0,0.0,0.0,0.0,0.0,0.0,0.0,0.0,0.0,0.0,0.0,0.0,0.0,0.0,0.0,0.0,0.0,0.0,0.0,0.0,0.0,0.0,0.0,0.0,0.0,0.0,0.0,0.0,0.0,2.3269,2.3194,2.2991,2.2556,2.2204,2.2061,2.1431,2.1028,2.0996,2.0452,0.0,0.0,0.0,0.0,0.0,0.0,0.0,0.0,0.0,0.0,0.0,0.0,0.0,0.0,0.0,0.0,0.0,0.0,0.0,0.0,0.0,0.0,0.0,0.0,0.0,0.0,0.0,0.0,0.0,0.0,0.0,0.0,0.0,0.0,0.0,0.0,0.0,0.0,0.0,0.0,0.0,0.0,0.0,0.0,0.0,0.0,0.0,0.0,0.0,0.0,0.0,0.0,0.0,0.0,0.0,0.0,0.0,0.0,0.0,0.0,0.0,0.0,0.0,0.0,0.0,0.0,0.0,0.0,0.0,0.0,0.0,0.0,0.0,0.0,0.0,0.0,0.0,0.0,0.0,0.0,0.0,0.0,0.0,0.0,0.0,0.0,0.0,0.0,0.0,0.0,0.0,0.0,0.0,0.0,0.0,0.0,0.0,0.0,0.0,0.0,0.0,0.0,2.409,2.396,0.0,2.3712,2.3558,2.3526,2.3256,2.305,2.2909,0.0,0.0,0.0,0.0,0.0,0.0,0.0,0.0,0.0,0.0,0.0,0.0,0.0,0.0,0.0,0.0,0.0,0.0,0.0,0.0,0.0,0.0,0.0,0.0,0.0,0.0,0.0,0.0,0.0,0.0,0.0,0.0,0.0,0.0,0.0,0.0,0.0,0.0,0.0,0.0,0.0,0.0,0.0,0.0,0.0,0.0,0.0,0.0,0.0,0.0,0.0,0.0,0.0,0.0,0.0,0.0,0.0,0.0,0.0,0.0,0.0,0.0,0.0,0.0,0.0,0.0,0.0,0.0,0.0,0.0,0.0,0.0,0.0,0.0,0.0,0.0,0.0,0.0,0.0,0.0,0.0,0.0,0.0,0.0,0.0,0.0,0.0,0.0,0.0,0.0,0.0,0.0,0.0,0.0,0.0,0.0,0.0,0.0,0.0,0.0,0.0,0.0,2.4941,2.4809,2.4711,0.0,2.4497,2.4365,2.43,2.43,2.4222,2.4079,0.0,0.0,0.0,0.0,0.0,0.0,0.0,0.0,0.0,0.0,0.0,0.0,0.0,0.0,0.0,0.0,0.0,0.0,0.0,0.0,0.0,0.0,0.0,0.0,0.0,0.0,0.0,0.0,0.0,0.0,0.0,0.0,0.0,0.0,0.0,0.0,0.0,0.0,0.0,0.0,0.0,0.0,0.0,0.0,0.0,0.0,0.0,0.0,0.0,0.0,0.0,0.0,0.0,0.0,0.0,0.0,0.0,0.0,0.0,0.0,0.0,0.0,0.0,0.0,0.0,0.0,0.0,0.0,0.0,0.0,0.0,0.0,0.0,0.0,0.0,0.0,0.0,0.0,0.0,0.0,0.0,0.0,0.0,0.0,0.0,0.0,0.0,0.0,0.0,0.0,0.0,0.0,0.0,0.0,0.0,0.0,0.0,0.0,0.0,0.0,0.0,0.0,2.5731,2.5632,2.5578,2.5457,2.4962,2.4553,2.4345,2.4345,2.4345,0.0,0.0,0.0,0.0,0.0,0.0,0.0,0.0,0.0,0.0,0.0,0.0,0.0,0.0,0.0,0.0,0.0,0.0,0.0,0.0,0.0,0.0,0.0,0.0,0.0,0.0,0.0,0.0,0.0,0.0,0.0,0.0,0.0,0.0,0.0,0.0,0.0,0.0,0.0,0.0,0.0,0.0,0.0,0.0,0.0,0.0,0.0,0.0,0.0,0.0,0.0,0.0,0.0,0.0,0.0,0.0,0.0,0.0,0.0,0.0,0.0,0.0,0.0,0.0,0.0,0.0,0.0,0.0,0.0,0.0,0.0,0.0,0.0,0.0,0.0,0.0,0.0,0.0,0.0,0.0,0.0,0.0,0.0,0.0,0.0,0.0,0.0,0.0,0.0,0.0,0.0,0.0,0.0,0.0,0.0,0.0,0.0,0.0,0.0,0.0,0.0,0.0,0.0,2.7687,2.7765,2.7779,2.7589,2.7013,2.6626,2.656,2.656,2.6306,2.5682,0.0,0.0,0.0,0.0,0.0,0.0,0.0,0.0,0.0,0.0,0.0,0.0,0.0,0.0,0.0,0.0,0.0,0.0,0.0,0.0,0.0,0.0,0.0,0.0,0.0,0.0,0.0,0.0,0.0,0.0,0.0,0.0,0.0,0.0,0.0,0.0,0.0,0.0,0.0,0.0,0.0,0.0,0.0,0.0,0.0,0.0,0.0,0.0,0.0,0.0,0.0,0.0,0.0,0.0,0.0,0.0,0.0,0.0,0.0,0.0,0.0,0.0,0.0,0.0,0.0,0.0,0.0,0.0,0.0,0.0,0.0,0.0,0.0,0.0,0.0,0.0,0.0,0.0,0.0,0.0,0.0,0.0,0.0,0.0,0.0,0.0,0.0,0.0,0.0,0.0,0.0,0.0,0.0,0.0,0.0,0.0,0.0,0.0,0.0,0.0,0.0,0.0,2.8748,2.8794,2.8807,2.8634,2.826,2.8012,2.8012,2.7966,2.7703,2.7276,0.0,0.0,0.0,0.0,0.0,0.0,0.0,0.0,0.0,0.0,0.0,0.0,0.0,0.0,0.0,0.0,0.0,0.0,0.0,0.0,0.0,0.0,0.0,0.0,0.0,0.0,0.0,0.0,0.0,0.0,0.0,0.0,0.0,0.0,0.0,0.0,0.0,0.0,0.0,0.0,0.0,0.0,0.0,0.0,0.0,0.0,0.0,0.0,0.0,0.0,0.0,0.0,0.0,0.0,0.0,0.0,0.0,0.0,0.0,0.0,0.0,0.0,0.0,0.0,0.0,0.0,0.0,0.0,0.0,0.0,0.0,0.0,0.0,0.0,0.0,0.0,0.0,0.0,0.0,0.0,0.0,0.0,0.0,0.0,0.0,0.0,0.0,0.0,0.0,0.0,0.0,0.0,0.0,0.0,0.0,0.0,0.0,0.0,0.0,0.0,0.0,0.0,2.9286,2.9192,2.9174,2.9012,2.8949,2.8917,2.8917,2.873,2.8698,2.8821,0.0,0.0,0.0,0.0,0.0,0.0,0.0,0.0,0.0,0.0,0.0,0.0,0.0,0.0,0.0,0.0,0.0,0.0,0.0,0.0,0.0,0.0,0.0,0.0,0.0,0.0,0.0,0.0,0.0,0.0,0.0,0.0,0.0,0.0,0.0,0.0,0.0,0.0,0.0,0.0,0.0,0.0,0.0,0.0,0.0,0.0,0.0,0.0,0.0,0.0,0.0,0.0,0.0,0.0,0.0,0.0,0.0,0.0,0.0,0.0,3.4828,0.0,0.0,0.0,0.0,0.0,0.0,0.0,0.0,0.0,0.0,0.0,0.0,0.0,0.0,0.0,0.0,0.0,0.0,0.0,0.0,0.0,0.0,0.0,0.0,0.0,0.0,0.0,0.0,0.0,0.0,0.0,0.0,0.0,0.0,0.0,0.0,0.0,0.0,0.0,0.0,0.0,3.0687,3.0732,3.0762,3.0628,3.0101,2.9735,2.9735,2.969,2.9473,2.8985,2.9411,0.0,0.0,0.0,0.0,0.0,0.0,0.0,0.0,0.0,0.0,0.0,0.0,0.0,0.0,0.0,0.0,0.0,0.0,0.0,0.0,0.0,0.0,0.0,0.0,0.0,0.0,0.0,0.0,0.0,0.0,0.0,0.0,0.0,0.0,0.0,0.0,0.0,0.0,0.0,0.0,0.0,0.0,0.0,0.0,0.0,0.0,0.0,0.0,0.0,0.0,0.0,0.0,0.0,0.0,0.0,0.0,0.0,0.0,0.0,0.0,3.5088,0.0,0.0,0.0,0.0,0.0,0.0,0.0,0.0,0.0,0.0,0.0,0.0,0.0,0.0,0.0,0.0,0.0,0.0,0.0,0.0,0.0,0.0,0.0,0.0,0.0,0.0,0.0,0.0,0.0,0.0,0.0,0.0,0.0,0.0,0.0,0.0,0.0,0.0,0.0,0.0,3.1307,3.1351,3.1351,3.122,3.0851,3.0614,3.0614,3.0569,3.0418,3.0103,3.0374,0.0,0.0,0.0,0.0,0.0,0.0,0.0,0.0,0.0,0.0,0.0,0.0,0.0,0.0,0.0,0.0,0.0,0.0,0.0,0.0,0.0,0.0,0.0,0.0,0.0,0.0,0.0,0.0,0.0,0.0,0.0,0.0,0.0,0.0,0.0,0.0,0.0,0.0,0.0,0.0,0.0,0.0,0.0,0.0,0.0,0.0,0.0,0.0,0.0,0.0,0.0,0.0,0.0,3.557,3.5683,3.5683,3.5892,3.5921,3.5763,3.5712,3.5547,3.5291,3.5175,0.0,0.0,0.0,0.0,0.0,0.0,0.0,0.0,0.0,0.0,0.0,0.0,0.0,0.0,0.0,0.0,0.0,0.0,0.0,0.0,0.0,0.0,0.0,0.0,3.4358,3.4616,3.4078,0.0,0.0,0.0,0.0,0.0,0.0,0.0,0.0,0.0,0.0,0.0,3.1511,3.1511,3.1467,3.1351,3.1322,3.1322,3.1322,3.1249,3.122,3.1322,3.1249,3.1161,0.0,0.0,0.0,0.0,0.0,0.0,0.0,0.0,0.0,0.0,0.0,0.0,0.0,0.0,0.0,0.0,0.0,0.0,0.0,0.0,0.0,0.0,0.0,0.0,0.0,0.0,0.0,0.0,0.0,0.0,0.0,0.0,3.6326,3.6326,0.0,0.0,0.0,0.0,0.0,0.0,0.0,0.0,0.0,0.0,0.0,0.0,0.0,3.5633,3.5291,3.5423,3.5469,3.5508,3.6642,3.7197,3.7253,3.8285,3.8384,3.7714,3.737,0.0,3.5291,3.5268,0.0,0.0,0.0,0.0,0.0,0.0,0.0,0.0,0.0,0.0,0.0,0.0,0.0,0.0,0.0,0.0,0.0,0.0,0.0,0.0,0.0,0.0,3.5554,3.5379,3.5385,3.543,0.0,3.4423,3.3556,3.3495,3.3469,0.0,0.0,0.0,0.0,0.0,0.0,0.0,3.1511,3.1511,3.1511,3.1467,3.1467,3.1467,3.1467,3.1453,3.1438,3.1467,3.1453,3.1395,3.1292,3.1263,0.0,0.0,0.0,0.0,0.0,0.0,0.0,0.0,0.0,0.0,0.0,0.0,0.0,0.0,0.0,0.0,0.0,0.0,0.0,0.0,0.0,0.0,0.0,0.0,0.0,0.0,0.0,0.0,0.0,3.6551,3.6531,3.6591,3.6385,3.6239,0.0,0.0,0.0,0.0,0.0,0.0,0.0,0.0,0.0,3.7022,3.7022,3.7184,3.7542,3.7603,3.7625,3.7625,3.8233,3.8513,3.8534,3.9056,3.9103,3.8766,3.858,3.8152,3.7447,3.6,3.5423,3.5383,0.0,0.0,0.0,0.0,3.5423,3.5423,3.5458,3.5481,3.5481,3.5481,0.0,0.0,0.0,0.0,0.0,0.0,0.0,0.0,0.0,0.0,3.56,3.56,3.56,3.56,3.56,3.5138,3.4609,0.0,3.4161,3.3862,3.296,0.0,0.0,0.0,0.0,3.212,3.1811,3.1783,3.1783,3.1783,3.1712,3.167,3.167,3.1568,3.1539,3.167,3.167,3.1683,3.1697,3.1697,3.1697,0.0,0.0,0.0,0.0,0.0,0.0,0.0,0.0,0.0,0.0,0.0,0.0,0.0,0.0,0.0,0.0,0.0,0.0,0.0,0.0,0.0,0.0,0.0,0.0,0.0,0.0,0.0,0.0,3.6925,3.6964,3.7076,3.6886,3.6751,0.0,0.0,0.0,0.0,0.0,0.0,3.7108,3.7323,3.775,3.8446,3.8463,3.8742,3.9297,3.9511,3.962,3.9641,4.017,4.0427,4.0468,4.0765,4.0682,4.0291,4.019,3.9916,3.9376,3.7314,3.64,3.6305,3.6333,3.6174,3.5984,3.6129,3.6106,3.5977,3.5824,3.5761,3.5761,3.5644,3.5622,3.5644,3.5622,0.0,0.0,0.0,0.0,3.5695,3.5859,3.591,3.5983,3.6163,3.6174,3.6174,3.6174,3.6174,3.5925,0.0,3.4871,3.452,3.3495,0.0,0.0,0.0,0.0,3.2868,3.2465,3.2425,3.2425,3.2425,3.2191,3.2053,3.2053,3.1783,3.1683,3.1841,3.1841,3.1968,3.2191,3.2066,3.2066,3.2191,0.0,0.0,0.0,0.0,0.0,0.0,0.0,0.0,0.0,0.0,0.0,0.0,0.0,0.0,0.0,0.0,0.0,0.0,0.0,0.0,0.0,0.0,0.0,0.0,0.0,0.0,0.0,0.0,0.0,3.8123,3.7721,0.0,0.0,0.0,0.0,3.688,3.7648,3.8309,3.8759,3.957,4.0019,3.9978,3.9978,3.9765,3.9297,4.006,4.0479,4.0548,4.2524,4.3504,4.3604,4.4755,4.4453,4.2978,4.2606,4.1569,4.0091,3.9396,3.8837,3.8484,3.8922,3.855,3.7797,3.7912,3.7676,3.7206,3.65,3.6259,3.6195,3.5739,3.5706,3.5773,3.5644,3.5706,0.0,0.0,3.5689,3.5943,3.6581,3.6797,3.7012,3.7642,3.7787,3.7787,3.7787,3.7787,3.7341,0.0,3.5538,3.5379,3.4793,0.0,3.4358,3.3786,3.3608,3.3556,3.3521,3.3521,3.3521,3.3521,3.3066,3.2749,3.2749,3.2259,3.1968,3.1996,3.1996,3.2219,3.2749,3.2259,3.2247,3.2749,3.2274,0.0,0.0,0.0,0.0,0.0,0.0,0.0,0.0,0.0,0.0,0.0,0.0,0.0,0.0,0.0,0.0,0.0,0.0,0.0,0.0,0.0,0.0,0.0,0.0,0.0,0.0,0.0,0.0,3.832,3.864,0.0,3.8845,3.9192,3.941,3.941,3.9698,3.995,4.011,4.0907,4.1579,4.2068,4.2595,4.3008,4.3359,4.3648,4.3794,4.3833,4.4568,4.4936,4.4975,4.54,4.5293,4.4728,4.4596,4.4212,4.3666,4.3437,4.1683,3.9119,3.9258,3.9087,3.8768,3.8534,3.8365,3.8217,3.7648,3.7512,3.7574,3.7393,3.7371,3.7393,3.7348,3.7371,3.7393,3.7348,3.7371,3.7462,3.7712,3.778,3.7854,3.8097,3.8165,3.8165,3.8165,3.8165,3.7972,3.7427,3.721,3.6912,3.6372,3.6519,3.6413,3.5551,3.5671,3.5722,3.5396,3.5344,3.5344,3.5344,3.5048,3.4686,3.4186,3.3904,3.3565,3.3161,3.3172,3.3119,3.3066,3.3214,3.3198,3.3066,3.3214,3.3108,0.0,0.0,0.0,0.0,0.0,0.0,0.0,0.0,0.0,0.0,0.0,0.0,0.0,0.0,0.0,0.0,0.0,0.0,0.0,0.0,0.0,0.0,0.0,0.0,0.0,0.0,3.8784,3.8784,3.9529,3.9987,3.9987,4.0496,4.0916,4.1189,4.1498,4.1807,4.2063,4.2866,4.3542,4.4054,4.4601,4.5094,4.5603,4.5877,4.6023,4.608,4.6354,4.6501,4.6521,4.6521,4.6356,4.61,4.61,4.5935,4.5698,4.5679,4.4045,4.1552,4.1451,4.1227,4.092,4.0637,4.0348,3.994,3.9094,3.8786,3.8755,3.8755,3.8644,3.8567,3.8527,3.8431,3.8334,3.8305,3.8311,3.8385,3.8612,3.8704,3.8755,3.8988,3.904,3.904,3.904,3.904,3.904,3.904,3.8459,3.7865,3.7492,3.7679,3.7672,3.696,3.7153,3.7245,3.6909,3.6841,3.6841,3.6841,3.6551,3.6157,3.5675,3.5392,3.5078,3.4671,3.4403,3.4223,3.4147,3.4048,3.3919,3.3751,3.3919,3.3818,3.3485,0.0,0.0,0.0,0.0,0.0,0.0,0.0,0.0,0.0,0.0,0.0,0.0,0.0,0.0,0.0,0.0,0.0,0.0,0.0,0.0,0.0,0.0,0.0,3.8451,3.9128,3.9621,3.9639,4.0369,4.0878,4.0878,4.0933,4.1281,4.2065,4.2957,4.3814,4.4601,4.548,4.592,4.5846,4.5864,4.5826,4.5695,4.646,4.6902,4.7036,4.7841,4.8246,4.8306,4.8306,4.7865,4.7131,4.7131,4.6691,4.5975,4.5901,4.5883,4.5864,4.5659,4.5039,4.4262,4.4369,4.3628,4.234,4.0849,4.0083,3.9771,3.9771,3.9547,3.9248,3.9107,3.8841,3.858,3.8517,3.8528,3.8729,3.9384,3.9579,3.9774,4.0431,4.0578,4.0578,4.0578,4.0578,4.0578,4.0578,3.932,3.8244,3.8169,3.8068,3.7973,3.7973,3.7973,0.0,3.7973,3.7973,3.7973,3.7973,3.7502,3.7194,3.7153,3.6669,3.6375,3.6358,3.5672,3.5502,3.6017,3.4783,3.4325,3.4833,3.4309,3.4036,3.4061,0.0,0.0,0.0,0.0,0.0,0.0,0.0,0.0,0.0,0.0,0.0,0.0,0.0,0.0,0.0,0.0,0.0,0.0,0.0,0.0,0.0,0.0,3.9426,3.9429,3.9642,4.0038,4.0626,4.1907,4.275,4.275,4.3794,4.4582,4.4802,4.5059,4.5297,4.5517,4.6324,4.6764,4.6727,4.7314,4.7588,4.7569,4.777,4.7899,4.7956,4.8176,4.8267,4.8306,4.8306,4.8196,4.7957,4.7957,4.7847,4.7645,4.7607,4.7607,4.7478,4.6136,4.5432,4.518,4.4867,4.4389,4.3828,4.3501,4.3313,4.323,4.323,4.3166,4.3081,4.3042,4.2955,4.289,4.2864,4.2637,4.2416,4.2597,4.2423,4.2218,4.24,4.2469,4.2469,4.2469,4.2469,4.2469,4.2469,4.2001,4.1285,4.0034,3.9798,3.9749,3.9644,3.9644,0.0,3.9503,3.9503,3.9503,3.9503,3.9362,3.9042,3.8521,3.8329,3.802,3.7501,3.7259,3.7044,3.6804,3.6302,3.5817,3.5379,3.484,3.4833,0.0,0.0,0.0,0.0,0.0,0.0,0.0,0.0,0.0,0.0,0.0,0.0,0.0,0.0,0.0,0.0,0.0,0.0,0.0,0.0,0.0,0.0,4.0366,4.0571,4.1249,4.1372,4.157,4.2047,4.3534,4.4507,4.4507,4.5351,4.6049,4.6379,4.6416,4.6562,4.6893,4.77,4.8159,4.8159,4.893,4.9352,4.9352,4.9352,4.9352,4.9352,4.9352,4.9352,4.9352,4.9352,4.9352,4.9352,4.9352,4.9352,4.9334,4.8985,4.8838,0.0,0.0,0.0,0.0,0.0,4.5707,4.5493,4.5247,4.5138,4.5138,4.5138,4.5037,4.4892,4.4892,4.4767,4.4557,4.4361,4.411,4.3851,4.3674,4.3402,4.3189,4.3189,4.3189,4.3189,4.3189,4.3189,4.3189,4.3189,4.3131,0.0,4.1795,4.1542,4.1459,4.1358,4.1358,4.1333,4.124,4.124,4.124,4.124,4.0934,4.056,4.0135,3.9829,0.0,0.0,0.0,3.8258,3.7631,3.7489,0.0,0.0,0.0,3.5948,3.6321,3.5411,0.0,0.0,3.4062,3.371,0.0,0.0,0.0,0.0,0.0,0.0,0.0,0.0,0.0,0.0,0.0,0.0,0.0,0.0,0.0,0.0,4.1403,4.1971,4.3569,4.3881,4.3899,4.379,4.5112,4.6049,4.6049,4.6122,4.6507,4.7314,4.7369,4.7718,4.8545,0.0,0.0,0.0,0.0,5.0802,5.0802,5.0802,5.0802,5.0802,5.0802,5.0802,5.0802,5.0802,5.0802,5.0802,5.0802,5.0802,5.0747,5.0013,4.9739,4.9647,4.8673,4.8306,4.8214,4.7498,4.7241,4.7131,4.6416,0.0,0.0,4.6177,4.5935,4.5626,4.5566,4.5284,4.4846,4.4375,4.4208,4.4061,4.3655,4.3498,4.3448,4.3448,4.3448,4.3448,4.3448,4.3448,4.3448,4.3448,4.3448,4.3448,4.3448,4.3108,4.2843,4.2817,4.2817,4.2817,4.2791,4.2791,4.2791,4.2791,0.0,0.0,4.174,4.1142,4.0715,4.0629,3.9929,3.9194,3.8459,3.8401,3.8367,3.8305,3.7598,3.724,3.7262,3.66,3.6275,3.6258,3.5055,3.4479,0.0,0.0,0.0,0.0,0.0,0.0,0.0,0.0,0.0,0.0,0.0,0.0,0.0,0.0,0.0,4.3017,4.3273,4.3845,4.5451,4.6226,4.6339,4.5516,4.6287,4.6856,4.6856,4.7443,4.8196,4.906,4.9114,4.9462,5.027,5.049,5.0563,5.0563,5.0729,5.0802,5.0802,5.0802,5.0802,5.0802,0.0,0.0,5.0802,5.0802,5.0802,5.0802,5.0802,5.0802,5.0784,5.0637,5.0563,5.0417,4.8893,4.8306,4.8288,4.8141,4.8086,4.8049,4.7902,4.7847,4.7847,4.7847,4.7772,4.7656,4.7261,4.7096,0.0,4.6444,4.6047,4.573,4.5649,4.5292,4.4966,4.4966,4.4966,4.4966,4.4966,4.4966,4.4966,4.4966,4.4966,4.4966,4.4966,4.3949,4.3081,4.298,4.2954,4.2903,4.2817,4.2791,4.2791,4.2791,4.2655,4.2578,4.2578,4.2458,4.2082,4.1433,4.0698,3.9963,3.9228,3.9194,3.892,3.8299,3.8145,3.8071,3.8151,3.7997,3.7995,3.8045,3.5998,3.5058,0.0,0.0,0.0,0.0,0.0,0.0,0.0,0.0,0.0,0.0,0.0,4.0822,0.0,0.0,4.2922,4.4192,4.4744,4.5428,4.6629,4.7147,4.7203,4.6708,4.7353,4.8016,4.8458,4.8863,4.9452,5.0281,5.0336,5.0521,5.0944,5.133,5.1551,5.1551,5.1937,5.214,5.214,5.214,5.212,5.2059,5.2059,5.2059,5.2059,5.2059,5.2079,5.214,5.214,5.2099,5.2022,5.1575,5.1151,5.0729,4.9884,4.9554,4.9554,4.9554,4.9554,4.9554,4.9554,4.9554,4.9554,4.9554,4.9554,4.9515,4.9277,4.9216,4.9094,4.859,4.8281,4.7998,4.7477,4.6887,4.6343,4.6063,4.569,4.5397,4.5397,4.5397,4.5397,4.5397,4.5397,4.5397,4.5397,4.4803,4.4277,4.4199,4.4199,4.4173,4.4095,4.4095,4.4095,4.4095,4.3752,4.3555,4.3555,4.3211,4.2833,4.2421,4.1683,4.1099,4.0721,4.036,3.9982,3.9604,3.9209,3.9026,3.9061,3.8682,3.8532,3.856,3.7433,3.6894,0.0,0.0,0.0,0.0,0.0,0.0,0.0,0.0,4.1381,4.1461,4.1604,4.1986,4.2931,4.3742,4.4556,4.5388,4.6072,4.6774,4.7587,4.7828,4.792,4.792,4.8476,4.9196,5.0046,5.012,5.0453,5.1265,5.1321,5.1395,5.1561,5.2189,5.252,5.252,5.3148,5.3499,5.3499,5.3499,5.3459,5.3339,5.3339,5.3339,5.3339,5.3339,5.34,5.3499,5.3499,5.344,5.3283,5.2555,5.1871,5.1281,5.1261,5.1279,5.1242,5.093,5.0802,5.0802,5.0802,5.0802,5.0802,5.0802,5.0802,5.0782,5.0682,5.0643,5.0522,4.9892,4.9717,4.9493,4.8571,4.7901,4.7334,4.6928,4.631,4.5845,4.5845,4.5845,4.5845,4.5845,4.5845,4.5845,4.5845,4.5845,4.5742,4.5449,4.5397,4.5397,4.5397,4.5397,4.5397,4.5397,4.4872,4.4492,4.4492,4.3845,4.3414,4.3414,4.2672,4.224,4.224,4.1671,4.1274,4.1119,4.0474,4.0077,3.9922,3.9336,3.9065,3.9065,3.9065,3.8893,4.3515,4.3515,4.3515,4.3515,4.3441,4.3201,0.0,0.0,4.2288,4.2421,4.301,4.3781,4.4661,4.5473,4.6322,4.7259,4.7463,4.7816,4.8614,4.9357,4.9802,4.9802,4.9769,5.0065,5.0878,5.097,5.1302,5.2096,5.217,5.2465,5.3185,5.3315,5.337,5.337,5.3444,5.3499,5.3499,5.3499,5.3499,5.3479,5.3479,5.3479,5.3479,5.3479,5.3499,5.3499,5.3499,5.3499,5.3461,5.3247,5.3095,5.3001,5.2934,5.2928,5.2766,5.1334,5.0802,5.0802,5.0802,5.0802,5.0802,5.0802,5.0802,5.0703,5.0216,5.009,4.9874,4.8954,4.8673,4.852,4.7956,4.7731,4.7634,4.7596,4.75,4.7431,4.7431,4.7431,4.7431,4.7431,4.7431,4.7431,4.7431,4.7431,4.6965,4.5604,4.5397,4.5397,4.5397,4.5397,4.5397,4.5397,4.5328,4.5276,4.5276,4.4596,4.4173,4.4173,4.3483,4.3069,4.3069,4.2982,4.262,4.1895,4.1809,4.1429,4.0774,4.0687,4.0653,4.0653,4.0653,3.9911,4.3515,4.3513,4.3548,0.0,4.3617,4.3594,4.3295,4.3588,4.3954,4.4036,4.4681,4.5399,4.5834,4.6574,4.7242,0.0,4.8519,4.9262,4.9559,5.032,5.1026,5.1509,5.151,5.1602,5.1936,5.1973,5.2307,5.3103,5.3159,5.3307,5.3659,5.3659,5.3659,5.3659,5.3659,5.3659,5.3659,5.3659,5.3658,5.3616,5.3616,5.3616,5.3616,5.3616,5.3637,5.3678,5.3637,5.3616,5.3616,5.3479,5.342,5.34,5.3295,5.3254,5.318,5.2456,5.2215,5.2215,5.2215,5.2215,5.2215,5.2215,5.199,5.1759,5.1846,5.1635,5.1307,5.0886,5.0766,5.057,4.9704,4.9147,4.8717,4.8394,4.8241,4.8074,4.7755,4.7956,4.8074,4.7755,4.7689,4.7689,4.7689,4.7689,4.7465,4.6828,4.6724,4.6724,4.6724,4.6345,4.5914,4.5449,4.5397,4.5397,4.5397,4.513,4.4941,4.4941,4.4259,4.3845,4.3845,4.3431,4.3034,4.2706,4.2706,4.2551,4.224,4.224,4.224,4.2223,4.1774,4.1205,4.3583,0.0,0.0,4.3927,4.4068,4.4192,4.4428,4.4946,4.5386,4.5469,4.6135,4.6741,4.6906,4.7609,4.8168,4.8168,4.9379,5.0259,5.0116,5.1045,5.1955,5.2531,5.281,5.294,5.294,5.294,5.3181,5.3775,5.3813,5.3813,5.3813,5.3813,5.3813,5.3813,5.3813,5.3813,5.3813,5.3813,5.3793,5.3734,5.3734,5.3734,5.3734,5.3734,5.3754,5.3813,5.3735,5.3734,5.3715,5.3598,5.3558,5.3539,5.34,5.3359,5.3339,5.3272,5.3227,5.3185,5.3185,5.3185,5.3185,5.3185,5.2934,5.2676,5.3082,5.2934,5.2586,5.2431,5.2408,5.2155,5.1079,5.0382,4.9782,4.9273,4.9035,4.8808,4.8422,4.8635,4.8808,4.8422,4.8338,4.8338,4.8338,4.8338,4.8338,4.8338,4.8338,4.82,4.7741,4.7224,4.67,4.6086,4.6035,4.5949,4.5742,4.5725,4.5638,4.5414,4.4906,4.4596,4.4596,4.4104,4.3724,4.35,4.35,4.3396,4.3189,4.3189,4.3189,4.3189,4.2603,4.2344,0.0,0.0,4.3989,4.4747,4.4967,4.5169,4.603,4.6249,4.6303,4.644,4.7107,4.7746,4.8006,4.8761,4.9346,4.9346,5.0059,5.0455,5.0151,5.1528,5.2568,5.2605,5.3292,5.3775,0.0,5.3775,5.3775,5.3813,5.3813,5.3813,5.3813,5.3813,5.3813,5.3813,5.3813,5.3813,5.3813,5.3813,5.3813,5.3793,5.3793,5.3793,5.3793,5.3793,5.3813,5.3813,5.3813,5.3793,5.3793,5.3734,5.3675,5.3675,5.3558,5.3499,5.3479,5.3359,5.3254,5.3185,5.3185,5.3185,5.3185,5.3185,5.3185,5.3185,5.3185,5.3185,5.306,5.254,5.2408,5.2155,5.1079,5.0785,5.0622,5.0086,4.9942,4.9971,4.9942,4.9924,4.9971,4.9942,4.9942,4.9942,4.9942,4.9942,4.9942,4.9942,4.9942,4.939,4.7879,4.7672,4.7655,4.762,4.762,4.7327,4.6631,4.6562,4.6224,4.5449,4.538,4.5363,4.5363,4.5345,4.501,4.4276,4.4276,4.3914,4.3189,4.3189,4.3189,4.3189,4.3172,4.3155,0.0,0.0,4.4848,4.5662,4.5934,4.6059,4.637,4.6852,4.7289,4.751,4.8073,4.8648,4.915,4.9307,4.9399,4.9399,5.0525,5.1295,5.1006,5.2382,5.3404,5.3404,5.3645,0.0,0.0,0.0,0.0,5.3813,5.3813,5.3813,5.3813,5.3813,5.3813,5.3813,5.3813,5.3813,5.3813,5.3813,5.3813,5.3813,5.3813,5.3813,5.3813,5.3813,5.3813,5.3813,5.3813,5.3813,5.3813,5.3793,5.3774,5.3754,5.3657,5.3636,5.3616,5.3479,5.3418,5.3396,5.3248,5.3185,5.3185,5.3185,5.2955,5.2739,5.3082,5.2955,5.2631,5.2454,5.2132,5.1701,5.0991,5.0537,5.0235,5.0051,5.0274,5.0425,5.008,5.0274,5.0443,5.008,5.0011,5.0011,5.0011,5.0011,5.0011,5.0011,5.0011,4.9631,4.8568,4.843,4.8241,4.7741,4.7689,4.7586,4.7345,4.731,4.7,4.6224,4.619,4.5949,4.5414,4.5397,4.5276,4.5044,4.5044,4.4923,4.4665,4.4665,4.4665,4.4665,4.4173,4.3931,0.0,4.5421,4.5938,4.6741,4.709,4.7323,4.7604,4.8091,4.8493,4.8667,4.8964,4.937,4.9851,4.9803,4.9684,4.9684,5.096,5.185,5.1573,5.2847,5.3813,5.3813,5.3813,5.3813,0.0,0.0,0.0,5.3813,5.3813,5.3813,5.3813,5.3813,5.3813,5.3813,5.3813,5.3813,5.3813,5.3813,5.3813,5.3813,5.3813,5.3813,5.3813,5.3813,5.3813,5.3813,5.3813,5.3813,5.3813,5.3813,5.3813,5.3793,5.3754,5.3734,5.3716,5.3617,5.3578,5.3558,5.3375,5.3314,5.3293,5.3251,5.3045,5.2831,5.2955,5.2721,5.2412,5.2273,5.197,5.1551,5.0999,5.0657,5.0359,5.012,5.0387,5.0547,5.0206,5.0397,5.0564,5.0206,5.012,5.012,5.012,5.0109,5.008,5.008,5.0022,4.9821,4.9292,4.9252,4.9034,4.8551,4.8528,4.8424,4.8103,4.8086,4.7758,4.7044,4.6993,4.6741,4.6242,4.5966,4.5828,4.5828,4.5552,4.5397,4.5397,4.5397,4.5397,4.538,4.4906,4.4682,4.5398,4.6187,4.7158,4.795,4.8423,4.8863,4.9627,4.9803,4.9798,4.983,4.9817,4.9897,0.0,0.0,5.0195,5.0195,5.133,5.2122,5.1853,5.2973,5.3832,0.0,0.0,0.0,0.0,0.0,0.0,5.3813,0.0,5.3813,5.3813,5.3813,5.3813,5.3813,5.3813,5.3813,5.3813,5.3813,5.3813,5.3813,5.3813,5.3813,5.3813,5.3813,5.3813,5.3813,5.3813,5.3813,5.3813,5.3813,5.3813,5.3813,5.3813,5.3813,5.3793,5.3734,5.3714,5.3675,5.3559,5.3499,5.3459,5.3359,5.338,5.3359,5.2769,5.2576,5.2472,5.2114,5.1922,5.1708,5.1192,5.114,5.1079,5.0436,5.0397,5.0481,5.0481,5.0481,5.0481,5.0471,5.0425,5.0425,5.0397,5.0331,5.0246,5.0217,5.0092,5.0011,5.0011,5.0011,5.0011,5.0011,5.0011,4.97,4.8913,4.8844,4.8534,4.7793,4.7741,4.7724,4.7689,4.7044,4.6665,4.6665,4.5897,4.55,4.5466,4.5466,4.5432,4.5397,4.5397,4.5397,4.6754,4.7442,4.8007,4.887,4.9277,4.9551,4.9746,4.9803,4.987,5.0062,4.993,4.9962,0.0,0.0,0.0,5.0195,5.133,0.0,5.1853,5.3162,0.0,5.4159,0.0,5.4159,5.4159,5.3944,0.0,0.0,5.3813,5.3813,5.3813,5.3813,5.3813,5.3813,5.3813,5.3813,5.3813,5.3813,5.3813,5.3813,5.3813,5.3813,5.3813,5.3813,5.3813,5.3813,5.3813,5.3813,5.3813,5.3813,5.3813,5.3813,5.3813,5.3813,5.3813,5.3774,5.3774,5.3755,5.3736,5.34,5.3023,5.3339,5.3235,5.2959,5.2806,5.2984,5.3054,5.2232,5.2214,5.2358,5.1855,5.1739,5.1679,5.1512,5.1487,5.1512,5.1512,5.1512,5.1404,5.1061,5.0991,5.0857,5.0453,5.0694,5.0803,5.0397,5.0331,5.0235,5.004,5.0011,5.0011,5.0011,5.0011,4.9924,4.9717,4.97,4.9344,4.8568,4.8517,4.8258,4.7707,4.7527,4.7414,4.7414,4.7207,4.6828,4.6276,4.6276,4.5983,4.5397,4.5502,4.5554,4.7367,4.8262,4.8965,4.9456,4.9889,5.019,5.019,5.019,5.0245,5.0399,5.0302,0.0,5.0643,0.0,0.0,0.0,0.0,0.0,5.2199,5.3408,5.4347,0.0,5.438,0.0,5.4315,5.4,5.3813,0.0,5.3813,5.3813,5.3813,5.3813,5.3813,5.3813,5.3813,5.3813,5.3813,5.3813,5.3813,5.3813,5.3813,5.3813,5.3813,5.3813,5.3813,5.3813,0.0,5.3813,5.3813,5.3813,5.3813,5.3813,5.3813,5.3813,5.3813,5.3813,5.3813,5.3813,5.3813,5.3422,5.3005,5.3439,5.3439,5.3175,5.2922,5.303,5.3075,5.2353,5.2125,5.2078,5.1824,5.1583,5.1439,5.1345,5.1414,5.1457,5.1457,5.1457,5.1381,5.1114,5.1061,5.1035,5.0937,5.1131,5.127,5.1174,5.1096,5.0999,5.0858,5.0464,5.0195,5.0195,5.0195,5.0263,5.0425,5.0217,4.9959,4.9688,4.9463,4.9148,4.8734,4.8361,4.8172,4.8172,4.7844,4.7482,4.7096,4.7133,4.6919,4.6487,4.63,4.6196,4.7608,4.8814,4.9803,4.9803,5.0256,5.0712,5.0712,5.0712,5.0673,5.0558,0.0,5.0654,5.0558,5.0616,5.0712,5.0712,0.0,5.236,5.266,5.3712,5.4544,5.4836,5.4576,5.4382,5.4382,5.4017,5.3813,5.3813,5.3813,5.3813,5.3813,5.3813,5.3813,5.3813,5.3813,5.3813,5.3813,5.3813,5.3813,5.3813,5.3813,5.3813,5.3813,5.3813,5.3813,5.3813,5.3813,5.3813,5.3813,5.3813,5.3813,5.3813,5.3813,5.3813,5.3813,5.3813,5.3813,5.3813,5.3813,5.3484,5.3159,5.3578,5.3716,5.3601,5.2993,5.2886,5.2802,5.2271,5.1819,5.1508,5.1432,5.1254,5.1052,5.0866,5.0955,5.1097,5.1097,5.1043,5.1008,5.1008,5.1043,5.1211,5.1543,5.1608,5.1739,5.2089,5.2024,5.1958,5.1958,5.1122,5.0509,5.0509,5.0509,5.0657,5.0999,5.0667,5.0585,5.092,5.0453,5.0149,5.012,4.9424,4.9004,4.9004,4.8366,4.8014,4.791,4.8031,4.8043,4.7922,4.7413,4.7178,4.8296,4.923,4.9803,4.9803,5.0256,5.0712,5.0712,5.0712,0.0,0.0,5.0212,5.0481,4.976,5.0212,5.0712,5.0712,0.0,0.0,0.0,0.0,5.5151,0.0,0.0,0.0,0.0,0.0,0.0,0.0,5.3813,5.3813,5.3813,5.3813,5.3813,5.3813,5.3813,5.3813,5.3813,5.3813,5.3813,5.3813,5.3813,5.3813,5.3813,5.3813,5.3813,5.3813,5.3813,0.0,5.3813,5.3813,5.3813,5.3813,5.3813,5.3813,5.3813,5.3813,5.3813,5.3813,5.3813,5.3484,5.318,5.3639,5.3522,5.312,5.2567,5.2718,5.2799,5.151,5.1633,5.2042,5.1676,5.1813,5.2042,5.2,5.2042,5.206,5.206,5.1757,5.1467,5.1467,5.1788,5.1964,5.1651,5.2284,5.2674,5.2322,5.2253,5.2235,5.2235,5.154,5.1052,5.1052,5.1052,5.1079,5.1158,5.1447,5.1636,5.171,5.1252,5.092,5.076,5.0335,5.0066,4.997,4.9944,4.9618,4.901,4.9065,4.8717,4.8074,4.8067,4.805,4.8681,4.948,4.9825,4.9968,5.0366,5.0712,5.0712,0.0,0.0,0.0,4.9375,4.9356,4.9394,0.0,0.0,0.0,0.0,0.0,0.0,0.0,0.0,0.0,0.0,0.0,0.0,0.0,5.3926,5.3907,5.3888,5.387,5.3794,5.3813,5.3813,5.3813,5.3813,5.3813,5.3813,5.3813,5.3813,5.3813,5.3813,5.3813,5.3813,5.3813,5.3813,5.3813,5.3813,5.3813,5.3813,5.3813,5.3813,5.3813,5.3813,5.3813,5.3813,5.3813,5.3813,5.3774,5.3522,5.3444,5.3424,5.3122,5.2871,5.2634,5.2391,5.2481,5.254,5.1831,5.1782,5.1886,5.1651,5.1576,5.1576,5.1576,5.1576,5.1576,5.1576,5.1391,5.1237,5.1237,5.1416,5.1658,5.1934,5.2363,5.2784,5.3041,5.3081,5.3081,5.3081,5.2563,5.2078,5.1795,5.177,5.1843,5.2078,5.2042,5.2094,5.2304,5.185,5.153,5.1419,5.1017,5.0776,5.0721,5.0776,5.0627,5.0303,5.0365,5.018,4.9793,4.9267,4.9013,4.872,4.9533,4.9949,5.0147,5.0442,5.0654,5.0462,4.9894,0.0,0.0,4.8471,4.8317,4.899,0.0,4.9683,0.0,5.1738,0.0,0.0,0.0,0.0,0.0,0.0,0.0,0.0,0.0,0.0,5.4037,5.4,5.3944,5.3813,5.3813,5.3813,5.3813,5.3813,5.3813,5.3813,5.3813,5.3813,5.3813,5.3813,5.3813,5.3813,5.3813,5.3813,5.3813,5.3813,5.3813,5.3813,5.3813,5.3813,5.3813,5.3813,5.3813,5.3813,5.3813,5.3813,5.3737,5.3383,5.3345,5.3346,5.2549,5.2391,5.2436,5.2206,5.2136,5.2112,5.2036,5.1732,5.146,5.146,5.1184,5.0891,5.0891,5.0891,5.0891,5.0891,5.0891,5.0891,5.0891,5.0981,5.1305,5.2159,5.2391,5.2766,5.366,5.3813,5.3813,5.3813,5.3482,5.3099,5.2678,5.2526,5.2589,5.2929,5.2652,5.2611,5.2932,5.2459,5.2141,5.2118,5.1672,5.1432,5.1381,5.1406,5.1432,5.1432,5.1558,5.159,5.1572,5.0657,5.0256,4.8266,4.9372,5.0171,5.0195,5.0442,5.05,4.9702,0.0,0.0,4.7451,4.7663,4.8125,4.8202,4.8875,0.0,0.0,0.0,5.2268,0.0,0.0,0.0,0.0,0.0,0.0,0.0,5.4446,5.4091,5.4091,5.4019,5.3944,5.3813,5.3813,5.3813,5.3813,5.3813,5.3813,5.3813,5.3813,5.3813,5.3813,5.3813,5.3813,5.3813,5.3813,5.3813,5.3813,5.3813,5.3813,0.0,5.3813,5.3813,5.3813,5.3813,5.3813,5.3813,5.3813,5.3813,5.3775,5.3737,5.3164,5.2436,5.2345,5.2634,5.2864,5.1952,5.1676,5.1594,5.1158,5.1008,5.0954,5.0954,5.0945,5.0891,5.0891,5.0891,5.0891,5.0891,5.0891,5.0891,5.0891,5.1245,5.1701,5.2206,5.27,5.3201,5.3717,5.3813,5.3813,5.3813,5.3756,5.3717,5.366,5.3283,5.3036,5.3096,5.3424,5.366,5.3698,5.3263,5.295,5.2802,5.2431,5.2136,5.2018,5.2136,5.2206,5.2206,5.2206,5.2229,5.2211,5.2092,5.2056,4.7681,4.8338,4.872,4.8898,4.9038,4.9048,4.8702,0.0,4.7721,4.7038,4.674,4.6759,4.7278,4.8067,4.8894,0.0,0.0,0.0,0.0,0.0,0.0,0.0,0.0,0.0,0.0,0.0,5.4434,5.4235,5.4074,5.3982,5.3926,5.3851,5.3813,5.3813,5.3813,5.3813,5.3813,5.3813,5.3813,5.3813,5.3813,5.3813,5.3813,5.3813,5.3813,5.3813,5.3813,5.3813,0.0,5.3813,5.3813,5.3813,5.3813,5.3813,5.3813,5.3813,5.3813,5.3717,5.3122,5.2849,5.263,5.1732,5.1782,5.2072,5.1401,5.1184,5.1132,5.0954,5.0891,5.0891,5.0891,5.0891,5.0891,5.0891,5.0891,5.0891,5.0891,5.0891,5.0891,5.0891,5.1043,5.1331,5.1806,5.2294,5.2784,5.3304,5.3621,5.3813,5.3813,5.3813,5.3813,5.3813,5.3621,5.3522,5.3522,5.3698,5.3813,5.3813,5.3621,5.3502,5.3444,5.3036,5.2762,5.2696,5.2762,5.2784,5.2784,5.2784,5.2784,5.2762,5.2436,5.2281,4.7177,4.7637,4.7851,4.8049,4.8105,4.8048,0.0,0.0,4.6836,4.6567,4.6028,4.5883,4.674,4.7567,4.8394,0.0,0.0,5.1934,5.3069,0.0,0.0,0.0,0.0,5.5473,0.0,5.499,5.4661,5.4343,5.4165,5.4074,5.4,5.3926,5.3832,5.3813,5.3813,5.3813,5.3813,5.3813,5.3813,5.3813,5.3813,5.3813,5.3813,5.3813,5.3813,5.3813,5.3813,5.3813,0.0,5.3813,5.3813,5.3813,5.3813,5.3813,5.3813,5.3813,5.3717,5.3484,5.2766,5.2585,5.249,5.1434,5.1331,5.1543,5.1211,5.1008,5.0891,5.0891,5.0891,5.0891,5.0891,5.0891,5.0891,5.0891,5.0891,5.0891,5.0891,5.0891,5.0891,5.0891,5.0891,5.1043,5.1518,5.1988,5.2481,5.3014,5.3502,5.3813,5.3813,5.3813,5.3813,5.3813,5.3813,5.3813,5.3813,5.3813,5.3813,5.3813,5.3813,5.3813,5.3813,5.3464,5.3322,5.3322,5.3322,5.3322,5.3322,5.3322,5.3322,5.3302,5.2914,5.2744,4.6839,4.7481,4.8096,4.8105,4.8105,4.7894,0.0,0.0,4.6663,4.5787,4.5614,4.5883,4.674,4.7567,4.8394,0.0,0.0,0.0,5.3051,0.0,0.0,0.0,0.0,5.5599,5.5596,5.5121,5.4661,5.4343,5.4308,0.0,5.4019,5.4,5.3944,5.3794,5.3813,5.3813,5.3813,5.3813,5.3813,5.3813,5.3813,5.3813,5.3813,5.3813,5.3813,5.3813,5.3813,5.3813,0.0,5.3813,5.3813,5.3813,5.3813,5.3813,5.3813,5.3813,5.3522,5.3117,5.3096,5.2445,5.1601,5.1594,5.1594,5.1601,5.1576,5.1271,5.0891,5.0891,5.0891,5.0891,5.0891,5.0891,5.0891,5.0891,5.0891,5.0891,5.0891,5.0891,5.0891,5.0891,5.0891,5.1043,5.1518,5.1988,5.2481,5.3014,5.3502,5.3813,5.3813,5.3813,5.3813,5.3813,5.3813,5.3813,5.3813,5.3813,5.3813,5.3813,5.3813,5.3813,5.3813,5.3813,5.3775,5.3775,5.3775,5.3775,5.3775,5.3775,5.3775,5.3775,5.3793,5.3775,4.5945,4.6201,4.6394,4.6394,4.6394,4.6317,4.6067,0.0,4.5932,4.5671,4.5594,4.5691,4.5951,4.7199,4.8256,0.0,0.0,0.0,0.0,0.0,0.0,5.5777,5.5767,5.553,0.0,0.0,5.4673,5.4392,5.4324,5.4254,5.4201,5.4074,5.3944,5.3794,5.3813,5.3813,5.3813,5.3813,5.3813,5.3813,5.3813,5.3813,5.3813,5.3813,5.3813,5.3813,5.3813,5.3813,5.3813,5.3813,5.3813,5.3813,5.3813,5.3813,5.3813,5.3813,5.3717,5.3542,5.3201,5.2652,5.2083,5.2083,5.1861,5.1651,5.1964,5.1964,5.1788,5.1467,5.1626,5.1708,5.107,5.1149,5.1297,5.0981,5.0891,5.0891,5.0891,5.0891,5.0891,5.0891,5.0891,5.0945,5.1097,5.1518,5.1982,5.2477,5.2996,5.3444,5.3756,5.3813,5.3813,5.3813,5.3813,5.3813,5.3813,5.3813,5.3813,5.3813,5.3292,5.2977,5.2977,5.2457,5.2159,5.2159,5.2698,5.2977,5.2977,5.3534,5.3813,5.3813,5.3813,5.3813,0.0,4.5344,4.5594,4.5594,4.5594,0.0,0.0,0.0,4.5594,4.5594,4.5594,4.5594,4.5594,4.7024,4.8206,4.8206,0.0,0.0,0.0,0.0,0.0,5.5785,0.0,0.0,0.0,5.5053,5.4806,5.4424,5.4357,5.4324,5.4308,5.4128,5.3982,5.387,5.3832,5.3813,5.3813,5.3813,5.3813,5.3813,5.3813,5.3813,5.3813,5.3813,5.3813,5.3813,5.3813,5.3813,0.0,5.3813,5.3813,5.3813,5.3813,5.3813,5.3813,5.3813,5.3698,5.3484,5.3201,5.274,5.2281,5.2281,5.2247,5.2242,5.2722,5.2593,5.2253,5.1958,5.2065,5.2159,5.1576,5.1651,5.1757,5.1271,5.1305,5.1383,5.1211,5.1305,5.1383,5.1211,5.1158,5.1123,5.0945,5.1297,5.1757,5.2229,5.2762,5.3263,5.3737,5.3813,5.3813,5.3813,5.3813,5.3813,5.3813,5.3534,5.3218,5.2921,5.2419,5.2159,5.2159,5.1676,5.1398,5.1398,5.1881,5.2159,5.2159,5.2661,5.2902,5.2902,5.3218,5.3181,0.0,0.0,0.0,0.0,0.0,0.0,0.0,0.0,0.0,4.5594,4.5594,4.5614,4.5691,4.7062,4.8234,4.8291,0.0,0.0,0.0,5.3569,0.0,0.0,5.6012,0.0,5.5256,5.5205,5.4985,5.4441,5.4409,5.4375,5.4326,5.4181,5.4091,5.4,5.387,5.3813,5.3813,5.3813,5.3813,5.3813,5.3813,5.3813,5.3813,5.3813,5.3813,0.0,5.3813,5.3813,5.3813,5.3813,5.3813,5.3813,5.3813,5.3813,5.3813,5.3813,5.3504,5.3159,5.3159,5.2806,5.2368,5.2368,5.2718,5.3222,5.3678,5.3143,5.2413,5.2368,5.2391,5.2391,5.2322,5.2345,5.2229,5.1757,5.1988,5.2183,5.1732,5.1988,5.2159,5.1732,5.1651,5.1493,5.1017,5.1349,5.1782,5.2183,5.274,5.3261,5.3698,5.3775,5.3813,5.3813,5.3813,5.3775,5.372,5.3032,5.2289,5.1528,5.1361,5.1305,5.1305,5.1249,5.1212,5.1212,5.1286,5.1342,5.1398,5.1398,5.1398,5.1416,5.2178,5.2104,0.0,0.0,0.0,0.0,0.0,0.0,0.0,0.0,0.0,0.0,0.0,4.5806,4.6471,4.7523,4.8489,4.9086,0.0,0.0,5.323,0.0,0.0,5.5954,5.6012,5.5798,5.5256,5.5205,5.4985,5.4441,5.4409,5.4373,5.4375,5.4307,5.42,5.4091,5.4,5.3888,5.3813,5.3813,5.3813,5.3813,5.3813,5.3813,5.3813,5.3813,5.3813,5.3813,5.3813,5.3813,5.3813,5.3813,5.3813,5.3813,5.3813,5.3813,5.3813,5.3813,5.3737,5.3639,5.3639,5.3324,5.291,5.291,5.3242,5.3659,5.3774,5.364,5.3365,5.2996,5.3162,5.3265,5.2504,5.2611,5.2762,5.2271,5.2229,5.2276,5.2159,5.2229,5.2276,5.2159,5.2154,5.1988,5.1518,5.1813,5.206,5.1806,5.2536,5.3138,5.3242,5.3582,5.3813,5.3813,5.3813,5.3553,5.294,5.2717,5.2512,5.2327,5.1119,5.0413,5.0413,4.9819,4.9485,4.9485,5.0098,5.0729,5.1398,5.1398,5.1398,5.1398,5.1584,5.1584,0.0,0.0,0.0,0.0,0.0,0.0,0.0,0.0,0.0,0.0,0.0,0.0,4.6728,4.7664,0.0,0.0,5.0298,0.0,0.0,0.0,5.6012,5.6012,5.6012,5.5798,0.0,5.5205,5.4985,5.4441,5.4409,5.4409,5.4409,5.4342,5.4254,5.4109,5.4019,5.3944,5.3813,5.3813,5.3813,5.3813,5.3813,5.3813,5.3813,5.3813,5.3813,5.3813,5.3813,5.3813,5.3813,5.3813,5.3813,5.3813,5.3813,5.3813,5.3813,5.3813,5.3813,5.3813,5.3813,5.3621,5.3424,5.3424,5.3582,5.3868,5.424,5.4351,5.4219,5.3595,5.3879,5.4236,5.3676,5.4031,5.4428,5.3902,5.3946,5.4074,5.3817,5.3946,5.4052,5.3817,5.348,5.3067,5.2588,5.2407,5.2299,5.2289,5.2736,5.318,5.3383,5.364,5.3813,5.3813,5.3813,5.3627,5.32,5.281,5.2271,5.1509,5.0599,4.993,4.9559,4.9132,4.8909,4.8909,4.9336,4.9782,5.0246,5.0246,5.0246,5.0265,5.0636,5.0618,0.0,0.0,0.0,0.0,0.0,0.0,0.0,0.0,0.0,0.0,0.0,0.0,0.0,4.7871,0.0,0.0,0.0,0.0,5.3459,5.5026,5.6012,5.6012,5.6012,0.0,5.5256,5.5205,5.4985,5.4441,5.4409,5.4409,5.4409,5.4359,5.4272,5.4127,5.4074,5.3963,5.3832,5.3813,5.3813,5.3813,5.3813,5.3813,5.3813,5.3813,5.3813,5.3813,5.3813,0.0,5.3813,5.3813,5.3813,5.3813,5.3813,5.3813,5.3813,5.3813,5.3813,5.3813,5.3813,5.3813,5.3831,5.3943,5.398,5.4147,5.4964,5.5206,5.5057,5.437,5.4686,5.5206,5.5206,5.5763,5.6203,5.5718,5.5963,5.6183,5.5718,5.5983,5.6164,5.5696,5.508,5.4451,5.3986,5.3249,5.2816,5.3133,5.3191,5.3304,5.364,5.3756,5.3813,5.3813,5.3813,5.3813,5.3813,5.3181,5.2122,5.058,5.0376,4.9949,4.9132,4.8964,4.8909,4.8909,4.8909,4.8909,4.8909,4.8909,4.8909,4.8927,4.9596,4.9559,4.0669,4.1431,0.0,0.0,0.0,0.0,0.0,0.0,0.0,0.0,0.0,0.0,0.0,4.882,4.9694,0.0,0.0,5.344,0.0,0.0,5.6012,5.6012,0.0,5.5798,5.5256,5.5205,5.4985,5.4441,5.4409,5.4409,5.4409,5.4392,5.434,5.4272,5.4146,5.4055,5.3963,5.3851,5.3813,5.3813,5.3813,5.3813,5.3813,5.3813,5.3813,5.3813,0.0,5.3813,5.3813,5.3813,5.3813,5.3813,5.3813,5.3813,5.3813,5.3813,5.3813,5.3813,5.3813,5.3813,5.3924,5.4593,5.4834,5.4983,5.5837,5.6097,5.6079,5.5949,5.6004,5.6097,5.6097,5.6209,5.6282,5.6203,5.6243,5.6282,5.6184,5.6243,5.6282,5.6184,5.6071,5.5838,5.5299,5.4873,5.4338,5.3645,5.3621,5.3582,5.3242,5.3562,5.3813,5.3813,5.3813,5.3813,5.3813,5.3701,5.3218,5.2289,5.1584,5.0841,5.0023,4.9299,4.8909,4.8909,4.8909,4.8909,4.8909,4.8909,4.8909,4.8909,4.9039,4.902,4.0496,4.147,4.2701,0.0,0.0,0.0,0.0,0.0,0.0,0.0,0.0,0.0,0.0,0.0,5.0038,5.1377,0.0,5.3807,5.4677,5.549,5.6012,0.0,0.0,5.5798,5.5256,5.5205,5.4985,5.4441,5.4409,5.4409,5.4409,5.4409,5.4375,5.4308,5.4254,5.4146,5.4,5.3944,5.387,5.3813,5.3813,5.3813,5.3813,5.3813,5.3813,5.3813,0.0,5.3813,5.3813,5.3813,5.3813,5.3813,5.3813,5.3813,5.3813,5.3813,5.3813,5.3813,5.3813,5.3813,5.3943,5.4741,5.5001,5.5243,5.6562,5.6952,5.7045,5.7472,5.7286,5.6952,5.6952,5.7268,5.7602,5.7602,5.7602,5.7602,5.7602,5.7602,5.7602,5.7602,5.7249,5.6872,5.6631,5.6107,5.5549,5.5119,5.5114,5.5053,5.4853,5.4605,5.4463,5.4463,5.4073,5.3813,5.3813,5.3813,5.346,5.2661,5.1844,5.1045,5.0228,4.9782,4.9355,4.8909,4.8909,4.8909,4.8909,4.8909,4.8909,4.8909,4.8909,4.8909,4.0496,4.1623,4.2835,0.0,0.0,4.4831,4.5539,0.0,0.0,0.0,0.0,0.0,0.0,4.9331,0.0,5.2221,5.3053,5.3865,5.4929,5.5606,5.6012,5.6012,5.6012,5.5798,5.5256,5.5205,5.4985,5.4441,5.4409,5.4409,5.4409,5.4409,5.4375,5.4324,5.4308,5.4201,5.4019,5.4,5.3926,5.3813,5.3813,5.3813,5.3813,5.3813,5.3813,5.3813,5.3813,5.3813,5.3813,5.3813,5.3813,5.3813,5.3813,5.3813,5.3813,5.3813,5.3813,5.3813,5.3813,5.3924,5.4221,5.5039,5.5447,5.5874,5.7342,5.7788,5.7918,5.8531,5.8271,5.7788,5.7788,5.8252,5.8716,5.8716,5.8716,5.8716,5.8716,5.8716,5.8716,5.8716,5.8215,5.7788,5.7788,5.7119,5.658,5.658,5.6413,5.6302,5.6302,5.5726,5.5299,5.5299,5.476,5.4388,5.4388,5.4203,5.3831,5.32,5.2234,5.1398,5.0785,5.0525,5.0116,4.9503,4.9485,4.9392,4.9187,4.9187,4.9076,4.8909,4.8909,4.8909,4.0496,4.1181,4.2085,4.2893,0.0,0.0,4.5682,4.5695,0.0,0.0,0.0,0.0,0.0,5.026,5.1381,5.3111,5.3459,5.4078,5.5702,0.0,5.6012,5.6012,5.6012,5.5798,5.5256,5.5205,5.4985,5.4441,5.4409,5.4409,5.4409,5.4409,5.4409,5.4392,5.4324,5.4218,5.4091,5.4037,5.3926,5.3813,5.3813,5.3813,5.3813,5.3813,5.3813,5.3813,5.3813,5.3813,5.3813,5.3813,5.3813,5.3813,5.3813,5.3813,5.3813,5.3813,5.3813,5.3813,5.3813,5.4296,5.5076,5.593,5.671,5.749,5.8364,5.8624,5.8642,5.8679,5.8661,5.8624,5.8624,5.8661,5.8716,5.8716,5.8716,5.8716,5.8716,5.8716,5.8716,5.8716,5.8661,5.8624,5.8624,5.7955,5.7416,5.7416,5.6785,5.6302,5.6302,5.6246,5.6209,5.6209,5.6153,5.6116,5.6116,5.5391,5.489,5.4834,5.3367,5.2494,5.2438,5.1714,5.1286,5.1212,5.1212,5.0822,5.0023,5.0023,4.9633,4.8909,4.8909,4.8909,4.0496,4.1532,4.2683,4.3011,0.0,0.0,0.0,0.0,0.0,0.0,0.0,0.0,0.0,0.0,5.2105,5.3304,5.3942,5.4697,5.5838,5.6012,5.6012,5.6012,5.6012,5.5798,5.5256,5.5205,5.4985,5.4441,5.4409,5.4409,5.4409,5.4409,5.4409,5.4409,5.4375,5.4306,5.4236,5.411,5.4019,5.3926,5.3832,5.3813,5.3813,5.3813,5.3813,5.3813,5.3813,5.3813,5.3813,5.3813,5.3813,5.3813,5.3813,5.3813,5.3813,5.3813,5.3813,5.3813,5.3813,5.4333,5.515,5.6023,5.684,5.7658,5.8475,5.8716,5.8716,5.8716,5.8716,5.8716,5.8716,5.8716,5.8716,5.8716,5.8716,5.8716,5.8716,5.8716,5.8716,5.8716,5.8716,5.8716,5.8716,5.8456,5.8252,5.8252,5.7992,5.7788,5.7788,5.736,5.7045,5.7045,5.6599,5.6302,5.6302,5.6004,5.5819,5.5819,5.4258,5.3125,5.2624,5.2308,5.1918,5.1416,5.1398,5.1249,5.0915,5.0915,5.0748,5.045,5.045,5.045,4.0531,4.1794,4.3135,0.0,0.0,0.0,0.0,0.0,0.0,0.0,0.0,0.0,0.0,0.0,0.0,0.0,5.4233,5.5084,5.5896,5.6012,5.6012,5.6012,5.6012,5.5798,5.5256,5.5205,5.4985,5.4441,5.4409,5.4409,5.4409,5.4409,5.4409,5.4409,5.4409,5.4357,5.4308,5.4218,5.411,5.4,5.3907,5.3832,5.3813,5.3813,5.3813,5.3813,5.3813,5.3813,5.3813,5.3813,5.3813,5.3813,5.3813,5.3813,5.3813,5.3813,5.3813,5.3813,5.3813,5.4518,5.5522,5.6116,5.7026,5.7992,5.8531,5.8716,5.8716,5.8716,5.8716,5.8716,5.8716,5.8716,5.8716,5.8716,5.8716,5.8716,5.8716,5.8716,5.8716,5.8716,5.8716,5.8716,5.8716,5.8716,5.8716,5.8716,5.8716,5.8716,5.8716,5.8234,5.7881,5.7881,5.7398,5.7063,5.7063,5.6822,5.6692,5.6692,5.5354,5.4221,5.3385,5.3107,5.2717,5.2178,5.2159,5.2029,5.1788,5.1788,5.1658,5.1398,5.1398,5.1398,4.0607,4.187,0.0,0.0,0.0,0.0,0.0,0.0,0.0,0.0,0.0,5.0898,5.0898,0.0,0.0,5.3362,5.4233,5.5084,5.5896,5.6012,5.6012,5.6012,5.6012,5.5798,5.5256,5.5205,5.4985,5.4441,5.4409,5.4409,5.4409,5.4409,5.4409,5.4409,5.4409,5.4357,5.4308,5.4308,5.4201,5.4,5.4,5.3926,5.3813,5.3813,5.3813,5.3813,5.3813,5.3813,5.3813,5.3813,5.3813,5.3813,5.3813,5.3813,5.3813,5.3813,5.3813,5.3813,5.3813,5.4909,5.6302,5.6302,5.7398,5.8716,5.8716,5.8716,5.8716,5.8716,5.8716,5.8716,5.8716,5.8716,5.8716,5.8716,5.8716,5.8716,5.8716,5.8716,5.8716,5.8716,5.8716,5.8716,5.8716,5.8716,5.8716,5.8716,5.8716,5.8716,5.8716,5.8716,5.8716,5.8716,5.8716,5.8716,5.8716,5.7973,5.7509,5.7509,5.6766,5.593,5.5039,5.424,5.3813,5.3813,5.3813,5.3423,5.2605,5.2605,5.2197,5.1416,5.1416,5.1416,4.0607,0.0,0.0,4.3204,0.0,0.0,0.0,0.0,0.0,0.0,0.0,5.0898,5.0898,0.0,0.0,5.3459,5.4716,5.5741,5.5973,5.6012,5.6012,5.6012,5.6012,5.5798,5.5256,5.5205,5.4985,5.4441,5.4409,5.4409,5.4409,5.4409,5.4409,5.4409,5.4409,5.4392,5.4375,5.4324,5.4273,5.4201,5.4074,5.3926,5.3813,5.3813,5.3813,5.3813,5.3813,5.3813,5.3813,5.3813,5.3813,5.3813,5.3813,5.3813,5.3813,5.3813,5.3813,5.3813,5.3813,5.4909,5.6302,5.6302,5.7398,5.8716,5.8716,5.8716,5.8716,5.8716,5.8716,5.8716,5.8716,5.8716,5.8716,5.8716,5.8716,5.8716,5.8716,5.8716,5.8716,5.8716,5.8716,5.8716,5.8716,5.8716,5.8716,5.8716,5.8716,5.8716,5.8716,5.8716,5.8716,5.8716,5.8716,5.8716,5.8716,5.8494,5.8345,5.8345,5.7602,5.6506,5.5076,5.4779,5.4388,5.3813,5.3813,5.3683,5.3441,5.3441,5.333,5.3088,5.3088,5.3088,4.0631,0.0,0.0,4.3239,4.4529,4.6116,4.7347,0.0,0.0,0.0,0.0,5.0898,5.0898,5.2318,0.0,5.3498,5.4909,5.6012,5.6012,5.6012,5.6012,5.6012,5.6012,5.5798,5.5256,5.5205,5.4985,5.4441,5.4409,5.4409,5.4409,5.4409,5.4409,5.4409,5.4409,5.4409,5.4409,5.4357,5.4324,5.4308,5.411,5.3982,5.3888,5.3832,5.3813,5.3813,5.3813,5.3813,5.3813,5.3813,5.3813,5.3813,5.3813,5.3813,5.3813,5.3813,5.3813,5.3813,5.3813,5.4909,5.6302,5.6302,5.7398,5.8716,5.8716,5.8716,5.8716,5.8716,5.8716,5.8716,5.8716,5.8716,5.8716,5.8716,5.8716,5.8716,5.8716,5.8716,5.8716,5.8716,5.8716,5.8716,5.8716,5.8716,5.8716,5.8716,5.8716,5.8716,5.8716,5.8716,5.8716,5.8716,5.8716,5.8716,5.8716,5.8716,5.8716,5.8716,5.8252,5.7379,5.606,5.5354,5.4779,5.4296,5.3961,5.3813,5.3813,5.3813,5.3813,5.3813,5.3813,5.3813,4.0687,0.0,0.0,4.3305,4.462,0.0,4.8024,4.9068,4.9939,5.0724,0.0,5.0898,5.0898,5.226,5.3401,5.3478,5.4832,5.5915,5.5993,5.6012,5.6012,5.6012,5.5975,5.576,5.5256,5.518,5.4943,5.4441,5.4409,5.4409,5.4409,5.4409,5.4409,5.4409,5.4409,5.4409,5.4409,5.4409,5.4375,5.4308,5.4163,5.4073,5.4,5.387,5.3813,5.3813,5.3813,5.3813,5.3813,5.3813,5.3813,5.3813,5.3813,5.3813,5.3813,5.3813,5.3813,5.3813,5.3813,5.4909,5.6302,5.6302,5.7398,5.8716,5.8716,5.8716,5.8716,5.8716,5.8716,5.8716,5.8716,5.8716,5.8716,5.8716,5.8716,5.8716,5.8716,5.8716,5.8716,5.8716,5.8716,5.8716,5.8716,5.8716,5.8716,5.8716,5.8716,5.8716,5.8716,5.8716,5.8716,5.8716,5.8716,5.8716,5.8716,5.8716,5.8716,5.8716,5.8716,5.8382,5.7639,5.6079,5.5169,5.5001,5.4296,5.3868,5.3813,5.3813,5.3813,5.3813,5.3813,5.3813,0.0,4.1963,0.0,0.0,4.5065,4.7096,4.8159,4.9068,4.9939,5.0724,5.0898,5.0898,5.0898,5.1776,5.2713,5.3382,5.4387,5.5277,5.5915,5.6012,5.6012,5.6012,5.5818,5.5555,5.5231,5.5012,5.4746,5.4424,5.4409,5.4409,5.4409,5.4409,5.4409,5.4409,5.4409,5.4409,5.4409,5.4409,5.4392,5.4375,5.4199,5.4091,5.4055,5.3888,5.3813,5.3813,5.3813,5.3813,5.3813,5.3813,5.3813,5.3813,5.3813,5.3813,5.3813,5.3813,5.3813,5.3813,5.3813,5.4909,5.6302,5.6302,5.7398,5.8716,5.8716,5.8716,5.8716,5.8716,5.8716,5.8716,5.8716,5.8716,5.8716,5.8716,5.8716,5.8716,5.8716,5.8716,5.8716,5.8716,5.8716,5.8716,5.8716,5.8716,5.8716,5.8716,5.8716,5.8716,5.8716,5.8716,5.8716,5.8716,5.8716,5.8716,5.8716,5.8716,5.8716,5.8716,5.8716,5.8624,5.8456,5.749,5.6339,5.5039,5.4834,5.4444,5.3813,5.3813,5.3813,5.3813,5.3813,5.3813,0.0,0.0,0.0,4.4291,0.0,0.0,4.8198,4.9068,4.9939,5.0724,5.0898,5.0898,5.0898,5.1602,5.2345,5.2801,5.3962,5.4948,5.5374,5.576,5.6012,5.6012,5.5884,5.5639,5.5243,5.5061,5.4836,5.4424,5.4409,5.4409,5.4409,5.4409,5.4409,5.4409,5.4409,5.4409,5.4409,5.4409,5.4409,5.4409,5.4198,5.4055,5.3944,5.3851,5.3813,5.3813,5.3813,5.3813,5.3813,5.3813,5.3813,5.3813,5.3813,5.3813,5.3813,5.3813,5.3813,5.3813,5.3813,5.4909,5.6302,5.6302,5.7398,5.8716,5.8716,5.8716,5.8716,5.8716,5.8716,5.8716,5.8716,5.8716,5.8716,5.8716,5.8716,5.8716,5.8716,5.8716,5.8716,5.8716,5.8716,5.8716,5.8716,5.8716,5.8716,5.8716,5.8716,5.8716,5.8716,5.8716,5.8716,5.8716,5.8716,5.8716,5.8716,5.8716,5.8716,5.8716,5.8716,5.8716,5.8716,5.8308,5.749,5.6227,5.541,5.4797,5.437,5.3998,5.3813,5.3813,5.3813,5.3813,0.0,0.0,4.3672,4.52,4.6245,0.0,4.7985,4.8856,4.9707,5.0511,5.0801,5.0898,5.0898,5.1486,5.2008,5.219,5.3401,5.4465,5.4755,5.5374,5.5838,5.5993,5.5912,5.5699,5.5243,5.5115,5.489,5.4441,5.4409,5.4409,5.4409,5.4409,5.4409,5.4409,5.4409,5.4409,5.4409,5.4409,5.4409,5.4409,5.4198,5.4,5.3832,5.3813,5.3813,5.3813,5.3813,5.3813,5.3813,5.3813,5.3813,5.3813,5.3813,5.3813,5.3813,5.3813,5.3813,5.3813,5.3813,5.4909,5.6302,5.6302,5.7398,5.8716,5.8716,5.8716,5.8716,5.8716,5.8716,5.8716,5.8716,5.8716,5.8716,5.8716,5.8716,5.8716,5.8716,5.8716,5.8716,5.8716,5.8716,5.8716,5.8716,5.8716,5.8716,5.8716,5.8716,5.8716,5.8716,5.8716,5.8716,5.8716,5.8716,5.8716,5.8716,5.8716,5.8716,5.8716,5.8716,5.8716,5.8716,5.8716,5.8401,5.7732,5.6209,5.5299,5.5001,5.4333,5.3943,5.3813,5.3813,5.3813,0.0,0.0,4.3537,0.0,4.5374,4.6194,0.0,0.0,4.8817,0.0,5.0415,5.0898,5.0898,5.0995,5.1331,5.2066,5.2403,5.3072,5.4581,5.489,5.5219,5.5915,5.5596,5.5281,5.5205,5.4791,5.4472,5.4409,5.4409,5.4409,5.4409,5.4409,5.4409,5.4409,5.4409,5.4409,5.4409,5.4409,5.4409,5.4409,5.4198,5.4055,5.3963,5.3851,5.3813,5.3813,5.3813,5.3813,5.3813,5.3813,5.3813,5.3813,5.3813,5.3813,5.3813,5.3813,5.3813,5.3813,5.3813,5.4909,5.6302,5.6302,5.7398,5.8716,5.8716,5.8716,5.8716,5.8716,5.8716,5.8716,5.8716,5.8716,5.8716,5.8716,5.8716,5.8716,5.8716,5.8716,5.8716,5.8716,5.8716,5.8716,5.8716,5.8716,5.8716,5.8716,5.8716,5.8716,5.8716,5.8716,5.8716,5.8716,5.8716,5.8716,5.8716,5.8716,5.8716,5.8716,5.8716,5.8716,5.8716,5.8716,5.8661,5.8549,5.7639,5.645,5.5001,5.489,5.4481,5.3813,5.3813,5.3813,4.1319,4.2009,4.2899,0.0,4.4871,4.5471,4.6806,0.0,4.8063,4.9417,4.9977,5.0376,5.0821,5.0898,5.1033,5.1409,5.1873,5.248,5.3246,5.4175,5.4875,5.5085,5.5286,5.5305,5.4998,5.4761,5.4568,5.4407,5.4409,5.4409,5.4409,5.4409,5.4409,5.4409,5.4409,5.4409,5.4409,5.4409,5.4339,5.4234,5.4145,5.4037,5.3888,5.3832,5.3813,5.3813,5.3813,5.3813,5.3813,5.3813,5.3813,5.3813,5.3813,5.3813,5.3813,5.3813,5.3813,5.3813,5.3813,5.4909,5.6302,5.6302,5.7398,5.8716,5.8716,5.8716,5.8716,5.8716,5.8716,5.8716,5.8716,5.8716,5.8716,5.8716,5.8716,5.8716,5.8716,5.8716,5.8716,5.8716,5.8716,5.8716,5.8716,5.8716,5.8716,5.8716,5.8716,5.8716,5.8716,5.8716,5.8716,5.8716,5.8716,5.8716,5.8716,5.8716,5.8716,5.8716,5.8716,5.8716,5.8716,5.8716,5.8716,5.8716,5.7918,5.7138,5.6413,5.5466,5.4834,5.4463,5.4017,5.3813,0.0,0.0,4.2318,4.3614,4.4265,4.4929,0.0,0.0,4.747,0.0,4.9238,4.9625,5.043,5.0751,5.0898,5.0898,5.1447,5.195,5.2171,5.3323,5.4203,5.4377,5.4861,5.5075,5.4813,5.475,5.4613,5.4426,5.4409,5.4409,5.4409,5.4409,5.4409,5.4409,5.4409,5.4409,5.4409,5.4392,5.4306,5.4146,5.411,5.4,5.3851,5.3813,5.3813,5.3813,5.3813,5.3813,5.3813,5.3813,5.3813,5.3813,5.3813,5.3813,5.3813,5.3813,5.3813,5.3813,5.3813,5.4909,5.6302,5.6302,5.7398,5.8716,5.8716,5.8716,5.8716,5.8716,5.8716,5.8716,5.8716,5.8716,5.8716,5.8716,5.8716,5.8716,5.8716,5.8716,5.8716,5.8716,5.8716,5.8716,5.8716,5.8716,5.8716,5.8716,5.8716,5.8716,5.8716,5.8716,5.8716,5.8716,5.8716,5.8624,5.8419,5.8401,5.8308,5.8103,5.8103,5.8103,5.8103,5.8289,5.8401,5.8401,5.8011,5.7713,5.7509,5.6246,5.5429,5.5001,5.4388,5.3998,0.0,4.1409,0.0,4.2106,0.0,0.0,0.0,0.0,4.7149,4.73,4.7939,4.8732,4.9604,5.038,5.0898,5.0898,5.0937,5.1254,5.2066,5.2287,5.285,5.4243,5.4165,5.4198,5.4745,5.4568,5.4426,5.4409,5.4409,5.4409,5.4409,5.4409,5.4409,5.4409,5.4409,5.4409,5.4409,5.4342,5.4308,5.429,5.4111,5.4,5.4,5.3851,5.3813,5.3813,5.3813,5.3813,5.3813,5.3813,5.3813,5.3813,5.3813,5.3813,5.3813,5.3813,5.3813,5.3813,5.3813,5.4909,5.6302,5.6302,5.7398,5.8716,5.8716,5.8716,5.8716,5.8716,5.8716,5.8716,5.8716,5.8716,5.8716,5.8716,5.8716,5.8716,5.8716,5.8716,5.8716,5.8716,5.8716,5.8716,5.8716,5.8716,5.8716,5.8716,5.8716,5.8716,5.8716,5.8716,5.8716,5.8716,5.8716,5.8401,5.7639,5.7565,5.7249,5.6469,5.6413,5.6413,5.6413,5.7156,5.7565,5.7565,5.8271,5.8271,5.7509,5.7416,5.6562,5.5001,5.4964,5.4537,0.0,0.0,0.0,4.1874,4.2899,4.3904,4.4458,4.5511,4.6499,4.7074,4.7424,4.805,4.9437,4.9938,5.029,5.0828,5.0898,5.0963,5.1141,5.1624,5.2038,5.2246,5.3133,5.3713,5.3773,5.4155,5.4409,5.4409,5.4409,5.4409,5.4409,5.4409,5.4409,5.4409,5.4409,5.4409,5.4409,5.4342,5.4254,5.4163,5.4055,5.3944,5.387,5.3832,5.3813,5.3813,5.3813,5.3813,5.3813,5.3813,5.3813,5.3813,5.3813,5.3813,5.3813,5.3813,5.3813,5.3813,5.3813,5.4909,5.6302,5.6302,5.7398,5.8716,5.8716,5.8716,5.8716,5.8716,5.8716,5.8716,5.8716,5.8716,5.8716,5.8716,5.8716,5.8716,5.8716,5.8716,5.8716,5.8716,5.8716,5.8716,5.8716,5.8716,5.8716,5.8716,5.8716,5.8716,5.8716,5.8716,5.8716,5.8716,5.8252,5.7806,5.7528,5.7026,5.6617,5.632,5.6302,5.6302,5.6302,5.658,5.6729,5.6729,5.7528,5.8048,5.8271,5.7751,5.7193,5.658,5.5503,5.4853,0.0,0.0,0.0,0.0,0.0,4.3092,4.3962,4.4834,4.5705,4.6571,4.6765,4.7198,4.8604,4.8849,4.9306,5.0674,5.083,5.0754,5.0625,5.0969,5.1216,5.1114,5.2077,5.2889,5.3182,5.3693,5.4108,5.4371,5.4409,5.4409,5.4409,5.4409,5.4409,5.4409,5.4409,5.4392,5.4357,5.4289,5.4182,5.4073,5.3982,5.3907,5.3813,5.3813,5.3813,5.3813,5.3813,5.3813,5.3813,5.3813,5.3813,5.3813,5.3813,5.3813,5.3813,5.3813,5.3813,5.3813,5.3813,5.4909,5.6302,5.6302,5.7398,5.8716,5.8716,5.8716,5.8716,5.8716,5.8716,5.8716,5.8716,5.8716,5.8716,5.8716,5.8716,5.8716,5.8716,5.8716,5.8716,5.8716,5.8716,5.8716,5.8716,5.8716,5.8716,5.8716,5.8716,5.8716,5.8716,5.8475,5.8308,5.8308,5.7583,5.6989,5.6692,5.6172,5.5763,5.5484,5.5466,5.5466,5.5466,5.5726,5.5874,5.5874,5.6692,5.736,5.7899,5.7899,5.7769,5.7472,5.6357,5.554,0.0,0.0,0.0,0.0,0.0,0.0,4.3073,0.0,4.484,4.5699,4.588,4.6171,4.7035,4.719,4.799,5.0422,5.0678,5.0567,5.0587,5.0361,5.0392,5.0992,5.1064,5.163,5.3031,5.3186,5.3543,5.4334,5.4409,5.4409,5.4409,5.4409,5.4409,5.4409,5.4409,5.4357,5.4308,5.4182,5.4073,5.4,5.3851,5.3813,5.3813,5.3813,5.3813,5.3813,5.3813,5.3813,5.3813,5.3813,5.3813,5.3813,5.3813,5.3813,5.3813,5.3813,5.3813,5.3813,5.3813,5.4909,5.6302,5.6302,5.7398,5.8716,5.8716,5.8716,5.8716,5.8716,5.8716,5.8716,5.8716,5.8716,5.8716,5.8716,5.8716,5.8716,5.8716,5.8716,5.8716,5.8716,5.8716,5.8716,5.8716,5.8716,5.8716,5.8716,5.8716,5.8698,5.8679,5.8011,5.7528,5.7509,5.6803,5.5986,5.515,5.5057,5.4723,5.3924,5.3868,5.3868,5.385,5.4593,5.5001,5.4983,5.5819,5.6265,5.6265,5.7881,5.8271,5.7509,5.7509,5.6617,4.068,0.0,0.0,0.0,0.0,0.0,0.0,0.0,4.4679,4.4899,4.5448,4.6177,4.7042,4.719,4.7622,4.8882,4.9406,4.9797,5.0254,5.0068,4.9931,4.9939,5.0455,5.1196,5.2172,5.2829,5.3543,0.0,5.4409,5.4409,5.4409,5.4409,5.4409,5.4409,5.434,5.4307,5.4308,5.4129,5.4019,5.4,5.3851,5.3813,5.3813,5.3813,5.3813,5.3813,5.3813,5.3813,5.3813,5.3813,5.3813,5.3813,5.3813,5.3813,5.3813,5.3813,5.3813,5.3813,5.3813,5.4909,5.6302,5.6302,5.7398,5.8716,5.8716,5.8716,5.8716,5.8716,5.8716,5.8716,5.8716,5.8716,5.8716,5.8716,5.8716,5.8716,5.8716,5.8716,5.8716,5.8716,5.8716,5.8716,5.8716,5.8716,5.8716,5.8716,5.8716,5.8494,5.7918,5.8159,5.8159,5.7565,5.7305,5.7082,5.684,5.6283,5.5856,5.5614,5.5614,5.5336,5.4704,5.489,5.4741,5.4147,5.4946,5.5373,5.5373,5.7026,5.7732,5.7509,5.7509,5.6952,0.0,0.0,0.0,0.0,0.0,0.0,4.1932,4.2796,4.3718,4.4453,4.4996,4.5628,4.646,4.6559,4.6758,4.7603,4.7857,4.8359,4.9488,4.9662,4.9625,4.9505,4.9903,5.0522,5.1311,5.2156,5.3001,5.3827,5.4202,5.4409,5.4409,5.4409,5.4392,5.4357,5.4307,5.4273,5.4165,5.4056,5.3963,5.3926,5.3832,5.3813,5.3813,5.3813,5.3813,5.3813,5.3813,5.3813,5.3813,5.3813,5.3813,5.3813,5.3813,5.3813,5.3813,5.3813,5.3813,5.3813,5.3813,5.4909,5.6302,5.6302,5.7398,5.8716,5.8716,5.8716,5.8716,5.8716,5.8716,5.8716,5.8716,5.8716,5.8716,5.8716,5.8716,5.8716,5.8716,5.8716,5.8716,5.8716,5.8716,5.8716,5.8716,5.8716,5.8716,5.8716,5.8716,5.8531,5.8066,5.8122,5.8029,5.7565,5.7212,5.7008,5.7008,5.658,5.6302,5.6302,5.6302,5.6079,5.5559,5.554,5.515,5.4333,5.476,5.5001,5.5001,5.6357,5.7008,5.7008,5.7008,5.6562,0.0,0.0,0.0,0.0,0.0,0.0,4.1687,4.1925,4.2447,4.3994,4.4458,4.4813,4.5529,4.5576,4.5748,4.6537,4.6342,4.6752,4.8605,4.9145,4.9396,4.949,4.9509,4.9809,5.0632,5.1349,5.2175,5.313,5.3939,5.4392,5.4392,5.4373,5.434,5.4272,5.4254,5.4183,5.4,5.4,5.3926,5.3813,5.3813,5.3813,5.3813,5.3813,5.3813,5.3813,5.3813,5.3813,5.3813,5.3813,5.3813,5.3813,5.3813,5.3813,5.3813,5.3813,5.3813,5.3813,5.3813,5.4909,5.6302,5.6302,5.7398,5.8716,5.8716,5.8716,5.8716,5.8716,5.8716,5.8716,5.8716,5.8716,5.8716,5.8716,5.8716,5.8716,5.8716,5.8716,5.8716,5.8716,5.8716,5.8716,5.8716,5.8716,5.8716,5.8716,5.8716,5.8679,5.8586,5.8029,5.7602,5.7509,5.6952,5.658,5.658,5.658,5.658,5.658,5.658,5.6525,5.645,5.6432,5.6042,5.5169,5.5057,5.5001,5.5001,5.5782,5.6209,5.6302,5.6302,5.5893,0.0,0.0,0.0,0.0,0.0,0.0,4.0893,4.1499,4.2105,4.2447,4.3614,4.4652,4.4813,4.5202,4.5547,4.5729,4.596,4.6689,4.8422,4.8541,4.8701,4.9415,4.9509,4.9809,5.0632,5.0842,5.1571,5.3092,5.389,5.4307,5.4307,5.4217,5.4145,5.4146,5.4092,5.4037,5.4,5.3888,5.3832,5.3813,5.3813,5.3813,5.3813,5.3813,5.3813,5.3813,5.3813,5.3813,5.3813,5.3813,5.3813,5.3813,5.3813,5.3813,5.3813,5.3813,5.3813,5.3813,5.3813,5.4909,5.6302,5.6302,5.7398,5.8716,5.8716,5.8716,5.8716,5.8716,5.8716,5.8716,5.8716,5.8716,5.8716,5.8716,5.8716,5.8716,5.8716,5.8716,5.8716,5.8716,5.8716,5.8716,5.8716,5.8716,5.8716,5.8716,5.8716,5.8475,5.7825,5.8159,5.8234,5.7583,5.7955,5.8234,5.8234,5.8234,5.8234,5.8234,5.8234,5.7955,5.7286,5.7268,5.6878,5.606,5.5373,5.5001,5.5001,5.5169,5.5614,5.6302,5.6302,5.6209,0.0,0.0,0.0,4.0591,0.0,0.0,0.0,4.0982,4.1433,4.1859,4.2575,4.337,4.4209,4.4403,4.4573,4.4982,4.5142,4.5636,4.6878,4.7728,4.8363,4.8795,4.9246,4.9624,4.9968,5.0384,5.1324,5.2921,5.3767,5.42,5.42,5.4146,5.4073,5.4055,5.4019,5.3963,5.3907,5.3832,5.3813,5.3813,5.3813,5.3813,5.3813,5.3813,5.3813,5.3813,5.3813,5.3813,5.3813,5.3813,5.3813,5.3813,5.3813,5.3813,5.3813,5.3813,5.3813,5.3868,5.4258,5.5243,5.6376,5.6766,5.7732,5.8716,5.8716,5.8716,5.8716,5.8716,5.8716,5.8716,5.8716,5.8716,5.8716,5.8716,5.8716,5.8716,5.8716,5.8716,5.8828,5.9237,5.9229,5.9078,5.8751,5.8716,5.8716,5.8716,5.8716,5.8549,5.8159,5.8456,5.8549,5.8141,5.8475,5.8716,5.8716,5.8716,5.8716,5.8716,5.8716,5.8531,5.8122,5.8103,5.7732,5.6915,5.6079,5.5652,5.5652,5.5224,5.502,5.5057,5.5057,5.5057,0.0,0.0,0.0,0.0,0.0,4.0588,0.0,0.0,0.0,4.1431,4.1555,4.1981,0.0,0.0,0.0,4.4246,0.0,0.0,0.0,4.6555,0.0,4.8127,4.8918,4.9393,4.9292,5.0043,5.1149,5.2539,5.3381,5.3905,5.4073,5.4055,5.4019,5.3963,5.3963,5.3907,5.3813,5.3813,5.3813,5.3813,5.3813,5.3813,5.3813,5.3813,5.3813,5.3813,5.3813,5.3813,5.3813,5.3813,5.3813,5.3813,5.3813,5.3813,5.3813,5.3813,5.3813,5.3924,5.4723,5.5577,5.6432,5.7249,5.8048,5.8716,5.8716,5.8716,5.8716,5.8716,5.8716,5.8716,5.8716,5.8716,5.8716,5.8716,5.8716,5.8716,5.8716,5.8828,5.9123,5.9733,5.9928,5.9773,5.9271,5.916,5.9139,5.9181,5.9181,5.9125,5.8958,5.8939,5.8884,5.8735,5.8716,5.8716,5.8716,5.8716,5.8716,5.8716,5.8716,5.8716,5.8716,5.8716,5.8401,5.7751,5.6952,5.6525,5.6525,5.567,5.4834,5.4035,5.3868,5.3813,0.0,0.0,0.0,0.0,4.0504,0.0,0.0,0.0,4.0283,4.0441,0.0,0.0,0.0,0.0,0.0,0.0,0.0,0.0,4.3384,4.4744,4.6352,4.7844,4.8741,4.923,4.9211,4.9942,5.0802,5.1681,5.2451,5.3199,5.3963,5.3907,5.3832,5.3832,5.3832,5.3813,5.3813,5.3813,5.3813,5.3813,5.3813,5.3813,5.3813,5.3813,5.3813,5.3813,5.3813,5.3813,5.3813,5.3813,5.3813,5.3813,5.3813,5.3813,5.3813,5.3813,5.3813,5.3924,5.4723,5.5577,5.6432,5.7249,5.8048,5.8716,5.8716,5.8716,5.8716,5.8716,5.8716,5.8716,5.8716,5.8716,5.8716,5.8716,5.8716,5.8716,5.8716,5.9274,5.9751,5.9718,6.0326,6.087,6.0905,6.0821,6.0781,6.0905,6.0927,6.0648,5.9847,5.9775,5.9497,5.8791,5.8716,5.8716,5.8716,5.8716,5.8716,5.8716,5.8716,5.8716,5.8716,5.8716,5.8661,5.8586,5.7769,5.736,5.736,5.6562,5.5707,5.4853,5.4128,5.3813,0.0,0.0,0.0,0.0,0.0,0.0,4.1027,0.0,4.0603,0.0,0.0,0.0,0.0,0.0,0.0,0.0,4.3961,0.0,0.0,0.0,4.5839,4.7105,0.0,0.0,4.9113,4.9808,5.0593,5.1431,5.2214,5.2996,5.3832,5.3832,5.3813,5.3813,5.3813,5.3813,5.3813,5.3813,5.3813,5.3813,5.3813,5.3813,5.3813,5.3813,5.3813,5.3813,5.3813,5.3813,5.3813,5.3813,5.3813,5.3813,5.3813,5.3813,5.3813,5.3813,5.411,5.463,5.5466,5.6302,5.7138,5.7936,5.8419,5.8716,5.8716,5.8716,5.8716,5.8716,5.8716,5.8716,5.8716,5.8716,5.8716,5.8716,5.8716,5.8716,5.8716,5.9348,6.0011,6.0385,6.1055,6.1754,6.2281,6.16,6.0993,6.0966,6.1033,6.0762,5.9891,5.978,5.9504,5.877,5.8716,5.8716,5.8716,5.8716,5.8716,5.8716,5.8716,5.8716,5.8716,5.8716,5.8716,5.8716,5.8382,5.8215,5.8196,5.7398,5.6822,5.6432,5.5113,5.45,4.3028,0.0,0.0,0.0,0.0,0.0,0.0,0.0,0.0,0.0,0.0,0.0,0.0,0.0,0.0,0.0,0.0,4.3912,0.0,4.4413,0.0,0.0,0.0,0.0,0.0,4.9482,5.0116,5.0989,5.1806,5.2624,5.3441,5.3683,5.3813,5.3813,5.3813,5.3813,5.3813,5.3813,5.3813,5.3813,5.3813,5.3813,5.3813,5.3813,5.3813,5.3813,5.3813,5.3813,5.3813,5.3813,5.3717,5.3621,5.3737,5.3717,5.3621,5.3756,5.4237,5.4954,5.5946,5.697,5.7936,5.8512,5.8716,5.8716,5.8716,5.8716,5.8716,5.8716,5.8716,5.8716,5.8716,5.8716,5.8716,5.8716,5.8656,5.8709,5.8913,5.9579,6.037,6.1092,6.1791,6.2459,6.2983,6.2234,6.1546,6.1477,6.1546,6.1226,6.0152,6.0004,5.9659,5.8746,5.8635,5.8656,5.8696,5.8716,5.8716,5.8716,5.8716,5.8716,5.8716,5.8716,5.8716,5.8716,5.8716,5.8716,5.8716,5.8122,5.7843,5.7788,5.6134,5.5243,0.0,0.0,0.0,4.2491,0.0,0.0,0.0,0.0,4.1873,0.0,0.0,0.0,0.0,0.0,0.0,0.0,0.0,0.0,0.0,0.0,0.0,0.0,0.0,0.0,0.0,4.8927,4.928,5.0079,5.0952,5.1788,5.2605,5.3385,5.3813,5.3813,5.3813,5.3813,5.3813,5.3813,5.3813,5.3813,5.3813,5.3813,5.3813,5.3813,5.3813,5.3813,5.3813,5.3813,5.3813,5.3813,5.3542,5.3159,5.3621,5.3504,5.318,5.3621,5.4021,5.4506,5.5845,5.7342,5.8679,5.8698,5.8716,5.8716,5.8716,5.8716,5.8716,5.8716,5.8716,5.8716,5.8716,5.8716,5.8716,5.8716,5.8614,5.8714,5.9511,6.0237,6.0955,6.1627,6.2413,6.2941,6.283,6.2892,6.2977,6.3097,6.3139,6.2567,6.0983,6.0761,6.0174,5.8656,5.8511,5.8553,5.8696,5.8716,5.8716,5.8716,5.8716,5.8716,5.8716,5.8716,5.8716,5.8716,5.8716,5.8716,5.8716,5.8679,5.8661,5.8624,5.7008,5.5819,0.0,0.0,4.4209,4.3582,0.0,0.0,0.0,0.0,0.0,0.0,0.0,0.0,0.0,0.0,0.0,0.0,0.0,0.0,0.0,0.0,0.0,0.0,0.0,0.0,0.0,0.0,4.9243,5.0042,5.0915,5.1751,5.2568,5.3367,5.3813,5.3813,5.3813,5.3813,5.3813,5.3813,5.3813,5.3813,5.3813,5.3813,5.3813,5.3813,5.3813,5.3813,5.3813,5.3813,5.3793,5.3464,5.3242,5.3117,5.3263,5.3366,5.3539,5.4317,5.5014,5.578,5.6962,5.7962,5.8574,5.7882,5.8105,5.8553,5.7859,5.7882,5.8172,5.8172,5.8172,5.8257,5.8614,5.8716,5.8716,5.8716,5.8593,5.8733,5.9529,6.0274,6.1011,6.1664,6.245,6.2953,6.2805,6.283,6.288,6.2947,6.3002,6.2688,6.16,6.101,6.0324,5.9397,5.8826,5.8553,5.8696,5.8716,5.8716,5.8716,5.8716,5.8716,5.8716,5.8716,5.8716,5.8716,5.8716,5.8716,5.8716,5.8716,5.8716,5.8698,5.8141,5.7156,4.5246,4.505,0.0,4.456,4.436,0.0,4.3293,0.0,4.2955,0.0,0.0,0.0,0.0,0.0,0.0,0.0,0.0,0.0,0.0,4.3853,0.0,0.0,0.0,0.0,0.0,4.8426,4.9113,4.9633,5.0469,5.1305,5.2122,5.294,5.3497,5.3794,5.3813,5.3813,5.3813,5.3813,5.3813,5.3813,5.3813,5.3813,5.3813,5.3813,5.3813,5.3813,5.3813,5.3813,5.3756,5.3283,5.2993,5.2827,5.3014,5.3184,5.343,5.4356,5.5344,5.6294,5.7285,5.7835,5.8015,5.734,5.7558,5.7996,5.7315,5.734,5.7708,5.8207,5.8125,5.8037,5.8553,5.8716,5.8642,5.8345,5.859,5.9112,5.9926,6.0605,6.1295,6.2034,6.2579,6.2904,6.2805,6.278,6.278,6.278,6.288,6.2635,6.1825,6.1035,6.0319,5.9738,5.8946,5.8529,5.8696,5.8716,5.8716,5.8716,5.8716,5.8716,5.8716,5.8716,5.8995,5.9589,5.9014,5.8995,5.9589,5.8995,5.8716,5.8716,5.8716,5.7843]}]]